[[{"header":{"parameterUnit":"m.s-1","parameterCategory":1,"la1":30.6,"la2":29.2853,"lo1":-89.7004,"lo2":-87.6739,"dy":0.0162,"dx":0.0183,"nx":112,"ny":82,"refTime":"2024-02-09T18:00:00:Z","depth":0,"parameterNumber":2,"parameterNumberName":"U-component_of_WINDS"},"data":[0.0,0.0,0.0,0.0,0.0,0.0,0.0,0.0,0.0,0.0,0.0,0.0,0.0,0.0,0.0,0.0,0.0,0.0,0.0,0.0,0.0,0.0,0.0,0.0,0.0,0.0,0.0,0.0,0.0,0.0,0.0,0.0,0.0,0.0,0.0,0.0,0.0,0.0,0.0,0.0,0.0,0.0,0.0,0.0,0.0,0.0,0.0,0.0,0.0,0.0,0.0,0.0,0.0,0.0,0.0,0.0,0.0,0.0,0.0,0.0,0.0,0.0,0.0,0.0,0.0,0.0,0.0,0.0,0.0,0.0,0.0,0.0,0.0,0.0,0.0,0.0,0.0,0.0,0.0,0.0,0.0,0.0,0.0,0.0,0.0,0.0,0.0,0.0,0.0,0.0,-3.1695,-3.1971,-3.3475,-3.4606,-3.4971,-3.4758,-3.4703,-3.5004,0.0,0.0,0.0,0.0,0.0,0.0,0.0,0.0,0.0,0.0,0.0,0.0,0.0,0.0,0.0,0.0,0.0,0.0,0.0,0.0,0.0,0.0,0.0,0.0,0.0,0.0,0.0,0.0,0.0,0.0,0.0,0.0,0.0,0.0,0.0,0.0,0.0,0.0,0.0,0.0,0.0,0.0,0.0,0.0,0.0,0.0,0.0,0.0,0.0,0.0,0.0,0.0,0.0,0.0,0.0,0.0,0.0,0.0,0.0,0.0,0.0,0.0,0.0,0.0,0.0,0.0,0.0,0.0,0.0,0.0,0.0,0.0,0.0,0.0,0.0,0.0,0.0,0.0,0.0,0.0,0.0,0.0,0.0,0.0,0.0,0.0,0.0,0.0,0.0,0.0,0.0,0.0,0.0,0.0,0.0,0.0,0.0,0.0,0.0,0.0,0.0,0.0,0.0,0.0,-3.2222,-3.3905,-3.4333,-3.5286,-3.7345,-3.5772,-3.5563,-3.7355,0.0,0.0,0.0,0.0,0.0,0.0,0.0,0.0,0.0,0.0,0.0,0.0,0.0,0.0,0.0,0.0,0.0,0.0,0.0,0.0,0.0,0.0,0.0,0.0,0.0,0.0,0.0,0.0,0.0,0.0,0.0,0.0,0.0,0.0,0.0,0.0,0.0,0.0,0.0,0.0,0.0,0.0,0.0,0.0,0.0,0.0,0.0,0.0,0.0,0.0,0.0,0.0,0.0,0.0,0.0,0.0,0.0,0.0,0.0,0.0,0.0,0.0,0.0,0.0,0.0,0.0,0.0,0.0,0.0,0.0,0.0,0.0,0.0,0.0,0.0,0.0,0.0,0.0,0.0,0.0,0.0,0.0,0.0,0.0,0.0,0.0,0.0,0.0,0.0,0.0,0.0,0.0,0.0,0.0,0.0,0.0,0.0,0.0,0.0,0.0,0.0,0.0,0.0,-3.2016,-3.3548,-3.4409,-3.4534,-3.4979,-3.6047,-3.4728,-3.4263,-3.526,-3.6262,0.0,0.0,0.0,0.0,0.0,0.0,0.0,0.0,0.0,0.0,0.0,0.0,0.0,0.0,0.0,0.0,0.0,0.0,0.0,0.0,0.0,0.0,0.0,0.0,0.0,0.0,0.0,0.0,0.0,0.0,0.0,0.0,0.0,0.0,0.0,0.0,0.0,0.0,0.0,0.0,0.0,0.0,0.0,0.0,0.0,0.0,0.0,0.0,0.0,0.0,0.0,0.0,0.0,0.0,0.0,0.0,0.0,0.0,0.0,0.0,0.0,0.0,0.0,0.0,0.0,0.0,0.0,0.0,0.0,0.0,0.0,0.0,0.0,0.0,0.0,0.0,0.0,0.0,0.0,0.0,0.0,0.0,0.0,0.0,0.0,0.0,0.0,0.0,0.0,0.0,0.0,0.0,0.0,0.0,0.0,0.0,0.0,0.0,0.0,0.0,0.0,0.0,-3.3569,-3.4522,-3.4482,-3.4449,-3.4494,-3.4494,-3.37,-3.3391,-3.3704,-3.4751,0.0,0.0,0.0,0.0,0.0,0.0,0.0,0.0,0.0,0.0,0.0,0.0,0.0,0.0,0.0,0.0,0.0,0.0,0.0,0.0,0.0,0.0,0.0,0.0,0.0,0.0,0.0,0.0,0.0,0.0,0.0,0.0,0.0,0.0,0.0,0.0,0.0,0.0,0.0,0.0,0.0,0.0,0.0,0.0,0.0,0.0,0.0,0.0,0.0,0.0,0.0,0.0,0.0,0.0,0.0,0.0,0.0,0.0,0.0,0.0,0.0,0.0,0.0,0.0,0.0,0.0,0.0,0.0,0.0,0.0,0.0,0.0,0.0,0.0,0.0,0.0,0.0,0.0,0.0,0.0,0.0,0.0,0.0,0.0,0.0,0.0,0.0,0.0,0.0,0.0,0.0,0.0,0.0,0.0,0.0,0.0,0.0,0.0,0.0,0.0,0.0,0.0,-3.4388,-3.4504,-3.4492,-3.4516,-3.4491,-3.4491,-3.401,-3.4273,-3.5466,-3.458,0.0,0.0,0.0,0.0,0.0,0.0,0.0,0.0,0.0,0.0,0.0,0.0,0.0,0.0,0.0,0.0,0.0,0.0,0.0,0.0,0.0,0.0,0.0,0.0,0.0,0.0,0.0,0.0,0.0,0.0,0.0,0.0,0.0,0.0,0.0,0.0,0.0,0.0,0.0,0.0,0.0,0.0,0.0,0.0,0.0,0.0,0.0,0.0,0.0,0.0,0.0,0.0,0.0,0.0,0.0,0.0,0.0,0.0,0.0,0.0,0.0,0.0,0.0,0.0,0.0,0.0,0.0,0.0,0.0,0.0,0.0,0.0,0.0,0.0,0.0,0.0,0.0,0.0,0.0,0.0,0.0,0.0,0.0,0.0,0.0,0.0,0.0,0.0,0.0,0.0,0.0,0.0,0.0,0.0,0.0,0.0,0.0,0.0,0.0,0.0,0.0,0.0,-3.352,-3.3661,-3.3989,-3.4624,-3.484,-3.4556,-3.4076,-3.412,-3.4847,0.0,0.0,0.0,0.0,0.0,0.0,0.0,0.0,0.0,0.0,0.0,0.0,0.0,0.0,0.0,0.0,0.0,0.0,0.0,0.0,0.0,0.0,0.0,0.0,0.0,0.0,0.0,0.0,0.0,0.0,0.0,0.0,0.0,0.0,0.0,0.0,0.0,0.0,0.0,0.0,0.0,0.0,0.0,0.0,0.0,0.0,0.0,0.0,0.0,0.0,0.0,0.0,0.0,0.0,0.0,0.0,0.0,0.0,0.0,0.0,0.0,0.0,0.0,0.0,0.0,0.0,0.0,0.0,0.0,0.0,0.0,0.0,0.0,0.0,0.0,0.0,0.0,0.0,0.0,0.0,0.0,0.0,0.0,0.0,0.0,0.0,0.0,0.0,0.0,0.0,0.0,0.0,0.0,0.0,0.0,0.0,0.0,0.0,0.0,0.0,0.0,0.0,-3.165,-3.2362,-3.2827,-3.3526,-3.4376,-3.4862,-3.4556,-3.4229,-3.4163,-3.4513,0.0,0.0,0.0,0.0,0.0,0.0,0.0,0.0,0.0,0.0,0.0,0.0,0.0,0.0,0.0,0.0,0.0,0.0,0.0,0.0,0.0,0.0,0.0,0.0,0.0,0.0,0.0,0.0,0.0,0.0,0.0,0.0,0.0,0.0,0.0,0.0,0.0,0.0,0.0,0.0,0.0,0.0,0.0,0.0,0.0,0.0,0.0,0.0,0.0,0.0,0.0,0.0,0.0,0.0,0.0,0.0,0.0,0.0,0.0,0.0,0.0,0.0,0.0,0.0,0.0,0.0,0.0,0.0,0.0,0.0,0.0,0.0,0.0,0.0,0.0,0.0,0.0,0.0,0.0,0.0,0.0,0.0,0.0,0.0,0.0,0.0,0.0,0.0,0.0,0.0,0.0,0.0,0.0,0.0,0.0,0.0,0.0,0.0,0.0,0.0,0.0,0.0,-2.958,-3.1106,-3.2243,-3.3014,-3.3952,-3.4534,-3.4534,-3.4534,-3.4534,0.0,0.0,0.0,0.0,0.0,0.0,0.0,0.0,0.0,0.0,0.0,0.0,0.0,0.0,0.0,0.0,0.0,0.0,0.0,0.0,0.0,0.0,0.0,0.0,0.0,0.0,0.0,0.0,0.0,0.0,0.0,0.0,0.0,0.0,0.0,0.0,0.0,0.0,0.0,0.0,0.0,0.0,0.0,0.0,0.0,0.0,0.0,0.0,0.0,0.0,0.0,0.0,0.0,0.0,0.0,0.0,0.0,0.0,0.0,0.0,0.0,0.0,0.0,0.0,0.0,0.0,0.0,0.0,0.0,0.0,0.0,0.0,0.0,0.0,0.0,0.0,0.0,0.0,0.0,0.0,0.0,0.0,0.0,0.0,0.0,0.0,0.0,0.0,0.0,0.0,0.0,0.0,0.0,0.0,0.0,0.0,0.0,0.0,0.0,0.0,0.0,0.0,0.0,-2.958,-3.0822,-3.1911,-3.2943,-3.4232,-3.4862,-3.4556,-3.4534,-3.4534,-3.4534,0.0,0.0,0.0,0.0,0.0,0.0,0.0,0.0,0.0,0.0,0.0,0.0,0.0,0.0,0.0,0.0,0.0,0.0,0.0,0.0,0.0,0.0,0.0,0.0,0.0,0.0,0.0,0.0,0.0,0.0,0.0,0.0,0.0,0.0,0.0,0.0,0.0,0.0,0.0,0.0,0.0,0.0,0.0,0.0,0.0,0.0,0.0,0.0,0.0,0.0,0.0,0.0,0.0,0.0,0.0,0.0,0.0,0.0,0.0,0.0,0.0,0.0,0.0,0.0,0.0,0.0,0.0,0.0,0.0,0.0,0.0,0.0,0.0,0.0,0.0,0.0,0.0,0.0,0.0,0.0,0.0,0.0,0.0,0.0,0.0,0.0,0.0,0.0,0.0,0.0,0.0,0.0,0.0,0.0,0.0,0.0,0.0,0.0,0.0,0.0,0.0,0.0,-2.8814,-2.9931,-3.1063,-3.2488,-3.36,-3.4345,-3.4534,-3.4534,-3.4534,-3.4534,0.0,0.0,0.0,0.0,0.0,0.0,0.0,0.0,0.0,0.0,0.0,0.0,0.0,0.0,0.0,0.0,0.0,0.0,0.0,0.0,0.0,0.0,0.0,0.0,0.0,0.0,0.0,0.0,0.0,0.0,0.0,0.0,0.0,0.0,0.0,0.0,0.0,0.0,0.0,0.0,0.0,0.0,0.0,0.0,0.0,0.0,0.0,0.0,0.0,0.0,0.0,0.0,0.0,0.0,0.0,0.0,0.0,0.0,0.0,0.0,0.0,0.0,0.0,0.0,0.0,0.0,0.0,0.0,0.0,0.0,0.0,0.0,0.0,0.0,0.0,0.0,0.0,0.0,0.0,0.0,0.0,0.0,0.0,0.0,0.0,0.0,0.0,0.0,0.0,0.0,0.0,0.0,0.0,0.0,0.0,0.0,0.0,0.0,0.0,0.0,0.0,0.0,-2.7673,-2.8691,-2.9922,-3.1552,-3.255,-3.3459,-3.4289,-3.4401,-3.4534,-3.4534,0.0,0.0,0.0,0.0,0.0,0.0,0.0,0.0,0.0,0.0,0.0,0.0,0.0,0.0,0.0,0.0,0.0,0.0,0.0,0.0,0.0,0.0,0.0,0.0,0.0,0.0,0.0,0.0,0.0,0.0,0.0,0.0,0.0,0.0,0.0,0.0,0.0,0.0,0.0,0.0,0.0,0.0,0.0,0.0,0.0,0.0,0.0,0.0,0.0,0.0,0.0,0.0,0.0,0.0,0.0,0.0,0.0,0.0,0.0,0.0,-1.7718,-1.83,0.0,0.0,0.0,0.0,0.0,0.0,0.0,0.0,0.0,0.0,0.0,0.0,0.0,0.0,0.0,0.0,0.0,0.0,0.0,0.0,0.0,0.0,0.0,0.0,0.0,0.0,0.0,0.0,0.0,0.0,0.0,0.0,0.0,0.0,0.0,0.0,0.0,0.0,0.0,0.0,-2.7673,-2.8937,-2.991,-3.0665,-3.2092,-3.3233,-3.3346,-3.4065,-3.4534,-3.4534,-3.4534,0.0,0.0,0.0,0.0,0.0,0.0,0.0,0.0,0.0,0.0,0.0,0.0,0.0,0.0,0.0,0.0,0.0,0.0,0.0,0.0,0.0,0.0,0.0,0.0,0.0,0.0,0.0,0.0,0.0,0.0,0.0,0.0,0.0,0.0,0.0,0.0,0.0,0.0,0.0,0.0,0.0,0.0,0.0,0.0,0.0,0.0,0.0,0.0,0.0,0.0,0.0,0.0,0.0,0.0,0.0,0.0,0.0,0.0,0.0,-1.8256,-1.8617,0.0,0.0,0.0,0.0,0.0,0.0,0.0,0.0,0.0,0.0,0.0,0.0,0.0,0.0,0.0,0.0,0.0,0.0,0.0,0.0,0.0,0.0,0.0,0.0,0.0,0.0,0.0,0.0,0.0,0.0,0.0,0.0,0.0,0.0,0.0,0.0,0.0,0.0,0.0,0.0,-2.7691,-2.8574,-2.9448,-3.0334,-3.1189,-3.2092,-3.3006,-3.3593,-3.4151,-3.484,-3.4644,0.0,0.0,0.0,0.0,0.0,0.0,0.0,0.0,0.0,0.0,0.0,0.0,0.0,0.0,0.0,0.0,0.0,0.0,0.0,0.0,0.0,0.0,0.0,0.0,0.0,0.0,0.0,0.0,0.0,0.0,0.0,0.0,0.0,0.0,0.0,0.0,0.0,0.0,0.0,0.0,0.0,0.0,0.0,0.0,0.0,0.0,0.0,0.0,0.0,0.0,0.0,0.0,0.0,-1.9296,-1.8956,-1.8063,-1.9018,-1.9422,-1.9352,-1.9322,-1.9296,-1.9022,-1.8155,0.0,0.0,0.0,0.0,0.0,0.0,0.0,0.0,0.0,0.0,0.0,0.0,0.0,0.0,0.0,0.0,0.0,0.0,0.0,0.0,0.0,0.0,-2.1189,-2.1189,-2.1229,-2.2539,-2.7153,0.0,0.0,0.0,0.0,0.0,0.0,0.0,0.0,0.0,0.0,0.0,-2.7728,-2.8187,-2.8997,-3.0097,-3.037,-3.1093,-3.2662,-3.3142,-3.3862,-3.4956,-3.4858,-3.5124,0.0,0.0,0.0,0.0,0.0,0.0,0.0,0.0,0.0,0.0,0.0,0.0,0.0,0.0,0.0,0.0,0.0,0.0,0.0,0.0,0.0,0.0,0.0,0.0,0.0,0.0,0.0,0.0,0.0,0.0,0.0,0.0,-0.8562,-0.8541,0.0,0.0,0.0,0.0,0.0,0.0,0.0,0.0,0.0,0.0,0.0,0.0,0.0,-1.0038,-1.0603,-1.0717,-1.357,-1.9111,-2.0087,-2.0355,-2.0299,-2.0379,-2.0551,-2.0484,-2.049,0.0,-1.9048,-1.8947,0.0,0.0,0.0,0.0,0.0,0.0,0.0,0.0,0.0,0.0,0.0,0.0,0.0,0.0,0.0,0.0,0.0,0.0,0.0,0.0,0.0,0.0,-2.1639,-2.1795,-2.1984,-2.2614,-2.4553,-2.4671,-2.4963,-2.6236,-2.6857,-2.716,0.0,0.0,0.0,0.0,0.0,0.0,-2.7765,-2.8425,-2.9168,-2.9693,-3.0452,-3.1185,-3.1774,-3.337,-3.4358,-3.4538,-3.5337,-3.5845,-3.5954,-3.6304,0.0,0.0,0.0,0.0,0.0,0.0,0.0,0.0,0.0,0.0,0.0,0.0,0.0,0.0,0.0,0.0,0.0,0.0,0.0,0.0,0.0,0.0,0.0,0.0,0.0,0.0,0.0,0.0,0.0,-0.8644,-0.8666,-0.8595,-0.859,-0.8519,0.0,0.0,0.0,0.0,0.0,0.0,0.0,0.0,0.0,-1.0295,-1.0677,-1.0907,-1.1249,-1.4318,-1.7654,-2.0872,-2.1383,-2.1632,-2.1586,-2.1629,-2.1629,-2.1586,-2.1616,-2.1032,-1.9929,-1.9304,-1.884,-1.8383,0.0,0.0,0.0,0.0,-1.9072,-1.9096,-1.9395,-1.9377,-1.9181,-1.9334,0.0,0.0,0.0,0.0,0.0,0.0,0.0,-2.1331,-2.1461,-2.1697,-2.1934,-2.2092,-2.2187,-2.2227,-2.2888,-2.3632,-2.4611,-2.6083,-2.7249,-2.7783,-2.7545,-2.7361,0.0,0.0,0.0,-2.8205,-2.8425,-2.8957,-2.947,-2.9874,-3.0278,-3.0841,-3.1482,-3.2955,-3.4015,-3.4903,-3.5639,-3.6195,-3.6741,-3.6719,-3.6806,0.0,0.0,0.0,0.0,0.0,0.0,0.0,0.0,0.0,0.0,0.0,0.0,0.0,0.0,0.0,0.0,0.0,0.0,0.0,0.0,0.0,0.0,0.0,0.0,0.0,0.0,0.0,0.0,-0.8579,-0.8633,-0.8784,-0.8687,-0.8666,0.0,0.0,0.0,0.0,0.0,0.0,-1.0967,-1.1013,-1.1168,-1.1168,-1.1531,-1.2619,-1.4297,-1.8899,-2.1485,-2.2304,-2.2325,-2.2331,-2.2323,-2.2323,-2.2323,-2.231,-2.2261,-2.182,-2.1047,-1.9893,-1.9364,-1.9101,-1.9132,-1.9108,-1.9136,-1.9136,-1.9277,-1.9597,-1.9936,-1.9751,-1.934,-1.9589,-1.9585,-1.9431,-1.9487,0.0,0.0,0.0,0.0,-2.145,-2.1569,-2.1767,-2.1965,-2.2257,-2.2297,-2.2191,-2.2111,-2.314,-2.4555,-2.5951,-2.7155,-2.8056,-2.8003,-2.7838,0.0,-2.7765,-2.8113,-2.8535,-2.8938,-2.9324,-2.9764,-3.0296,-3.0351,-3.0636,-3.1456,-3.2422,-3.3659,-3.4879,-3.567,-3.6394,-3.7352,-3.7046,-3.7025,-3.7374,0.0,0.0,0.0,0.0,0.0,0.0,0.0,0.0,0.0,0.0,0.0,0.0,0.0,0.0,0.0,0.0,0.0,0.0,0.0,0.0,0.0,0.0,0.0,0.0,0.0,0.0,0.0,0.0,0.0,-0.9194,-0.8826,0.0,0.0,0.0,0.0,-1.0515,-1.0631,-1.0992,-1.1579,-1.2163,-1.2388,-1.2395,-1.2407,-1.5509,-2.1697,-2.2118,-2.2177,-2.2347,-2.2277,-2.2277,-2.2223,-2.2223,-2.2223,-2.236,-2.2288,-2.2313,-2.2068,-2.1072,-2.0007,-1.9131,-1.9107,-1.9096,-1.9107,-1.9107,-1.9699,-2.0585,-2.0609,-2.0426,-1.999,-2.0014,-2.0256,-2.0352,-2.0364,-2.0762,0.0,0.0,-2.1172,-2.145,-2.145,-2.1658,-2.2002,-2.2271,-2.2619,-2.2739,-2.2458,-2.3462,-2.4583,-2.5423,-2.6388,-2.7262,-2.8191,0.0,-2.7765,-2.7765,-2.8113,-2.8535,-2.8938,-2.9324,-2.9874,-3.0681,-3.0754,-3.0919,-3.1414,-3.2308,-3.332,-3.4342,-3.5314,-3.6316,-3.7374,-3.7352,-3.7352,-3.7374,-3.7374,0.0,0.0,0.0,0.0,0.0,0.0,0.0,0.0,0.0,0.0,0.0,0.0,0.0,0.0,0.0,0.0,0.0,0.0,0.0,0.0,0.0,0.0,0.0,0.0,0.0,0.0,0.0,0.0,-0.9678,-0.9276,0.0,-0.9024,-0.9443,-1.0152,-1.1234,-1.1643,-1.2135,-1.2806,-1.2902,-1.2929,-1.2554,-1.2894,-1.4121,-1.6623,-2.1046,-2.3279,-2.3261,-2.2681,-2.2341,-2.2248,-2.2253,-2.2343,-2.2325,-2.2235,-2.235,-2.2325,-2.1885,-2.1124,-2.0166,-2.015,-2.0537,-2.1121,-2.0355,-2.0429,-2.0736,-2.0736,-2.0441,-2.0282,-2.0282,-2.016,-2.0014,-2.0014,-2.0404,-2.0662,-2.0797,-2.1182,-2.1558,-2.1641,-2.2095,-2.2402,-2.2343,-2.2642,-2.2832,-2.2726,-2.3107,-2.3912,-2.581,-2.6975,-2.8078,-2.9337,-2.9434,-2.9324,-2.9324,-2.9452,-2.969,-3.0094,-3.0277,-3.0571,-3.1102,-3.1176,-3.1231,-3.1359,-3.2384,-3.3,-3.3379,-3.5005,-3.5992,-3.638,-3.7011,-3.7374,-3.7374,-3.7374,-3.7374,0.0,0.0,0.0,0.0,0.0,0.0,0.0,0.0,0.0,0.0,0.0,0.0,0.0,0.0,0.0,0.0,0.0,0.0,0.0,0.0,0.0,0.0,0.0,0.0,0.0,0.0,-0.9267,-1.0347,-1.0155,-1.0035,-0.9992,-1.0448,-1.1065,-1.2128,-1.2655,-1.3137,-1.3696,-1.3464,-1.3234,-1.2821,-1.3253,-1.4456,-1.6959,-2.143,-2.3805,-2.386,-2.3174,-2.2627,-2.2341,-2.2681,-2.2573,-2.2305,-2.2301,-2.2247,-2.2325,-2.2325,-2.1946,-2.1258,-2.1229,-2.1492,-2.1697,-2.0918,-2.0646,-2.071,-2.071,-2.0622,-2.0545,-2.0545,-2.0484,-2.0424,-2.0424,-2.0683,-2.0955,-2.0955,-2.134,-2.1715,-2.1823,-2.2256,-2.2447,-2.2357,-2.2671,-2.3046,-2.3001,-2.3166,-2.3749,-2.5695,-2.6841,-2.8162,-2.985,-3.0204,-3.0204,-3.0204,-3.0204,-3.0351,-3.0736,-3.0791,-3.0937,-3.1341,-3.1377,-3.1377,-3.1377,-3.1888,-3.2302,-3.2661,-3.3913,-3.5026,-3.5659,-3.6417,-3.7011,-3.7374,-3.7374,-3.7374,-3.7374,0.0,0.0,0.0,0.0,0.0,0.0,0.0,0.0,0.0,0.0,0.0,0.0,0.0,0.0,0.0,0.0,0.0,0.0,0.0,0.0,0.0,0.0,0.0,-0.8728,-0.9,-0.9903,-1.1372,-1.1505,-1.1588,-1.1461,-1.2624,-1.3358,-1.3499,-1.3442,-1.3747,-1.4249,-1.3804,-1.3429,-1.3346,-1.3465,-1.6684,-2.343,-2.3773,-2.375,-2.383,-2.3818,-2.3321,-2.2377,-2.3389,-2.3243,-2.2341,-2.2317,-2.2337,-2.2271,-2.2259,-2.2259,-2.2372,-2.2335,-2.1652,-2.0781,-2.0769,-2.0754,-2.0678,-2.069,-2.0859,-2.1064,-2.1076,-2.1269,-2.1474,-2.1474,-2.1762,-2.1906,-2.1618,-2.1762,-2.205,-2.205,-2.2124,-2.2268,-2.2548,-2.2975,-2.328,-2.3274,-2.3483,-2.4086,-2.5135,-2.6023,-2.7295,-2.9779,-3.0241,-3.0241,-3.0241,-3.0241,0.0,-3.0754,-3.0809,-3.0956,-3.1341,-3.1377,-3.1377,-3.1377,-3.1029,-3.1169,-3.2152,-3.2277,-3.3144,-3.5098,-3.5638,-3.638,-3.7374,-3.7374,-3.7374,-3.7374,0.0,0.0,0.0,0.0,0.0,0.0,0.0,0.0,0.0,0.0,0.0,0.0,0.0,0.0,0.0,0.0,0.0,0.0,0.0,0.0,0.0,-1.0903,-1.0708,-1.0399,-1.0407,-1.0688,-1.1816,-1.2044,-1.2067,-1.1925,-1.2267,-1.3136,-1.4674,-1.4794,-1.485,-1.497,-1.4885,-1.4283,-1.3359,-1.379,-1.5004,-1.6868,-2.141,-2.3821,-2.3836,-2.3828,-2.3695,-2.3428,-2.3729,-2.363,-2.338,-2.2649,-2.2269,-2.2349,-2.2331,-2.2259,-2.2247,-2.2262,-2.2153,-2.175,-2.1546,-2.1198,-2.0979,-2.1185,-2.1172,-2.1124,-2.1523,-2.1571,-2.1474,-2.1474,-2.1618,-2.1618,-2.1474,-2.1764,-2.1861,-2.1667,-2.1993,-2.2331,-2.2219,-2.2418,-2.2808,-2.3184,-2.3027,-2.3547,-2.5092,-2.6222,-2.7473,-2.9232,-3.0409,-3.1047,-3.1047,-3.1047,-3.1102,-3.1194,-3.1212,-3.1267,-3.1359,-3.1377,-3.1377,-3.1377,-3.1267,-3.134,-3.1596,-3.234,-3.2952,-3.3579,-3.5067,-3.638,-3.7374,-3.7374,-3.7374,0.0,0.0,0.0,0.0,0.0,0.0,0.0,0.0,0.0,0.0,0.0,0.0,0.0,0.0,0.0,0.0,0.0,0.0,0.0,0.0,0.0,0.0,-1.0928,-1.0988,-1.1259,-1.1255,-1.1563,-1.2194,-1.2152,-1.2124,-1.2219,-1.296,-1.3859,-1.5063,-1.5125,-1.5139,-1.5237,-1.5227,-1.4743,-1.3807,-1.4048,-1.4365,-1.4281,-2.1135,-2.4532,-2.4492,-2.4088,-2.377,-2.3824,-2.3854,-2.3854,-2.3793,-2.3128,-2.2923,-2.2967,-2.2657,-2.2512,-2.2253,0.0,0.0,0.0,0.0,-2.1366,-2.1112,-2.1342,-2.1378,-2.1474,-2.1897,-2.1933,-2.1824,-2.1933,-2.1897,-2.1812,-2.1812,-2.1921,-2.2005,-2.1848,-2.2129,-2.2288,-2.2105,-2.2443,-2.2828,-2.3088,-2.2896,-2.308,-2.4063,-2.5555,0.0,-2.7949,-2.9917,-3.1377,-3.1377,-3.1377,-3.1377,-3.1377,-3.1377,-3.1377,-3.1377,-3.1377,-3.1377,-3.1377,-3.1231,0.0,0.0,0.0,-3.2447,-3.3505,-3.55,0.0,0.0,0.0,-3.7374,-3.7374,-3.7374,0.0,0.0,-3.7593,-3.7789,0.0,0.0,0.0,0.0,0.0,0.0,0.0,0.0,0.0,0.0,0.0,0.0,0.0,0.0,0.0,0.0,-1.0578,-1.0846,-1.1449,-1.1995,-1.2301,-1.2242,-1.2256,-1.2194,-1.2194,-1.4109,-1.5248,-1.5228,-1.5201,-1.5181,-1.5181,-1.5167,0.0,0.0,0.0,-1.4283,-1.4381,-2.0806,-2.462,-2.5322,-2.4413,-2.401,-2.3925,-2.3913,-2.3836,-2.3733,-2.3854,-2.3864,-2.3761,-2.3353,-2.2838,-2.2257,-2.2367,-2.2323,-2.2276,-2.1786,-2.1498,-2.146,-2.1313,0.0,0.0,-2.2235,-2.2307,-2.2343,-2.2549,-2.2452,-2.2259,-2.2259,-2.2259,-2.2259,-2.2259,-2.2374,-2.2411,-2.2347,-2.267,-2.2852,-2.2955,-2.2915,-2.2772,-2.2663,-2.4442,-2.6012,-2.6368,-2.9117,-3.1249,-3.1377,-3.1377,-3.1377,-3.1377,-3.1377,-3.1377,-3.1377,-3.1377,0.0,-3.1377,-3.1066,-3.0737,-3.0864,-3.0846,-3.1879,-3.3988,-3.5992,-3.7132,-3.7253,-3.7374,-3.7374,-3.7374,-3.7374,-3.744,-3.7549,-3.792,-3.8335,0.0,0.0,0.0,0.0,0.0,0.0,0.0,0.0,0.0,0.0,0.0,0.0,0.0,0.0,0.0,-1.1201,-1.1255,-1.1346,-1.1949,-1.2053,-1.2306,-1.2427,-1.2292,-1.2154,-1.2235,-1.4106,-1.52,-1.5187,-1.5255,-1.5181,-1.5181,-1.5183,-1.4896,-1.4356,-1.4342,-1.4383,-1.4303,-1.5816,-1.9425,-2.5323,-2.5264,0.0,-2.5096,-2.4187,-2.3832,-2.3722,-2.3864,-2.3794,-2.3852,-2.3753,-2.3076,-2.2343,-2.2337,-2.2361,-2.2325,-2.2162,-2.2428,-2.2854,-2.2464,-2.25,-2.2512,-2.2561,-2.2573,-2.2549,-2.238,-2.2295,0.0,-2.2259,-2.2259,-2.2259,-2.2259,-2.2372,-2.2347,-2.2247,-2.2372,-2.2496,-2.2843,-2.2472,-2.2256,-2.2481,-2.4261,-2.5592,-2.5651,-2.8328,-3.0732,-3.1249,-3.1377,-3.1377,-3.1377,-3.1377,-3.1377,-3.1377,-3.1377,-3.1377,-3.1377,-3.0789,-3.0624,-3.1267,-3.1267,-3.1542,-3.2237,-3.3988,-3.5376,-3.6135,-3.7011,-3.7374,-3.7374,-3.7374,-3.7789,-3.8554,-3.8248,-3.816,0.0,0.0,0.0,0.0,0.0,0.0,0.0,0.0,0.0,0.0,0.0,-0.1784,-0.7366,0.0,-1.1201,-1.1463,-1.1621,-1.1781,-1.2205,-1.2314,-1.2373,-1.224,-1.239,-1.2395,-1.2498,-1.3374,-1.4457,-1.505,-1.4831,-1.4886,-1.5086,-1.5128,-1.5046,-1.4671,-1.478,-1.4719,-1.4679,-1.4675,-1.6533,-1.9906,-2.3626,-2.5325,-2.5396,-2.489,-2.4685,-2.4596,-2.4328,-2.4146,-2.3988,-2.3622,-2.323,-2.2669,-2.2437,-2.2637,-2.3002,-2.3077,-2.323,-2.3529,-2.3125,-2.2959,-2.2874,-2.3007,-2.2959,-2.285,-2.285,-2.2669,-2.2452,-2.2452,-2.2367,-2.2259,-2.2259,-2.2259,-2.2259,-2.2259,-2.2162,-2.225,-2.2533,-2.2142,-2.1762,-2.205,-2.3227,-2.4365,-2.5143,-2.7146,-2.9158,-3.0346,-3.0786,-3.091,-3.091,-3.091,-3.0839,-3.0644,-3.0627,-3.0538,-3.0361,-2.9952,-2.9952,-3.0343,-3.0843,-3.1212,-3.1341,-3.26,-3.3968,-3.5355,-3.5869,-3.6609,-3.7745,-3.7745,-3.8117,-3.8838,-3.8838,-3.8969,0.0,0.0,0.0,0.0,0.0,0.0,0.0,-0.0,-0.0,-0.0,-0.1218,-0.297,-0.5547,-0.9063,-1.1618,-1.159,-1.1889,-1.2134,-1.2357,-1.2477,-1.2553,-1.2401,-1.2498,-1.2659,-1.297,-1.2858,-1.3548,-1.4898,-1.4448,-1.446,-1.4991,-1.5073,-1.5188,-1.5167,-1.5188,-1.5209,-1.5209,-1.5174,-1.4875,-1.433,-2.1174,-2.4396,-2.4384,-2.4368,-2.4135,-2.3855,-2.388,-2.404,-2.4267,-2.3476,-2.3092,-2.2829,-2.2408,-2.2971,-2.3833,-2.3716,-2.3729,-2.3791,-2.349,-2.3333,-2.3225,-2.3393,-2.3297,-2.3152,-2.3321,-2.3031,-2.2657,-2.2657,-2.2464,-2.2259,-2.2259,-2.2259,-2.2259,-2.2259,-2.2102,-2.2005,-2.2211,-2.1885,-2.1559,-2.1559,-2.2174,-2.3287,-2.4667,-2.6132,-2.77,-2.9597,-3.002,-3.0276,-3.0276,-3.0276,-3.0156,-2.9984,-2.995,-2.9679,-2.9189,-2.9219,-2.9185,-2.8922,-2.9935,-3.0437,-3.0307,-3.1433,-3.2835,-3.4363,-3.4612,-3.5707,-3.787,-3.7972,-3.8276,-3.8864,-3.9362,-3.9755,-0.0,-0.0,-0.0,-0.0,-0.0,-0.0,0.0,-0.0,-0.0,-0.0,-0.5406,-0.9302,-0.6676,-0.9297,-1.1855,-1.1759,-1.2091,-1.2362,-1.2498,-1.2526,-1.2613,-1.2825,-1.2738,-1.271,-1.2835,-1.2924,-1.32,-1.3879,-1.3716,-1.3907,-1.4427,-1.4692,-1.4879,-1.5142,-1.5259,-1.5133,-1.5133,-1.5176,-1.4991,-1.4417,-1.9071,-2.1047,-2.0568,-2.0549,-1.9684,-1.8542,-2.0744,-2.2565,-2.3879,-2.3708,-2.3164,-2.2377,-2.2306,-2.2865,-2.3686,-2.3333,-2.3392,-2.3695,-2.3514,-2.3587,-2.3719,-2.3514,-2.343,-2.3369,-2.3152,-2.2887,-2.2657,-2.2657,-2.2464,-2.2259,-2.2259,-2.2259,-2.2259,-2.2259,-2.2235,-2.2223,-2.2259,-2.2029,-2.1824,-2.1824,-2.245,-2.3519,-2.475,-2.6135,-2.771,-2.953,-3.002,-3.0276,-3.0276,-3.0276,-3.0259,-3.0208,-3.0208,-2.9936,-2.8909,-2.9108,-2.879,-2.7467,-2.8642,-2.9168,-2.8659,-3.0178,-3.1579,-3.3126,-3.4007,-3.5355,-3.7249,-3.7477,-3.8075,-3.8959,-3.9409,-3.958,-0.0,-0.0,-0.0,-0.0,-0.0,-0.0,-0.0,-0.0,-0.0,-0.0,-0.6344,-1.1362,-0.9599,-1.0871,-1.219,-1.2308,-1.2471,-1.2602,-1.2721,-1.2678,-1.2672,-1.277,-1.2678,-1.2678,-1.2868,-1.2968,-1.2847,-1.3126,-1.3304,-1.3639,-1.4501,-1.4343,-1.4487,-1.4895,-1.4936,-1.5059,-1.5252,-1.5101,-1.4808,-1.4551,-1.6263,-1.6792,-1.6721,-1.8087,-1.8596,-1.863,-1.9541,-2.0926,-2.2282,-2.3135,-2.3393,-2.3116,-2.2543,-2.2865,-2.3402,-2.3009,-2.3212,-2.344,-2.349,-2.3526,-2.3623,-2.3671,-2.3683,-2.3659,-2.355,-2.3321,-2.3116,-2.3116,-2.2814,-2.2488,-2.2488,-2.238,-2.2259,-2.2259,-2.2138,-2.2078,-2.2235,-2.2054,-2.1873,-2.1873,-2.2214,-2.2645,-2.3741,-2.5254,-2.6791,-2.8209,-2.9163,-2.9682,-2.9682,-2.9682,-2.96,-2.9388,-2.9175,-2.8842,-2.8438,-2.837,-2.8174,-2.7502,-2.804,-2.821,-2.7749,-2.8776,-3.0327,-3.2577,-3.3321,-3.4963,-3.7933,-3.8315,-3.8786,-3.9455,-3.9844,-3.9973,-0.0,-0.0,-0.0,-0.0,-0.0,-0.0,-0.0,-0.0,-0.0,-0.0,-0.4639,-0.9432,-1.1294,-1.1426,-1.1554,-1.2406,-1.2705,-1.2765,-1.2786,-1.2743,-1.2683,-1.2618,-1.2536,-1.2553,-1.2721,-1.2716,-1.2836,-1.2498,-1.2921,-1.3469,-1.429,-1.4258,-1.4186,-1.4764,-1.4794,-1.4909,-1.5094,-1.5025,-1.4808,-1.4618,-1.4529,-1.4373,-1.4326,-1.6133,-1.714,-1.7713,-1.8023,-1.8495,-1.9297,-2.2144,-2.3135,-2.2618,-2.1836,-2.1912,-2.2412,-2.1619,-2.209,-2.3176,-2.3333,-2.3393,-2.349,-2.3756,-2.384,-2.384,-2.384,-2.3659,-2.3454,-2.3454,-2.3068,-2.2657,-2.2657,-2.2512,-2.2367,-2.2367,-2.2223,-2.2138,-2.2331,-2.2223,-2.209,-2.209,-2.2138,-2.2571,-2.3945,-2.529,-2.6614,-2.8097,-2.8987,-2.9584,-2.9584,-2.9504,-2.9345,-2.9091,-2.8646,-2.8376,-2.8376,-2.8058,-2.7868,-2.7868,-2.7788,-2.7614,-2.7359,-2.782,-2.9158,-3.1665,-3.2047,-3.4051,-3.7577,-3.7968,-3.8611,-3.9625,-4.0018,-4.0214,-0.0,-0.0,-0.0,-0.0,-0.0,-0.0,-0.0,-0.0,-0.0,-0.0,-0.0186,-0.2786,-1.0664,-0.9989,-0.9256,-1.2192,-1.2869,-1.2803,-1.258,-1.264,-1.2623,-1.239,-1.2362,-1.2362,-1.2368,-1.2574,-1.2607,-1.2379,-1.3035,-1.3315,-1.3492,-1.4031,-1.4336,-1.474,-1.474,-1.4746,-1.4746,-1.4889,-1.4889,-1.474,-1.4882,-1.4794,-1.4496,-1.438,-1.416,-1.4002,-1.5692,-1.5234,-1.4159,-2.1058,-2.2293,-1.983,-1.9604,-2.0022,-2.0479,-1.8315,-1.997,-2.3056,-2.3056,-2.3225,-2.349,-2.3756,-2.384,-2.384,-2.384,-2.3659,-2.3454,-2.3454,-2.3068,-2.2657,-2.2657,-2.2645,-2.2645,-2.2645,-2.2633,-2.2633,-2.2645,-2.2633,-2.2633,-2.2633,-2.2838,-2.3766,-2.6171,-2.664,-2.7409,-2.9837,-3.0283,-3.0283,-3.0283,-3.0013,-2.9806,-2.979,-2.9171,-2.8757,-2.8757,-2.8424,-2.8201,-2.8201,-2.7915,-2.7725,-2.7709,-2.7741,-2.8402,-2.983,-3.0206,-3.2061,-3.5465,-3.5692,-3.6994,-3.921,-3.9625,-4.0126,-0.0,-0.0,-0.0,-0.0,-0.0,-0.0,-0.0,-0.0,-0.0,-0.0,-0.0,-0.0902,-0.3689,-0.5529,-0.8139,-1.2118,-1.2841,-1.2869,-1.2651,-1.2683,-1.2585,-1.227,-1.2232,-1.2199,-1.2118,-1.233,-1.2471,-1.2477,-1.2703,-1.2983,-1.3633,-1.3802,-1.4069,-1.4746,-1.4841,-1.4896,-1.4896,-1.4841,-1.4841,-1.4889,-1.474,-1.4611,-1.4502,-1.4204,-1.3987,-1.3831,-1.4358,-1.471,-1.5224,-1.7548,-1.8551,-1.8896,-1.8378,-1.8407,-1.8697,-1.7788,-1.8325,-1.9667,-2.0748,-2.2009,-2.3225,-2.3502,-2.3587,-2.3611,-2.3792,-2.3659,-2.349,-2.3671,-2.3454,-2.3188,-2.3188,-2.2923,-2.2693,-2.2874,-2.2778,-2.2705,-2.2874,-2.2911,-2.2911,-2.2911,-2.2983,-2.3649,-2.5172,-2.6391,-2.798,-3.0678,-3.0616,-3.0315,-3.0315,-3.0219,-3.0156,-3.0156,-2.9933,-2.9711,-2.9488,-2.9361,-2.9091,-2.8614,-2.8694,-2.8551,-2.8074,-2.8519,-2.933,-3.0583,-3.0943,-3.257,-3.5742,-3.6127,-3.7278,-3.9231,-3.9948,-4.045,-0.0,-0.0,-0.0,-0.0,-0.0,-0.0,-0.0,-0.0,-0.0,-0.0,-0.0,-0.0,-0.0,-0.2136,-0.4818,-0.7867,-1.088,-1.2853,-1.2692,-1.2648,-1.2532,-1.2188,-1.2134,-1.2074,-1.1993,-1.2096,-1.2232,-1.2395,-1.2444,-1.2769,-1.3505,-1.3633,-1.3883,-1.4746,-1.4835,-1.4841,-1.4733,-1.4794,-1.4896,-1.5038,-1.4685,-1.4509,-1.4502,-1.415,-1.3966,-1.3912,-1.377,-1.4315,-1.5188,-1.5615,-1.6478,-1.7575,-1.702,-1.6912,-1.6948,-1.613,-1.6303,-1.7189,-1.9523,-2.1234,-2.2432,-2.3344,-2.3599,-2.3623,-2.3792,-2.3731,-2.3635,-2.3792,-2.3659,-2.3454,-2.3454,-2.32,-2.2983,-2.3152,-2.3056,-2.2983,-2.3152,-2.3188,-2.3188,-2.3188,-2.3261,-2.3947,-2.563,-2.7494,-2.9254,-3.1194,-3.0998,-3.0696,-3.0696,-3.0585,-3.0505,-3.0505,-3.0394,-3.0235,-3.0013,-2.9997,-2.9806,-2.9345,-2.9425,-2.9282,-2.8821,-2.9123,-2.9599,-3.0326,-3.056,-3.2211,-3.51,-3.5374,-3.6829,-3.9353,-3.9918,-4.0641,-0.0,-0.0,-0.0,-0.0,-0.0,-0.0,-0.0,-0.0,-0.0,-0.0,-0.0,-0.0,-0.0,-0.0,-0.0,-0.0,-0.7132,-1.263,-1.2739,-1.2602,-1.2337,-1.2156,-1.2085,-1.2015,-1.2009,-1.1906,-1.1933,-1.2172,0.0,-1.2875,-1.3712,-1.3572,-1.3808,-1.4767,-1.476,-1.4624,-1.434,-1.4767,-1.5038,-1.5153,-1.4726,-1.4516,-1.4496,-1.4061,-1.3939,-1.4061,-1.3919,-1.3844,-1.3988,-1.5347,-1.5859,-1.5811,-1.5634,-1.5601,-1.54,-1.3646,-1.3916,-1.5822,-1.9133,-2.0537,-2.1069,-2.3093,-2.3668,-2.3828,-2.384,-2.384,-2.3828,-2.384,-2.3671,-2.3478,-2.3478,-2.3466,-2.3454,-2.3466,-2.3466,-2.3454,-2.3466,-2.3478,-2.349,-2.3478,-2.3671,-2.4786,-2.7148,-2.9679,-3.1427,-3.1443,-3.1443,-3.1427,-3.1395,-3.1093,-3.0886,-3.0886,-3.0585,-3.0362,-3.0346,-3.0362,-3.0362,-3.0315,-3.0044,-2.987,-2.9854,-2.9504,-2.9329,-2.9329,-2.9314,-3.0676,-3.3568,-3.3725,-3.5604,-3.9239,-3.9707,-4.0622,0.0339,-0.0,-0.0,-0.0,-0.0,-0.0,-0.0,-0.0,-0.0,-0.0,-0.0,-0.0,-0.0,-0.0,-0.0,-0.0,-0.4538,-0.8531,-0.9586,-1.1417,-1.2737,-1.2335,-1.2362,-1.2362,-1.227,-1.215,-1.2183,-1.2422,-1.2303,-1.2853,-1.3969,-1.3847,-1.4279,-1.5072,-1.5072,-1.4984,-1.4801,-1.5018,-1.5038,-1.4848,-1.474,-1.4624,-1.4502,-1.4285,-1.4143,-1.4068,-1.4034,-1.3946,-1.3838,-1.4259,-1.4258,-1.4045,-1.3967,-1.3817,-1.3646,-1.3137,-1.3346,-1.4084,-1.6326,-1.8746,-2.0877,-2.1419,-2.2418,-2.3587,-2.378,-2.3707,-2.3599,-2.3792,-2.3792,-2.3744,-2.3744,-2.3599,-2.3502,-2.3695,-2.3599,-2.3502,-2.3695,-2.39,-2.3973,-2.378,-2.5358,-2.6887,-2.7741,-3.0024,-3.1872,-3.211,-3.2158,-3.1967,-3.1458,-3.1315,-3.1252,-3.1252,-3.1172,-3.1014,-3.0743,-3.0966,-3.0886,-3.0346,-3.0489,-3.0473,-3.0203,-2.987,-2.9695,-2.9695,-2.9441,-3.0266,-3.2053,-3.3459,-3.5477,-3.7839,-3.9654,-4.1103,0.0352,-0.0,-0.0,-0.0,-0.0,-0.0,-0.0,-0.0,-0.0,-0.0,-0.0,-0.0,-0.0,-0.0,-0.0,-0.0,-0.5164,-0.9555,-1.0352,-1.1752,-1.2703,-1.2509,-1.2526,-1.2509,-1.2439,-1.2324,-1.233,-1.252,-1.2357,-1.2904,-1.4073,-1.3951,-1.4355,-1.5099,-1.5153,-1.5147,-1.5065,-1.5079,-1.5038,-1.493,-1.4801,-1.4733,-1.4706,-1.4428,-1.4285,-1.4265,-1.4197,-1.4082,-1.3933,-1.3804,-1.3648,-1.3485,-1.3356,-1.3241,-1.3152,-1.3152,-1.3207,-1.3439,-1.4408,-1.6999,-1.9896,-2.0697,-2.2157,-2.3647,-2.3804,-2.3744,-2.3659,-2.3804,-2.384,-2.384,-2.384,-2.3731,-2.3659,-2.3804,-2.3816,-2.384,-2.3985,-2.413,-2.4353,-2.4839,-2.6653,-2.8213,-2.905,-3.0846,-3.2189,-3.238,-3.2412,-3.2269,-3.1887,-3.1713,-3.157,-3.1411,-3.1395,-3.1315,-3.1109,-3.1268,-3.122,-3.0807,-3.0982,-3.0998,-3.0791,-3.0315,-3.0124,-3.0283,-2.9631,-3.0144,-3.2022,-3.3606,-3.5501,-3.7569,-3.9811,-4.1165,0.0363,-0.0,-0.0,-0.0,-0.0,-0.0,-0.0,-0.0,-0.0,-0.0,-0.0,-0.0,-0.0,-0.0,-0.0,-0.0,-0.6209,-1.1634,-1.2746,-1.2841,-1.2651,-1.2678,-1.2645,-1.258,-1.258,-1.2471,-1.2449,-1.2574,-1.2471,-1.3018,-1.4079,-1.3951,-1.433,-1.5004,-1.5079,-1.5147,-1.5181,-1.5059,-1.5052,-1.5153,-1.4896,-1.4821,-1.4896,-1.4509,-1.4387,-1.4475,-1.4353,-1.4224,-1.4082,-1.3824,-1.3709,-1.3661,-1.337,-1.3329,-1.3431,-1.3431,-1.3417,-1.3403,-1.3424,-1.5546,-1.8617,-2.0241,-2.2223,-2.3888,-2.3852,-2.3888,-2.3937,-2.39,-2.3925,-2.3949,-2.3949,-2.3925,-2.39,-2.3937,-2.4094,-2.4251,-2.4287,-2.4287,-2.4613,-2.6099,-2.7567,-2.8853,-3.0379,-3.1678,-3.2507,-3.2539,-3.2555,-3.2539,-3.2491,-3.2189,-3.1872,-3.1554,-3.149,-3.1458,-3.1458,-3.1411,-3.1395,-3.1395,-3.1395,-3.1395,-3.1395,-3.0743,-3.0537,-3.0855,-2.9917,-3.0437,-3.2363,-3.3786,-3.5556,-3.7565,-3.9818,-4.1215,-0.0,-0.0,-0.0,-0.0,-0.0,-0.0,-0.0,-0.0,-0.0,-0.0,-0.0,-0.0,-0.0,-0.0,-0.0,-0.0,-0.1225,-0.4764,-1.1803,-1.2852,-1.2869,-1.2835,-1.2841,-1.2825,-1.2825,-1.2716,-1.2694,0.0,-1.2716,-1.2998,-1.4085,-1.3951,-1.4374,-1.5153,-1.493,-1.4936,-1.5181,-1.516,-1.5099,-1.5004,-1.4957,-1.4814,-1.459,-1.4509,-1.4428,-1.4333,-1.4312,-1.4285,-1.4258,-1.4204,-1.4109,-1.3973,-1.3797,-1.3668,-1.3587,-1.3587,-1.3512,-1.3417,-1.3546,-1.4825,-1.6656,-1.8454,-2.1362,-2.413,-2.3913,-2.4142,-2.4444,-2.4226,-2.4323,-2.4492,-2.4492,-2.4335,-2.4226,-2.4444,-2.4359,-2.4299,-2.4516,-2.4552,-2.4955,-2.6491,-2.7689,-2.9086,-3.0676,-3.2034,-3.2968,-3.3254,-3.3301,-3.319,-3.2904,-3.2539,-3.2301,-3.2237,-3.1999,-3.1824,-3.1824,-3.1554,-3.1395,-3.1395,-3.1395,-3.1395,-3.1395,-3.0982,-3.0791,-3.0855,-3.0394,-3.0351,-3.0759,-3.3886,-3.5539,-3.6122,-3.9412,-4.1226,-0.0,-0.0,-0.0,-0.0,-0.0,-0.0,-0.0,-0.0,-0.0,-0.0,-0.0,-0.0,-0.0,-0.0,-0.0,-0.0,-0.0,-0.2146,-0.8611,-1.1397,-1.2886,-1.2846,-1.289,-1.289,-1.289,-1.2835,-1.2825,-1.2884,-1.2835,-1.3172,-1.4293,-1.4603,-1.4734,-1.5079,-1.4936,-1.493,-1.5072,-1.5147,-1.5147,-1.5079,-1.5079,-1.5004,-1.4855,-1.4699,-1.455,-1.4407,-1.4333,-1.4251,-1.4183,-1.4183,-1.4136,-1.4055,-1.3899,-1.3797,-1.3736,-1.3736,-1.3695,-1.3627,-1.3627,-1.474,-1.6477,-1.8293,-2.0662,-2.3073,-2.3913,-2.4432,-2.4601,-2.4468,-2.4528,-2.4625,-2.4625,-2.4528,-2.4468,-2.4601,-2.4637,-2.4697,-2.4818,-2.4951,-2.5371,-2.6684,-2.8014,-2.9542,-3.1033,-3.2391,-3.3286,-3.346,-3.3492,-3.3429,-3.3254,-3.3079,-3.2761,-3.2221,-3.2158,-3.211,-3.1935,-3.176,-3.1665,-3.1665,-3.1665,-3.1586,-3.1395,-3.1236,-3.1141,-3.1141,-3.0601,-3.0937,-3.2193,-3.4515,-3.6088,-3.7169,-3.9737,-4.1292,-0.0,-0.0,-0.0,-0.0,-0.0,-0.0,-0.0,-0.0,-0.0,-0.0,-0.0,-0.0,-0.0,-0.0,-0.0,-0.0,-0.0,-0.1548,-0.5715,-1.0087,-1.2968,-1.2781,-1.2846,-1.2857,-1.2884,-1.2863,0.0,-1.2884,-1.3062,-1.3632,-1.4391,-1.5002,-1.5255,-1.5025,-1.4984,-1.4984,-1.5018,-1.5126,-1.5181,-1.5181,-1.5153,-1.512,-1.5079,-1.4814,-1.4611,-1.4462,-1.4346,-1.4231,-1.4122,-1.4122,-1.4122,-1.4102,-1.3953,-1.3892,-1.3892,-1.3892,-1.3851,-1.379,-1.3743,-1.4513,-1.5957,-1.8366,-2.0372,-2.2036,-2.4057,-2.4709,-2.4794,-2.4733,-2.4758,-2.4806,-2.4806,-2.4758,-2.4721,-2.4721,-2.4927,-2.5132,-2.5132,-2.5289,-2.5701,-2.6813,-2.8451,-2.9955,-3.1316,-3.2654,-3.3492,-3.3492,-3.3492,-3.3492,-3.3492,-3.3492,-3.3143,-3.2237,-3.238,-3.2428,-3.2158,-3.1999,-3.1951,-3.2015,-3.1967,-3.1792,-3.1522,-3.1506,-3.1474,-3.1395,-3.0839,-3.156,-3.3768,-3.5079,-3.6713,-3.8516,-4.0227,-4.1357,-0.0,-0.0,-0.0,-0.0,-0.0,-0.0,-0.0,-0.0,-0.0,-0.0,-0.0,-0.0,-0.0,-0.0,-0.0,-0.0,-0.0,-0.1475,-0.5581,-0.9949,-1.2852,-1.2656,-1.2721,-1.2765,-1.2879,-1.2786,-1.277,-1.2879,-1.3778,-1.4054,-1.4122,-1.48,-1.5194,-1.516,-1.5038,-1.5031,-1.516,-1.5174,-1.5181,-1.5181,-1.5052,-1.4916,-1.4774,-1.4611,-1.4455,-1.4319,-1.4306,-1.4292,-1.4278,-1.4278,-1.4278,-1.4265,-1.4109,-1.4048,-1.4048,-1.4048,-1.3878,-1.3688,-1.3939,-1.4022,-1.4506,-1.8354,-2.0726,-2.2244,-2.4116,-2.4975,-2.5313,-2.5071,-2.518,-2.5361,-2.5361,-2.5192,-2.5011,-2.5011,-2.5204,-2.5397,-2.5397,-2.5421,-2.5763,-2.7071,-2.8601,-2.9955,-3.1316,-3.2654,-3.3492,-3.3492,-3.3492,-3.3492,-3.3492,-3.3492,-3.3333,-3.2904,-3.2888,-3.2888,-3.2857,-3.2285,-3.2046,-3.2348,-3.2078,-3.1903,-3.1872,-3.1872,-3.1713,-3.1395,-3.1315,-3.2065,-3.3768,-3.5366,-3.6848,-3.8516,-4.0553,-4.1669,-0.0,-0.0,-0.0,-0.0,-0.0,-0.0,-0.0,-0.0,-0.0,-0.0,-0.0,-0.0,-0.0,-0.0,-0.0,-0.0,-0.0,-0.0618,-0.2166,-0.7784,-1.1917,-1.2648,-1.2367,-1.2303,0.0,0.0,-1.2819,-1.306,-1.3804,-1.4298,-1.4347,-1.5003,-1.5242,-1.5059,-1.5086,-1.5086,-1.5059,-1.514,-1.5181,-1.5181,-1.5126,-1.5025,-1.4875,-1.4719,-1.4523,-1.4299,-1.4299,-1.4245,-1.417,-1.4265,-1.4299,-1.4292,-1.4231,-1.4211,-1.4211,-1.4211,-1.4136,-1.4034,-1.4061,-1.3994,-1.4593,-1.8308,-2.0007,-2.1155,-2.4205,-2.5264,-2.5409,-2.5313,-2.5361,-2.5433,-2.5433,-2.5361,-2.5277,-2.5277,-2.5361,-2.5433,-2.5433,-2.5433,-2.5604,-2.6103,-2.7941,-2.9621,-3.0122,-3.2144,-3.3492,-3.3492,-3.3492,-3.3492,-3.3492,-3.3492,-3.3429,-3.3286,-3.327,-3.319,-3.2968,-3.2698,-3.2602,-3.273,-3.2618,-3.2348,-3.1935,-3.211,-3.1951,-3.1395,-3.1395,-3.2571,-3.5253,-3.5849,-3.7606,-4.0407,-4.1172,-4.2001,-0.0,-0.0,-0.0,-0.0,-0.0,-0.0,-0.0,-0.0,-0.0,-0.0,-0.0,-0.0,-0.0,-0.0,-0.0,-0.0,-0.0,-0.0,-0.0,-0.5093,-0.9738,-1.1643,0.0,-1.1797,-1.2275,-1.2643,-1.292,-1.3497,-1.4042,-1.4366,-1.4839,-1.5174,-1.5248,-1.5038,-1.5126,-1.5133,-1.5031,-1.5133,-1.516,-1.512,-1.5072,-1.4977,-1.4828,-1.4679,-1.4496,-1.4299,-1.4299,-1.4238,-1.415,-1.4258,-1.4299,-1.4299,-1.4299,-1.4299,-1.4299,-1.4299,-1.4272,-1.4224,-1.4163,-1.4451,-1.5451,-1.8596,-1.999,-2.1049,-2.4337,-2.5433,-2.5433,-2.5433,-2.5433,-2.5458,-2.553,-2.5494,-2.5433,-2.5433,-2.5433,-2.5433,-2.5433,-2.5433,-2.5604,-2.5933,-2.7941,-2.9621,-2.9955,-3.1978,-3.3492,-3.3492,-3.3492,-3.3492,-3.3492,-3.3492,-3.3492,-3.3492,-3.3492,-3.3381,-3.3127,-3.3015,-3.3,-3.3111,-3.3015,-3.2682,-3.2094,-3.2285,-3.2094,-3.1411,-3.1395,-3.279,-3.5581,-3.603,-3.7873,-4.102,-4.175,-4.2456,-0.0,-0.0,-0.0,-0.0,-0.0,-0.0,-0.0,-0.0,-0.0,-0.0,-0.0,-0.0,-0.0,-0.0,-0.0,-0.0,-0.0,-0.0,-0.0,-0.2688,-0.6159,0.0,0.0,-1.1297,-1.1781,-1.2628,-1.3497,-1.4079,-1.4341,0.0,-1.5411,-1.5269,-1.5181,-1.5181,-1.5181,-1.5181,-1.5181,-1.5181,-1.5113,-1.497,-1.4821,-1.4665,-1.4509,-1.4367,-1.4306,-1.4299,-1.4299,-1.4299,-1.4299,-1.4299,-1.4299,-1.4299,-1.4299,-1.4299,-1.4299,-1.4299,-1.4204,-1.4095,-1.4245,-1.541,-1.719,-1.9278,-2.1088,-2.2998,-2.4738,-2.5433,-2.5433,-2.5433,-2.5433,-2.5494,-2.5759,-2.5627,-2.5433,-2.5433,-2.5433,-2.5433,-2.5433,-2.5433,-2.5775,-2.7109,-2.8615,-2.9955,-3.1316,-3.2654,-3.3492,-3.3492,-3.3492,-3.3492,-3.3492,-3.3492,-3.3492,-3.3492,-3.3492,-3.3492,-3.3476,-3.3158,-3.3111,-3.346,-3.3143,-3.2793,-3.2412,-3.2412,-3.2094,-3.1411,-3.1395,-3.2309,-3.4316,-3.5995,-3.7859,-3.9805,-4.1936,-4.3559,-0.0,-0.0,-0.0,-0.0,-0.0,-0.0,-0.0,-0.0,-0.0,-0.0,-0.0,-0.0,-0.0,-0.0,-0.0,-0.0,-0.0,-0.1027,-0.3729,-0.5086,0.0,-1.0257,-1.1245,-1.208,0.0,0.0,-1.3424,-1.4184,-1.433,-1.4682,-1.5255,-1.5208,-1.5181,-1.5181,-1.5181,-1.5181,-1.5181,-1.5181,-1.5113,-1.497,-1.4923,-1.476,-1.4509,-1.4468,-1.4394,-1.4299,-1.4299,-1.4299,-1.4299,-1.4299,-1.4299,-1.4299,-1.4299,-1.4299,-1.4299,-1.4299,-1.4272,-1.4238,-1.4285,-1.5484,-1.7364,-1.9333,-2.1088,-2.2998,-2.4909,-2.5433,-2.5433,-2.5433,-2.5433,-2.5458,-2.5542,-2.5494,-2.5433,-2.5433,-2.5433,-2.5433,-2.5433,-2.5433,-2.5775,-2.7109,-2.8615,-2.9955,-3.1316,-3.2654,-3.3572,-3.381,-3.3635,-3.3572,-3.381,-3.3635,-3.3492,-3.3492,-3.3492,-3.3492,-3.3492,-3.3381,-3.3365,-3.3476,-3.3381,-3.3047,-3.2444,-3.265,-3.2459,-3.176,-3.1983,-3.2911,-3.4727,-3.639,-3.8728,-4.1956,-4.3186,-4.4029,-0.0,-0.0,-0.0,-0.0,-0.0,-0.0,-0.0,-0.0,-0.0,-0.0,-0.0,-0.0,-0.0,-0.0,-0.0,-0.0,-0.0,-0.1465,-0.5481,-0.6125,0.0,-1.043,0.0,0.0,0.0,-1.3028,-1.3493,-1.4422,-1.4617,-1.4805,-1.5181,-1.5181,-1.5181,-1.5181,-1.5181,-1.5181,-1.5181,-1.5181,-1.5079,-1.4882,-1.4882,-1.4753,-1.4509,-1.4455,-1.4414,-1.438,-1.4326,-1.4299,0.0,-1.4299,-1.4299,-1.4299,-1.4299,-1.4299,-1.4299,-1.4299,-1.4299,-1.4299,-1.4299,-1.6049,-1.8305,-1.9525,-2.1608,-2.388,-2.5199,-2.5578,-2.5602,-2.5699,-2.5663,-2.5602,-2.5711,-2.559,-2.5433,-2.5433,-2.5433,-2.5458,-2.5566,-2.5506,-2.597,-2.7931,-2.9129,-3.0308,-3.2176,-3.3281,-3.3953,-3.4159,-3.3905,-3.3762,-3.3985,-3.3699,-3.3492,-3.3492,-3.3492,-3.3492,-3.3492,-3.3492,-3.3492,-3.3492,-3.3492,-3.3222,-3.2634,-3.2841,-3.2682,-3.211,-3.2301,-3.3253,-3.5104,-3.7714,-4.0491,-4.347,-4.4215,-4.465,0.0,-0.0,-0.0,-0.0,-0.0,-0.0,-0.0,-0.0,0.0,-0.0,-0.0,-0.0,-0.0,-0.0,-0.0,-0.0,-0.0,-0.1473,-0.5437,-0.6358,0.0,0.0,-1.1281,0.0,-1.235,-1.3258,-1.387,-1.4422,-1.4993,-1.5181,-1.5181,-1.5181,-1.5181,-1.5181,-1.5181,-1.5181,-1.5181,-1.5181,-1.5031,-1.474,-1.474,-1.4652,-1.4489,-1.436,-1.4373,-1.4489,-1.4353,-1.4299,-1.4299,-1.4299,-1.4299,-1.4299,-1.4299,-1.4299,-1.4299,-1.4299,-1.4299,-1.4299,-1.4299,-1.6753,-1.9892,-2.024,-2.2675,-2.5506,-2.5735,-2.5796,-2.5856,-2.6122,-2.6001,-2.5856,-2.6097,-2.582,-2.547,-2.547,-2.547,-2.5542,-2.5796,-2.5651,-2.6215,-2.922,-2.9957,-3.0807,-3.3364,-3.4302,-3.4509,-3.4541,-3.4255,-3.4048,-3.4048,-3.3762,-3.354,-3.3524,-3.354,-3.354,-3.3524,-3.3492,-3.3492,-3.3492,-3.3492,-3.3333,-3.2968,-3.2984,-3.2825,-3.2459,-3.2475,-3.3591,-3.5708,-3.9738,-4.2544,-4.436,-4.4815,-4.5271,-0.0,0.0,-0.0,-0.0,-0.0,-0.0,0.0,-0.0,-0.0,-0.0,-0.0,-0.0,-0.0,-0.0,-0.0,-0.0,-0.0,-0.1321,-0.5227,-0.8655,0.0,-1.1281,-1.209,-1.2645,-1.2921,-1.3808,-1.4429,-1.4993,-1.5181,-1.5181,-1.5181,-1.5181,-1.5181,-1.5181,-1.5181,-1.5181,-1.5181,-1.5181,-1.5031,-1.474,-1.474,-1.4604,-1.4346,-1.4319,-1.4319,-1.4346,-1.4312,-1.4299,-1.4299,-1.4299,-1.4299,-1.4299,-1.4299,-1.4299,-1.4299,-1.4299,-1.4299,-1.4299,-1.4299,-1.6824,-2.0637,-2.3446,-2.5031,-2.5711,-2.5566,-2.553,-2.5578,-2.5844,-2.5735,-2.5542,-2.5602,-2.5675,-2.5735,-2.5735,-2.5735,-2.5808,-2.6073,-2.5928,-2.6327,-2.8152,-2.9576,-3.0781,-3.2519,-3.3769,-3.4604,-3.4874,-3.462,-3.4382,-3.4382,-3.4318,-3.4159,-3.3921,-3.4112,-3.4159,-3.3905,-3.3635,-3.3492,-3.3492,-3.3492,-3.3333,-3.2968,-3.3222,-3.319,-3.2841,-3.3095,-3.4992,-3.8399,-3.9382,-4.1558,-4.4836,-4.5312,-4.5581,-0.0,-0.0,-0.0,-0.0,-0.0,-0.0,-0.0,-0.0,-0.0,-0.0,-0.0,-0.0,-0.0,-0.0,-0.0,-0.0,-0.0,-0.0745,0.0,0.0,-1.175,-1.2217,-1.2506,-1.302,0.0,-1.4101,-1.461,-1.5181,-1.5181,-1.5181,-1.5181,-1.5181,-1.5181,-1.5181,-1.5181,-1.5181,-1.5181,-1.5181,-1.5031,-1.474,-1.474,-1.4618,-1.4394,-1.4333,-1.4333,-1.4394,-1.4326,-1.4299,-1.4299,-1.4299,-1.4299,-1.4299,-1.4299,-1.4299,-1.4299,-1.4299,-1.4299,-1.4299,-1.4299,-1.68,-2.0754,-2.4557,-2.5747,-2.5663,-2.5771,-2.5711,-2.5651,-2.5784,-2.5808,-2.5796,-2.5796,-2.5556,-2.5302,-2.5302,-2.4951,-2.4669,-2.492,-2.4783,-2.5196,-2.6668,-2.7762,-2.899,-3.1281,-3.2437,-3.3466,-3.4721,-3.4455,-3.4236,-3.4747,-3.4435,-3.4261,-3.4255,-3.4398,-3.4366,-3.4032,-3.3842,-3.3651,-3.3492,-3.3492,-3.3397,-3.3206,-3.3381,-3.3476,-3.3444,-3.4587,-3.6645,-3.9447,-4.0235,-4.2246,-4.5312,-4.5561,-4.5788,-0.0,-0.0,-0.0,-0.0,-0.0,-0.0,-0.0,-0.0,-0.0,-0.0,-0.0,-0.0,-0.0,-0.0,-0.0,-0.0,-0.0,0.0,-0.0811,-0.6177,-1.0709,-1.283,-1.2776,0.0,-1.43,-1.4384,-1.4805,-1.5181,-1.5181,-1.5174,-1.5153,-1.5167,-1.5174,-1.5153,-1.5174,-1.5174,-1.5153,-1.5153,-1.5011,-1.474,-1.4719,-1.4624,-1.4475,-1.4353,-1.4367,-1.4475,-1.4353,-1.4299,-1.4299,-1.4299,-1.4299,-1.4299,-1.4299,-1.4299,-1.4299,-1.4299,-1.4299,-1.4306,-1.5027,-1.748,-2.0995,-2.4696,-2.5699,-2.5627,-2.6037,-2.6037,-2.5892,-2.5892,-2.6049,-2.6218,-2.6218,-2.5536,-2.4852,-2.4852,-2.4152,-2.3504,-2.3741,-2.3612,-2.3862,-2.5148,-2.5733,-2.6783,-2.9934,-3.0887,-3.2146,-3.4447,-3.4058,-3.3889,-3.469,-3.4314,-3.4126,-3.4419,-3.4636,-3.4525,-3.4191,-3.4175,-3.4001,-3.3587,-3.3508,-3.3508,-3.3556,-3.3619,-3.3778,-3.408,-3.5842,-3.784,-3.9868,-4.1333,-4.3339,-4.5788,-4.5788,-4.5975,-0.0,-0.0,-0.0,-0.0,-0.0,-0.0,-0.0,-0.0,-0.0,-0.0,-0.0,-0.0,-0.0,-0.0,-0.0,0.0,0.0,-0.1271,0.0,0.0,-0.8273,-1.1993,0.0,-1.3666,-1.3919,-1.4587,-1.5181,-1.5181,-1.5181,-1.5126,-1.5011,-1.512,-1.5126,-1.5011,-1.512,-1.5126,-1.5004,-1.5004,-1.4916,-1.474,-1.4611,-1.4468,-1.4333,-1.4312,-1.4312,-1.4333,-1.4306,-1.4299,-1.4299,-1.4299,-1.4299,-1.4299,-1.4299,-1.4299,-1.4299,-1.4299,-1.4299,-1.4843,-1.8143,-2.0832,-2.2945,-2.5114,-2.5953,-2.6073,-2.5928,-2.6013,-2.6158,-2.6158,-2.6182,-2.6218,-2.6218,-2.5677,-2.5137,-2.5137,-2.4408,-2.3752,-2.3978,-2.3849,-2.3752,-2.4161,-2.5286,-2.6641,-2.8561,-3.0165,-3.1883,-3.3603,-3.3945,-3.399,-3.3858,-3.439,-3.4595,-3.4299,-3.5051,-3.5272,-3.4906,-3.4874,-3.4604,-3.3969,-3.3651,-3.3619,-3.3921,-3.4207,-3.4382,-3.443,-3.4815,-3.6627,-4.0272,-4.0602,-4.2635,-4.6244,-4.6244,-4.6285,-0.0,-0.0,-0.0,-0.0,-0.0,-0.0,-0.0,-0.0,-0.0,-0.0,-0.0,-0.0,-0.0,0.0,-0.0,-0.0,0.0,-0.2129,-0.8514,-0.9325,-1.0349,0.0,0.0,-1.3732,-1.4501,-1.4872,-1.5181,-1.5181,-1.5181,-1.512,-1.4977,-1.5031,-1.5038,-1.497,-1.495,-1.495,-1.497,-1.4808,-1.4685,-1.4618,-1.4543,-1.4434,-1.4299,-1.4299,-1.4299,-1.4299,-1.4299,-1.4299,-1.4299,-1.4299,-1.4299,-1.4299,-1.4299,-1.4299,-1.4299,-1.4299,-1.5049,-1.6348,-1.9138,-2.1309,-2.3348,-2.5125,-2.5904,-2.6013,-2.6037,-2.6122,-2.6078,-2.5689,-2.5724,-2.5724,-2.5724,-2.4654,-2.3742,-2.3742,-2.3023,-2.2322,-2.2422,-2.2372,-2.2322,-2.2422,-2.2984,-2.4398,-2.7169,-2.8501,-2.9972,-3.307,-3.3556,-3.3586,-3.396,-3.4082,-3.4288,-3.4641,-3.4956,-3.5083,-3.5065,-3.5033,-3.4811,-3.4318,-3.3953,-3.3921,-3.4271,-3.4604,-3.4795,-3.4795,-3.4986,-3.6995,-4.0675,-4.0455,-4.2384,-4.6347,-4.6099,-4.6119,-0.0,-0.0,-0.0,-0.0,-0.0,-0.0,-0.0,-0.0,-0.0,-0.0,-0.0,-0.0,-0.0,-0.0,0.0,-0.0,-0.0,-0.2527,-0.9711,-1.1479,-1.2517,-1.3926,-1.3569,-1.3663,-1.5147,-1.5181,-1.5181,-1.5181,-1.5153,-1.5072,-1.4923,-1.4916,-1.4903,-1.4862,-1.478,-1.478,-1.4862,-1.4631,-1.4509,-1.4509,-1.4475,-1.4407,-1.4299,-1.4299,-1.4299,-1.4299,-1.4299,-1.4299,-1.4299,-1.4299,-1.4299,-1.4299,-1.4299,-1.4299,-1.4299,-1.4299,-1.5948,-1.8151,-1.9407,-2.1577,-2.3872,-2.5228,-2.582,-2.5953,-2.5806,-2.5913,-2.5831,-2.5206,-2.4733,-2.4733,-2.4913,-2.3774,-2.2616,-2.2616,-2.1898,-2.1168,-2.1168,-2.1168,-2.1168,-2.1168,-2.1168,-2.2248,-2.5627,-2.6568,-2.8205,-3.1926,-3.2705,-3.3117,-3.3822,-3.3822,-3.3998,-3.47,-3.4875,-3.5114,-3.5192,-3.5081,-3.4954,-3.4763,-3.4445,-3.4366,-3.462,-3.497,-3.516,-3.516,-3.543,-3.743,-4.095,-4.0639,-4.248,-4.6347,-4.5995,-4.6016,-0.0,-0.0,-0.0,-0.0,-0.0,-0.0,-0.0,-0.0,-0.0,-0.0,-0.0,-0.0,-0.0,-0.0,-0.0,-0.0,-0.0,-0.1558,-0.5943,0.0,-1.2367,-1.3584,-1.3529,-1.3883,-1.5167,-1.5181,-1.5181,-1.5181,-1.5059,-1.4916,-1.4767,-1.4753,-1.4692,-1.455,-1.4672,-1.4679,-1.4543,-1.4523,-1.4509,-1.4509,-1.438,-1.4312,-1.4299,-1.4299,-1.4299,-1.4299,-1.4299,-1.4299,-1.4299,-1.4299,-1.4299,-1.4299,-1.4299,-1.4299,-1.4299,-1.4299,-1.6577,-1.9718,-1.9873,-2.2457,-2.561,-2.5542,-2.5796,-2.6018,-2.5148,-2.5144,-2.5037,-2.4365,-2.3515,-2.2954,-2.3881,-2.3342,-2.2616,-2.2616,-2.1898,-2.1168,-2.1168,-2.1168,-2.1168,-2.1168,-2.1168,-2.183,-2.3593,-2.5546,-2.7603,-2.9486,-3.1487,-3.2763,-3.294,-3.3646,-3.4174,-3.4174,-3.505,-3.5573,-3.5542,-3.5224,-3.516,-3.5478,-3.516,-3.497,-3.4986,-3.5351,-3.5542,-3.5542,-3.5558,-3.743,-4.095,-4.0932,-4.2767,-4.6347,-4.6306,-4.6306,-0.0,-0.0,-0.0,-0.0,-0.0,-0.0,-0.0,-0.0,-0.0,-0.0,-0.0,-0.0,-0.0,0.0,-0.0,-0.0,-0.0,0.0,0.0,0.0,-1.2284,-1.3517,-1.3511,-1.3902,-1.5167,-1.5181,-1.5147,-1.5059,-1.5004,-1.4862,-1.4611,-1.4597,-1.457,-1.4516,-1.4482,-1.4482,-1.4509,-1.4421,-1.438,-1.438,-1.4326,-1.4299,-1.4299,-1.4299,-1.4299,-1.4299,-1.4299,-1.4299,-1.4299,-1.4299,-1.4299,-1.4299,-1.4299,-1.4299,-1.4476,-1.5697,-1.7856,-2.0219,-2.1312,-2.3509,-2.5634,-2.502,-2.5056,-2.5194,-2.4274,-2.4206,-2.4146,-2.3289,-2.2698,-2.2444,-2.2943,-2.2442,-2.1714,-2.1714,-2.1538,-2.1168,-2.1168,-2.1168,-2.1168,-2.1168,-2.1168,-2.1869,-2.3581,-2.5638,-2.7653,-2.9521,-3.1423,-3.2778,-3.2778,-3.3117,-3.347,-3.4174,-3.505,-3.5573,-3.5573,-3.5446,-3.543,-3.5573,-3.524,-3.5129,-3.5367,-3.551,-3.5573,-3.5573,-3.5573,-3.743,-4.095,-4.095,-4.2806,-4.6347,-4.6347,-4.6347,-0.0,-0.0,-0.0,-0.0,-0.0,-0.0,-0.0,-0.0,-0.0,-0.0,-0.0,-0.0,-0.0,-0.0,0.0,0.0,-0.0,0.0,0.0,0.0,0.0,-1.3389,-1.3376,-1.3776,-1.4845,-1.5045,-1.5004,-1.4903,-1.4855,-1.4733,-1.4523,-1.4468,-1.4441,-1.4441,-1.4353,-1.4346,-1.4441,-1.4346,-1.4299,-1.4299,-1.4251,-1.4251,-1.4299,-1.4299,-1.4299,-1.4299,-1.4299,-1.4299,-1.4299,-1.4299,-1.4299,-1.4299,-1.4299,-1.4299,-1.4476,-1.6393,-1.8392,-2.0413,-2.2005,-2.3855,-2.5299,-2.4603,-2.4481,-2.4252,-2.3507,-2.3241,-2.3154,-2.2392,-2.1965,-2.1886,-2.2034,-2.1714,-2.1168,-2.1168,-2.1168,-2.1168,-2.1168,-2.1168,-2.1168,-2.1168,-2.1168,-2.1529,-2.2974,-2.4796,-2.6785,-2.8771,-3.0588,-3.204,-3.2763,-3.294,-3.3293,-3.4349,-3.505,-3.5573,-3.5573,-3.5573,-3.5573,-3.5573,-3.5335,-3.5319,-3.5573,-3.5573,-3.5573,-3.5573,-3.5573,-3.743,-4.095,-4.095,-4.2806,-4.6347,-4.6347,-4.6347,-0.0,-0.0,-0.0,-0.0,-0.0,-0.0,-0.0,-0.0,-0.0,-0.0,-0.0,-0.0,-0.0,-0.0,0.0,-0.0,-0.0,0.0,0.0,0.0,0.0,-1.3059,-1.3162,-1.3494,-1.4544,-1.474,-1.474,-1.474,-1.4597,-1.4509,-1.4509,-1.4373,-1.4299,-1.4299,-1.4299,-1.4299,-1.4299,-1.4299,-1.4299,-1.4292,-1.4143,-1.415,-1.4299,-1.4299,-1.4299,-1.4299,-1.4299,-1.4299,-1.4299,-1.4299,-1.4299,-1.4299,-1.4299,-1.4299,-1.4476,-1.6393,-1.8305,-2.0221,-2.1953,-2.3336,-2.4429,-2.4429,-2.4064,-2.3561,-2.2474,-2.2444,-2.2432,-2.1538,-2.1168,-2.1168,-2.1168,-2.1168,-2.1168,-2.1168,-2.1168,-2.1168,-2.1168,-2.1168,-2.1168,-2.1168,-2.1168,-2.1168,-2.1168,-2.28,-2.4796,-2.6785,-2.8591,-3.0575,-3.2586,-3.3293,-3.3822,-3.4875,-3.5399,-3.5573,-3.5573,-3.5573,-3.5573,-3.5573,-3.5573,-3.5573,-3.5573,-3.5573,-3.5573,-3.5573,-3.5573,-3.743,-4.095,-4.095,-4.2806,-4.6347,-4.6347,-4.6347,-0.0,-0.0,-0.0,-0.0,-0.0,-0.0,-0.0,-0.0,-0.0,-0.0,-0.0,-0.0,-0.0,-0.0,0.0,-0.0,-0.0,-0.1246,0.0,0.0,0.0,0.0,-1.2566,-1.2951,-1.4179,-1.4192,-1.4329,-1.459,-1.4441,-1.4319,-1.4204,-1.4163,-1.4089,-1.398,-1.4082,-1.4089,-1.398,-1.3973,-1.3973,-1.3973,-1.3933,-1.3987,-1.4143,-1.4143,-1.4143,-1.4143,-1.4251,-1.4299,-1.4299,-1.4299,-1.4299,-1.4299,-1.4299,-1.4299,-1.4653,-1.7096,-1.8488,-1.9361,-2.1801,-2.2891,-2.3184,-2.2818,-2.2485,-2.2301,-2.1713,-2.1481,-2.1529,-2.1353,-2.1168,-2.1168,-2.1168,-2.1168,-2.1168,-2.1168,-2.1168,-2.1168,-2.1168,-2.1168,-2.1168,-2.1168,-2.1168,-2.1168,-2.1168,-2.28,-2.4796,-2.6785,-2.8591,-3.0575,-3.2586,-3.347,-3.4174,-3.4349,-3.505,-3.5573,-3.5573,-3.5573,-3.5573,-3.5573,-3.5573,-3.5573,-3.5573,-3.5573,-3.5573,-3.5573,-3.5573,-3.743,-4.095,-4.095,-4.2806,-4.6347,-4.6347,-4.6347,-0.0,-0.0,-0.0,-0.0,-0.0,-0.0,-0.0,-0.0,-0.0,-0.0,-0.0,-0.0,-0.0,-0.0,0.0,-0.0,-0.0,-0.0885,0.0,0.0,0.0,0.0,-1.2177,-1.2574,-1.3305,-1.3592,-1.3938,-1.3905,-1.4048,-1.4143,-1.3987,-1.398,-1.3939,-1.3844,-1.3933,-1.3933,-1.3844,-1.3838,-1.3838,-1.3838,-1.3783,-1.3804,-1.3899,-1.4021,-1.4075,-1.4075,-1.417,-1.4177,-1.4122,-1.4183,-1.4211,-1.4217,-1.4095,-1.4299,-1.5175,-1.7447,-1.8663,-1.937,-2.1811,-2.2567,-2.2183,-2.2026,-2.1671,-2.1439,-2.1248,-2.1168,-2.1168,-2.1168,-2.1168,-2.1168,-2.1168,-2.1168,-2.1168,-2.1168,-2.1168,-2.1168,-2.1168,-2.1168,-2.1168,-2.1168,-2.1168,-2.1168,-2.1168,-2.2258,-2.3892,-2.6604,-2.9322,-3.1493,-3.2586,-3.3646,-3.4174,-3.4174,-3.505,-3.5573,-3.5573,-3.5573,-3.5573,-3.5573,-3.5573,-3.5573,-3.5573,-3.5573,-3.5573,-3.5573,-3.5573,-3.743,-4.095,-4.095,-4.2806,-4.6347,-4.6347,-4.6347,-0.0,-0.0,-0.0,-0.0,-0.0,-0.0,-0.0,-0.0,-0.0,-0.0,-0.0,-0.0,-0.0,-0.0,-0.0,-0.0,0.0,0.0,-0.0528,0.0,0.0,0.0,-1.1541,-1.2079,-1.2478,-1.3054,-1.3455,-1.3172,-1.3627,-1.398,-1.366,-1.3817,-1.3817,-1.3797,-1.3817,-1.3817,-1.3797,-1.3797,-1.3797,-1.3797,-1.3668,-1.3607,-1.362,-1.3899,-1.4041,-1.4048,-1.4048,-1.3973,-1.3851,-1.3994,-1.4061,-1.4082,-1.3676,-1.4448,-1.5873,-1.7247,-1.8471,-2.0076,-2.1811,-2.1967,-2.1489,-2.171,-2.14,-2.0885,-2.1102,-2.1168,-2.1168,-2.1168,-2.1168,-2.1168,-2.1168,-2.1168,-2.1168,-2.1168,-2.1168,-2.1168,-2.1168,-2.1168,-2.1168,-2.1168,-2.1168,-2.1168,-2.1168,-2.1168,-2.2442,-2.6423,-3.0231,-3.2778,-3.2778,-3.3646,-3.4174,-3.4174,-3.505,-3.5573,-3.5573,-3.5573,-3.5573,-3.5573,-3.5573,-3.5573,-3.5573,-3.5605,-3.5605,-3.5573,-3.5605,-3.7291,-4.0782,-4.0782,-4.264,-4.6023,-4.6023,-4.6185,-0.0,-0.0,-0.0,-0.0,-0.0,-0.0,-0.0,-0.0,-0.0,-0.0,-0.0,-0.0,-0.0,-0.0,-0.0,0.0,0.0,0.0,0.0,0.0,0.0,0.0,-1.1296,-1.1474,-1.1962,-1.2271,-1.2475,-1.265,-1.3013,-1.3311,-1.3173,-1.3506,-1.362,-1.3498,-1.3614,-1.3614,-1.3498,-1.3498,-1.3498,-1.3498,-1.3464,-1.3451,-1.3458,-1.3641,-1.3783,-1.3892,-1.3892,-1.3871,-1.3844,-1.3535,-1.3441,-1.3539,-1.2935,-1.3733,-1.533,-1.6245,-1.7496,-1.9039,-2.0085,-2.0569,-2.0606,-2.0827,-2.0858,-2.0885,-2.1102,-2.1168,-2.1168,-2.1168,-2.1168,-2.1168,-2.1168,-2.1168,-2.1168,-2.1168,-2.1168,-2.1168,-2.1168,-2.1168,-2.1168,-2.1168,-2.1168,-2.1168,-2.1168,-2.1168,-2.2442,-2.6423,-3.0231,-3.2778,-3.2778,-3.3646,-3.4174,-3.4174,-3.505,-3.5573,-3.5573,-3.5573,-3.5573,-3.5573,-3.5573,-3.5573,-3.5573,-3.5844,-3.5859,-3.5589,-3.5844,-3.6878,-3.8955,-3.8955,-4.08,-4.433,-4.433,-4.5005,-0.0,-0.0,-0.0,-0.0,-0.0,-0.0,-0.0,-0.0,-0.0,-0.0,-0.0,-0.0,-0.0,-0.0,0.0,0.0,0.0,0.0,0.0,0.0,0.0,-1.0598,-1.0987,-1.1163,-1.1272,-1.1601,-1.198,-1.195,-1.2507,-1.2658,-1.252,-1.2849,-1.2977,-1.3072,-1.3072,-1.3238,-1.3403,-1.3329,-1.3164,-1.3065,-1.3065,-1.2899,-1.274,-1.3224,-1.333,-1.3402,-1.3226,-1.3017,-1.2959,-1.286,-1.2759,-1.2834,-1.2372,-1.3687,-1.5578,-1.5912,-1.7372,-1.9214,-1.9746,-2.0053,-2.0251,-2.0469,-2.0677,-2.0885,-2.1102,-2.1168,-2.1168,-2.1168,-2.1168,-2.1168,-2.1168,-2.1168,-2.1168,-2.1168,-2.1168,-2.1168,-2.1168,-2.1168,-2.1168,-2.1168,-2.1168,-2.1168,-2.1168,-2.1889,-2.3525,-2.6604,-2.9502,-3.1671,-3.2763,-3.3796,-3.4357,-3.4189,-3.5206,-3.5764,-3.5589,-3.5573,-3.5573,-3.5573,-3.5732,-3.5828,-3.5828,-3.632,-3.6273,-3.5589,-3.6082,-3.7029,-3.8546,-3.8717,-4.0185,-4.2913,-4.3774,-4.4798,-0.0,-0.0,-0.0,-0.0,-0.0,-0.0,-0.0,-0.0,-0.0,-0.0,-0.0,-0.0,-0.0,0.0,0.0,0.0,0.0,0.0,0.0,0.0,0.0,-1.077,-1.084,-1.0846,-1.0748,-1.1278,-1.1487,-1.1254,-1.1861,-1.2035,-1.1878,-1.2032,-1.2191,-1.2497,-1.2383,-1.2716,-1.3197,-1.305,-1.288,-1.2694,-1.2529,-1.2376,-1.2075,-1.2527,-1.2745,-1.2745,-1.2408,-1.2179,-1.2081,-1.2191,-1.2083,-1.2125,-1.217,-1.3834,-1.6152,-1.6117,-1.7597,-1.9921,-1.9921,-2.0081,-2.0308,-2.0488,-2.0705,-2.0932,-2.1111,-2.1168,-2.1168,-2.1168,-2.1168,-2.1168,-2.1168,-2.1168,-2.1168,-2.1168,-2.1168,-2.1168,-2.1168,-2.1168,-2.1168,-2.1168,-2.1168,-2.1168,-2.1168,-2.28,-2.4796,-2.6785,-2.8591,-3.0575,-3.2586,-3.3709,-3.4494,-3.4204,-3.514,-3.5891,-3.5605,-3.5637,-3.5669,-3.5669,-3.6002,-3.6193,-3.6193,-3.6797,-3.6686,-3.578,-3.6368,-3.7209,-3.8399,-3.872,-3.9737,-4.1641,-4.3557,-4.4601,-0.0,-0.0,-0.0,-0.0,-0.0,-0.0,0.0,0.0,-0.0,0.0,-0.0,0.0,0.0,0.0,0.0,0.0,0.0,0.0,0.0,0.0,0.0,-1.077,-1.0764,-1.0753,-1.0737,-1.0862,-1.0884,-1.0748,-1.1356,-1.1658,-1.1247,-1.1728,-1.1843,-1.1894,-1.1869,-1.2087,-1.271,-1.2249,-1.2087,-1.2546,-1.2219,-1.2117,-1.2069,-1.1754,-1.1766,-1.2266,-1.2099,-1.2087,-1.2069,-1.1754,-1.1663,-1.1769,-1.2646,-1.3995,-1.5782,-1.6852,-1.8356,-1.9921,-1.9921,-2.0176,-2.0507,-2.0535,-2.0809,-2.113,-2.1159,-2.1168,-2.1168,-2.1168,-2.1168,-2.1168,-2.1168,-2.1168,-2.1168,-2.1168,-2.1168,-2.1168,-2.1168,-2.1168,-2.1168,-2.1168,-2.1168,-2.1168,-2.1168,-2.28,-2.4796,-2.6785,-2.8591,-3.0575,-3.2586,-3.3338,-3.3867,-3.4174,-3.4746,-3.5287,-3.5573,-3.5859,-3.6034,-3.6034,-3.6352,-3.6527,-3.6527,-3.6908,-3.6908,-3.6463,-3.686,-3.7057,-3.6868,-3.6916,-3.7825,-3.9737,-4.1641,-4.3385,-0.0,-0.0,-0.0,0.0,-0.0,-0.0,-0.0,-0.0,-0.0,-0.0,0.0,0.0,0.0,0.0,0.0,0.0,0.0,0.0,0.0,0.0,0.0,-1.043,-1.0748,-1.0737,-1.0737,-1.0786,-1.0797,-1.0742,-1.0893,-1.0997,-1.0891,-1.0981,-1.1086,-1.1356,-1.1278,-1.1462,-1.2081,-1.1783,-1.1623,-1.1757,-1.1341,-1.1242,-1.1299,-1.1037,-1.1237,-1.1736,-1.1403,-1.1403,-1.1237,-1.107,-1.1104,-1.1165,-1.1646,-1.3298,-1.5489,-1.6206,-1.7904,-1.9921,-1.9921,-2.011,-2.0365,-2.0365,-2.0648,-2.0989,-2.0989,-2.1074,-2.1168,-2.1168,-2.1168,-2.1168,-2.1168,-2.1168,-2.1168,-2.1168,-2.1168,-2.1168,-2.1168,-2.1168,-2.1168,-2.1168,-2.1168,-2.1168,-2.1168,-2.1898,-2.3567,-2.6807,-2.7913,-2.9611,-3.2916,-3.4023,-3.4499,-3.4479,-3.5327,-3.5905,-3.5891,-3.6193,-3.6384,-3.6384,-3.6702,-3.6892,-3.6892,-3.7242,-3.7353,-3.721,-3.7353,-3.7258,-3.6892,-3.7099,-3.7558,-3.8433,-4.1444,-4.3384,-0.0,0.0,-0.0,-0.0,-0.0,-0.0,0.0,0.0,-0.0,0.0,0.0,0.0,0.0,0.0,0.0,0.0,0.0,0.0,0.0,0.0,0.0,-1.009,-1.0699,-1.0661,-1.0688,-1.0688,-1.0688,-1.0688,-1.0606,-1.0541,-1.0514,-1.0405,-1.0484,-1.077,-1.0679,-1.0849,-1.1462,-1.136,-1.1201,-1.0821,-1.0589,-1.0498,-1.0558,-1.065,-1.087,-1.1237,-1.0904,-1.0737,-1.0737,-1.0737,-1.0737,-1.0759,-1.1646,-1.3455,-1.5391,-1.6388,-1.8113,-1.9921,-1.9921,-2.0053,-2.0223,-2.0223,-2.0497,-2.0837,-2.0837,-2.0998,-2.1168,-2.1168,-2.1168,-2.1168,-2.1168,-2.1168,-2.1168,-2.1168,-2.1168,-2.1168,-2.1168,-2.1168,-2.1168,-2.1168,-2.1168,-2.1187,-2.1234,-2.1206,-2.2522,-2.6041,-2.6938,-2.8648,-3.2449,-3.3886,-3.4727,-3.4815,-3.5654,-3.6221,-3.6241,-3.6543,-3.6733,-3.6733,-3.7067,-3.7258,-3.7258,-3.7528,-3.7671,-3.7671,-3.7671,-3.7528,-3.7274,-3.7544,-3.7671,-3.7855,-4.1075,-4.2854,-0.0,-0.0,0.0,-0.0,-0.0,-0.0,0.0,0.0,0.0,0.0,0.0,0.0,0.0,0.0,0.0,0.0,0.0,0.0,0.0,0.0,0.0,-0.9928,-1.0568,-1.0622,-1.0558,-1.0563,-1.0563,-1.0563,-1.0558,-1.0509,-1.04,-1.028,-1.0161,-1.0041,-1.0036,-1.0403,-1.1001,-1.0996,-1.0679,-1.021,-1.0221,-1.034,-1.0558,-1.0563,-1.0628,-1.0737,-1.0737,-1.0737,-1.0737,-1.0737,-1.0737,-1.0915,-1.372,-1.5056,-1.5546,-1.8317,-1.9568,-1.9921,-1.9921,-2.0053,-2.0223,-2.0223,-2.0497,-2.0837,-2.0837,-2.0998,-2.1168,-2.1168,-2.1168,-2.1168,-2.1168,-2.1168,-2.1168,-2.1168,-2.1168,-2.1168,-2.1168,-2.1168,-2.1168,-2.1168,-2.1168,-2.1234,-2.1423,-2.13,-2.1967,-2.4212,-2.588,-2.7814,-3.0274,-3.1897,-3.3591,-3.5089,-3.4891,-3.5351,-3.6543,-3.6892,-3.7099,-3.7099,-3.7448,-3.7639,-3.7639,-3.7655,-3.7671,-3.7671,-3.7671,-3.7655,-3.7639,-3.7655,-3.7671,-3.7671,-3.9805,-4.1599,-0.0,-0.0,0.0,-0.0,-0.0,-0.0,-0.0,-0.0,0.0,0.0,0.0,0.0,0.0,0.0,0.0,0.0,0.0,0.0,0.0,0.0,0.0,-0.6407,-0.914,-1.0416,-1.0443,-1.0449,-1.0449,-1.0449,-1.0373,-1.0313,-1.0269,-1.015,-1.0063,-1.0019,-1.0019,-1.0041,-1.0241,-1.0241,-1.0241,-1.0085,-1.0166,-1.0248,-1.0335,-1.0487,-1.0579,-1.0623,-1.0704,-1.0737,-1.0737,-1.0737,-1.0737,-1.0915,-1.2881,-1.4372,-1.5546,-1.7442,-1.9031,-1.9921,-1.9921,-1.9968,-2.0044,-2.0176,-2.0412,-2.0677,-2.08,-2.0998,-2.1168,-2.1168,-2.1168,-2.1168,-2.1168,-2.1168,-2.1168,-2.1168,-2.1168,-2.1168,-2.1168,-2.1168,-2.1168,-2.1168,-2.1168,-2.1234,-2.1433,-2.1414,-2.2211,-2.4629,-2.5362,-2.7075,-3.0729,-3.1813,-3.3014,-3.5304,-3.5758,-3.609,-3.6924,-3.7274,-3.748,-3.748,-3.7591,-3.7671,-3.7671,-3.7671,-3.7671,-3.7671,-3.7671,-3.7671,-3.7671,-3.7671,-3.7671,-3.7671,-3.9874,-4.1968,-0.0,-0.0,-0.0,-0.0,-0.0,-0.0,-0.0,0.0,0.0,0.0,0.0,0.0,0.0,0.0,0.0,0.0,0.0,0.0,0.0,0.0,0.0,-0.4538,-0.8224,-1.0302,-1.0324,-1.0324,-1.0324,-1.0324,-1.0248,0.0,-1.0204,-1.0085,-1.0019,-1.0019,-1.0019,-1.0019,-1.0019,-1.0019,-1.0019,-1.0019,-1.0101,-1.0166,-1.021,-1.0367,-1.0481,-1.0558,-1.0639,-1.0699,-1.0737,-1.0737,-1.0737,-1.0909,-1.2823,-1.4323,-1.5539,-1.7374,-1.8804,-1.9921,-1.9921,-1.9921,-1.9949,-2.0157,-2.0365,-2.0582,-2.0781,-2.0998,-2.1168,-2.1168,-2.1168,-2.1168,-2.1168,-2.1168,-2.1168,-2.1168,-2.1168,-2.1168,-2.1168,-2.1168,-2.1168,-2.1168,-2.1168,-2.1253,-2.1527,-2.1518,-2.2169,-2.3919,-2.4684,-2.642,-2.9912,-3.1022,-3.2603,-3.5638,-3.6113,-3.6448,-3.7305,-3.7639,-3.7798,-3.7687,-3.7782,-3.7798,-3.7671,-3.7671,-3.7671,-3.7671,-3.7671,-3.7671,-3.7671,-3.7671,-3.7734,-3.7861,-3.9353,-4.1516,0.0,0.0,0.0,-0.0,-0.0,0.0,-0.0,0.0,0.0,0.0,0.0,0.0,0.0,0.0,0.0,0.0,0.0,0.0,0.0,0.0,0.0,-0.4529,-0.7961,-1.0106,-1.0188,-1.0199,-1.0199,-1.0199,-1.0193,-1.0193,-1.0199,-1.0085,-1.0014,-1.0014,-1.0014,-1.0014,-1.0014,-1.0019,-1.0019,-1.0019,-1.0019,-1.0085,-1.0199,-1.0204,-1.0329,-1.0547,-1.0547,-1.0617,-1.0732,-1.0737,-1.0737,-1.0904,-1.3707,-1.4892,-1.5694,-1.8264,-1.9562,-1.9921,-1.9921,-1.9921,-1.9959,-2.0166,-2.0374,-2.0582,-2.079,-2.0998,-2.1168,-2.1168,-2.1168,-2.1168,-2.1168,-2.1168,-2.1168,-2.1168,-2.1168,-2.1168,-2.1168,-2.1168,-2.1168,-2.1168,-2.1178,-2.131,-2.1726,-2.1622,-2.1622,-2.2038,-2.3626,-2.5428,-2.7936,-2.9627,-3.2108,-3.5725,-3.5868,-3.619,-3.7655,-3.8004,-3.8068,-3.7718,-3.802,-3.8052,-3.7702,-3.7671,-3.7671,-3.7671,-3.7671,-3.7671,-3.7671,-3.7687,-3.7861,-3.8195,-3.8211,-4.0596,-0.0,0.0,0.0,0.0,0.0,0.0,-0.0,-0.0,-0.0,0.0,0.0,0.0,0.0,0.0,0.0,0.0,0.0,0.0,0.0,0.0,0.0,-0.1265,-0.6459,-1.0079,-1.009,-1.0079,-1.0068,0.0,-0.9987,-0.9976,-1.0068,-0.9954,-0.9889,-0.9889,-0.9889,-0.9889,-0.9889,-0.9976,-1.0019,-1.0019,-1.0019,-1.0041,-1.0074,-1.0161,-1.0237,-1.0307,-1.0394,-1.0498,-1.0612,-1.0699,-1.0737,-1.0904,-1.3707,-1.4892,-1.5694,-1.8264,-1.9562,-1.9921,-1.9921,-1.9921,-1.9977,-2.0337,-2.0488,-2.0611,-2.097,-2.1121,-2.1168,-2.1168,-2.1168,-2.1168,-2.1168,-2.1168,-2.1168,-2.1168,-2.1168,-2.1168,-2.1168,-2.1168,-2.1168,-2.1168,-2.1291,-2.1471,-2.1745,-2.1858,-2.2009,-2.2264,-2.2644,-2.4349,-2.7854,-2.876,-3.0857,-3.5197,-3.5896,-3.6545,-3.7445,-3.7945,-3.8259,-3.8402,-3.8274,-3.8163,-3.8068,-3.7814,-3.7671,-3.7671,-3.7671,-3.7671,-3.7671,-3.7925,-3.81,-3.8211,-4.0182,-4.2654,-0.0,-0.0,-0.0,-0.0,0.0,0.0,-0.0,-0.0,-0.0,0.0,0.0,0.0,0.0,0.0,0.0,0.0,0.0,0.0,0.0,0.0,0.0,-0.0,-0.4701,-0.848,-0.9891,-1.003,-1.0019,-1.0019,-0.9905,-0.9851,-0.9873,-0.9807,-0.9791,-0.9835,-0.9791,-0.9791,-0.9835,-0.9905,-0.9943,-0.9943,-0.9998,-1.0019,-1.0025,-1.0095,-1.0155,-1.021,-1.028,-1.0405,-1.0563,-1.0634,-1.0688,-1.0904,-1.3045,-1.4354,-1.544,-1.773,-1.8992,-1.9798,-1.9892,-1.9921,-1.9987,-2.0412,-2.0544,-2.062,-2.1045,-2.1168,-2.1168,-2.1168,-2.1168,-2.1168,-2.1168,-2.1168,-2.1168,-2.1168,-2.1168,-2.1168,-2.1168,-2.1234,-2.1291,-2.1291,-2.1385,-2.1565,-2.1867,-2.2009,-2.216,-2.2359,-2.2387,-2.3551,-2.6829,-2.7984,-2.9886,-3.3685,-3.5212,-3.631,-3.7398,-3.7758,-3.8308,-3.8688,-3.8513,-3.8338,-3.8211,-3.7861,-3.775,-3.7893,-3.775,-3.7814,-3.81,-3.8163,-3.8354,-3.864,-4.0296,-4.2933,-0.0,-0.0,-0.0,-0.0,-0.0,0.0,-0.0,-0.0,-0.0,-0.0,0.0,0.0,0.0,0.0,0.0,0.0,0.0,0.0,0.0,0.0,0.0,-0.0,-0.2662,-0.5955,-0.9578,-1.0036,-1.0025,-1.0019,-0.9905,-0.978,-0.9655,-0.965,-0.9693,-0.9796,-0.9704,-0.9699,-0.9796,-0.9824,-0.9835,-0.984,-0.996,-1.0019,-1.0019,-1.0019,-1.0079,-1.0182,-1.0182,-1.0318,-1.0536,-1.0536,-1.0617,-1.0904,-1.2222,-1.3638,-1.5134,-1.6672,-1.8219,-1.9628,-1.9845,-1.993,-2.0015,-2.0412,-2.0554,-2.0648,-2.1045,-2.1168,-2.1168,-2.1168,-2.1168,-2.1168,-2.1168,-2.1168,-2.1168,-2.1168,-2.1168,-2.1178,-2.1196,-2.1348,-2.148,-2.1527,-2.1537,-2.166,-2.2028,-2.2113,-2.2189,-2.2359,-2.2387,-2.317,-2.5302,-2.7214,-2.9504,-3.1975,-3.4103,-3.5982,-3.7272,-3.7819,-3.8196,-3.8561,-3.8719,-3.8545,-3.8211,-3.7861,-3.7845,-3.8195,-3.7925,-3.81,-3.8751,-3.8465,-3.8656,-3.9291,-3.9609,-4.2025,-0.0,-0.0,-0.0,-0.0,-0.0,0.0,-0.0,-0.0,-0.0,0.0,0.0,0.0,0.0,0.0,0.0,0.0,0.0,0.0,0.0,0.0,0.0,0.0,-0.0627,-0.329,-0.9438,-1.0052,-1.0036,-1.0019,-0.9905,-0.9742,-0.9536,-0.9525,-0.9536,-0.9552,-0.9536,-0.9536,-0.9557,-0.9742,-0.9835,-0.984,-0.996,-1.0019,-1.0019,-1.0019,-1.003,-1.0057,-1.0057,-1.0193,-1.0416,-1.0416,-1.0547,-1.0904,-1.2222,-1.3638,-1.5134,-1.6672,-1.8219,-1.9628,-1.9845,-2.0025,-2.0204,-2.0459,-2.0648,-2.0828,-2.1093,-2.1168,-2.1168,-2.1168,-2.1168,-2.1168,-2.1168,-2.1168,-2.1168,-2.1168,-2.1168,-2.1215,-2.1376,-2.1442,-2.1565,-2.1905,-2.1971,-2.2,-2.2075,-2.2227,-2.2349,-2.2387,-2.2387,-2.317,-2.5302,-2.7214,-2.9313,-3.1421,-3.413,-3.5951,-3.6471,-3.7586,-3.8364,-3.8364,-3.8672,-3.8545,-3.8211,-3.7861,-3.7845,-3.8195,-3.8386,-3.8703,-3.9117,-3.9053,-3.9244,-3.9657,-3.9736,-4.2025,-0.0,-0.0,-0.0,-0.0,-0.0,0.0,0.0,-0.0,-0.0,-0.0,0.0,0.0,0.0,0.0,0.0,0.0,0.0,0.0,0.0,0.0,0.0,0.0,-0.0,-0.2664,-0.9286,-1.0063,-0.9992,-0.9856,-0.9791,-0.965,-0.941,-0.9454,-0.9487,-0.9487,-0.9546,-0.9579,-0.9579,-0.9753,-0.9835,-0.984,-0.996,-1.0019,-1.0019,-1.0019,-1.0019,-1.0025,-1.0085,-1.0215,-1.0389,-1.0449,-1.0574,-1.0737,-1.1397,-1.2643,-1.4126,-1.564,-1.7187,-1.8759,-1.9671,-2.0053,-2.0251,-2.0469,-2.0677,-2.0885,-2.1102,-2.1168,-2.1168,-2.1168,-2.1168,-2.1168,-2.1168,-2.1168,-2.1168,-2.1168,-2.1168,-2.1196,-2.13,-2.148,-2.1688,-2.1905,-2.2104,-2.2236,-2.2236,-2.2321,-2.2387,-2.2387,-2.2387,-2.2779,-2.3746,-2.5679,-2.7792,-2.9899,-3.245,-3.4679,-3.6178,-3.71,-3.7878,-3.828,-3.8494,-3.8434,-3.8465,-3.8274,-3.8259,-3.8449,-3.8958,-3.9228,-3.9228,-3.9403,-3.9593,-3.9768,-3.9768,-4.1464,0.0148,-0.0,-0.0,-0.0,-0.0,-0.0,0.0,0.0,0.0,0.0,0.0,0.0,0.0,0.0,0.0,0.0,0.0,0.0,0.0,0.0,0.0,-0.0,-0.0,-0.2338,-0.8466,-0.9537,-0.9889,-0.9655,-0.9639,-0.9552,-0.9351,-0.9432,-0.9497,-0.9525,-0.9617,-0.9671,-0.9671,-0.978,-0.9835,-0.984,-0.996,-1.0019,-1.0019,-1.0019,-1.003,-1.0063,-1.0161,-1.0286,-1.0427,-1.052,-1.0639,-1.077,-1.0748,-1.1646,-1.3121,-1.4783,-1.6152,-1.7725,-1.9361,-2.011,-2.0318,-2.0526,-2.0733,-2.0941,-2.1121,-2.1168,-2.1168,-2.1168,-2.1168,-2.1168,-2.1168,-2.1168,-2.1168,-2.1168,-2.1168,-2.1196,-2.1272,-2.1556,-2.1811,-2.1896,-2.217,-2.2387,-2.2387,-2.2387,-2.2387,-2.2387,-2.2387,-2.2387,-2.2387,-2.4136,-2.6271,-2.8428,-3.0793,-3.3408,-3.609,-3.6803,-3.7372,-3.8087,-3.828,-3.8302,-3.8514,-3.8688,-3.8719,-3.8799,-3.9371,-3.9546,-3.9323,-3.9625,-3.9768,-3.9768,-3.9768,-4.0901,0.0766,-0.0,-0.0,-0.0,-0.0,-0.0,-0.0,0.0,-0.0,-0.0,0.0,0.0,0.0,0.0,0.0,0.0,0.0,0.0,0.0,0.0,0.0,-0.0,-0.0,-0.1374,-0.4943,-0.8121,-0.9838,-0.9519,-0.9525,-0.9514,-0.947,-0.9481,-0.9536,-0.9644,-0.9661,-0.9671,-0.9671,-0.978,-0.9835,-0.984,-0.996,-1.0019,-1.0019,-1.0019,-1.0079,-1.0182,-1.0199,-1.0329,-1.0536,-1.0552,-1.0693,-1.0889,-1.078,-1.1646,-1.3121,-1.4783,-1.6152,-1.7742,-1.9517,-2.0327,-2.0535,-2.0743,-2.0951,-2.114,-2.1159,-2.1168,-2.1168,-2.1168,-2.1168,-2.1168,-2.1168,-2.1168,-2.1168,-2.1168,-2.1168,-2.1272,-2.1641,-2.1763,-2.1896,-2.2255,-2.2359,-2.2387,-2.2387,-2.2387,-2.2387,-2.2387,-2.2387,-2.2387,-2.2387,-2.4136,-2.6338,-2.8668,-3.1076,-3.3532,-3.5832,-3.6951,-3.7222,-3.7117,-3.749,-3.7932,-3.7959,-3.8514,-3.8846,-3.9148,-3.9244,-3.9418,-3.9704,-3.9752,-3.9768,-3.9768,-3.9768,-4.0901,0.1405,-0.0,-0.0,-0.0,-0.0,-0.0,-0.0,-0.0,-0.0,-0.0,0.0,0.0,0.0,0.0,0.0,0.0,-0.0,0.0,0.0,0.0,-0.0,0.0,0.0,0.0,-0.4416,-0.7604,-0.9511,-0.9497,-0.9503,-0.9508,-0.9487,-0.9552,-0.9617,-0.9666,-0.9802,-0.984,-0.9769,-0.9883,-0.9943,-0.9943,-0.9998,-1.0019,-1.0019,-1.0019,-1.009,-1.021,-1.028,-1.0405,-1.0563,-1.0634,-1.0721,-1.0813,-1.0835,-1.1294,-1.2158,-1.3588,-1.5089,-1.6475,-1.7329,-1.8831,-2.0601,-2.0922,-2.1093,-2.1168,-2.1168,-2.1168,-2.1168,-2.1168,-2.1168,-2.1168,-2.1168,-2.1168,-2.1168,-2.1168,-2.1263,-2.1395,-2.1565,-2.1792,-2.2019,-2.2179,-2.2312,-2.2387,-2.2387,-2.2387,-2.2387,-2.2387,-2.2387,-2.2387,-2.2387,-2.3277,-2.4753,-2.6985,-2.9517,-3.1801,-3.4114,-3.5816,-3.6859,-3.6923,-3.7684,-3.8295,-3.8535,-3.9114,-3.9387,-3.953,-3.9546,-3.9609,-3.9768,-3.9768,-3.9768,-3.9768,-3.9768,-4.0336,0.1748,-0.0,-0.0,-0.0,-0.0,-0.0,-0.0,-0.0,-0.0,-0.0,-0.0,0.0,0.0,0.0,-0.0,-0.0,0.0,-0.0,0.0,-0.0,0.0,0.0,0.0,0.0,0.0,-0.7053,-0.9133,-0.8558,-0.916,-0.9492,-0.9536,-0.9622,-0.9699,-0.9764,-0.9932,-0.9976,-0.9889,-0.9976,-1.0019,-1.0019,-1.0019,-1.0041,-1.0068,-1.0068,-1.0155,-1.0302,-1.0394,-1.0498,-1.0612,-1.0737,-1.0808,-1.0851,-1.0971,-1.1139,-1.1494,-1.2848,-1.4143,-1.5168,-1.5609,-1.7478,-1.9652,-2.0317,-2.0603,-2.0603,-2.0983,-2.1168,-2.1168,-2.1168,-2.1168,-2.1168,-2.1168,-2.1168,-2.1168,-2.1168,-2.1319,-2.1489,-2.1546,-2.1839,-2.2113,-2.216,-2.2293,-2.2387,-2.2387,-2.2444,-2.2463,-2.2397,-2.2444,-2.2453,-2.2397,-2.2576,-2.3512,-2.573,-2.8276,-3.0765,-3.2855,-3.5267,-3.6706,-3.6862,-3.746,-3.8133,-3.876,-3.9189,-3.9367,-3.9768,-3.9673,-3.9673,-3.9768,-3.9768,-3.9768,-3.9768,-3.9768,-3.9768,0.13,0.0,-0.0,-0.0,-0.0,-0.0,-0.0,-0.0,-0.0,-0.0,-0.0,-0.0,-0.0,-0.0,-0.0,-0.0,-0.0,0.0,0.0,0.0,0.0,0.0,0.0,0.0,0.0,-0.5706,-0.8504,0.0,-0.8174,-0.9454,-0.9655,-0.9666,-0.9775,-1.0003,-1.0014,-1.0019,-1.0014,-1.0019,-1.0019,-1.0019,-1.0019,-1.0085,-1.0199,-1.0199,-1.0324,-1.0547,-1.0547,-1.0617,-1.0742,-1.0862,-1.0987,-1.1101,-1.1215,-1.134,-1.161,-1.2885,-1.3449,-1.3965,-1.5687,-1.6375,-1.7017,-1.8532,-1.8913,-1.9285,-2.0788,-2.1168,-2.1168,-2.1168,-2.1168,-2.1168,-2.1168,-2.1168,-2.1168,-2.1168,-2.1319,-2.1527,-2.1735,-2.1943,-2.2151,-2.234,-2.2387,-2.2387,-2.2387,-2.2567,-2.2633,-2.2425,-2.2567,-2.2623,-2.2416,-2.2576,-2.3571,-2.5954,-2.838,-3.0839,-3.3134,-3.5394,-3.6597,-3.6583,-3.658,-3.6907,-3.8173,-3.8156,-3.8686,-3.9752,-3.9418,-3.9418,-3.9768,-3.9768,-3.9768,-3.9768,-3.9768,-3.9768,0.0,0.0,-0.0,-0.0,0.0,0.0,-0.0,-0.0,-0.0,-0.0,-0.0,-0.0,-0.0,-0.0,-0.0,-0.0,-0.0,-0.0,0.0,-0.0,0.0,0.0,0.0,0.0,0.0,0.0,0.0,0.0,-0.816,-0.9438,-0.9661,-0.9671,-0.978,-1.0014,-1.0019,-1.0019,-1.0019,-1.0019,-1.0019,-1.0019,-1.0019,-1.0085,-1.0204,-1.0204,-1.0329,-1.0558,-1.0558,-1.0623,-1.0737,-1.078,-1.0873,-1.0992,-1.1112,-1.1232,-1.1516,-1.1902,-1.2826,-1.3787,-1.5521,-1.5766,-1.5217,-1.7002,-1.816,-1.8913,-1.9471,-2.0417,-2.1168,-2.1168,-2.1168,-2.1196,-2.1338,-2.1272,-2.1244,-2.1518,-2.1631,-2.1735,-2.1943,-2.2151,-2.2312,-2.2378,-2.2387,-2.2387,-2.2387,-2.2567,-2.2642,-2.2425,-2.2576,-2.269,-2.2614,-2.2784,-2.3193,-2.4204,-2.6435,-2.882,-3.1126,-3.4571,-3.6597,-3.6597,-3.68,-3.7162,-3.7598,-3.8364,-3.8932,-3.9167,-3.9447,-3.9641,-3.9768,-3.9768,-3.9768,-3.9768,-3.9768,-3.9768,1.1628,0.8001,0.0,0.1172,0.0496,0.0,-0.0,-0.0,0.0158,0.0775,0.0466,-0.0,-0.0,-0.0,-0.0,-0.0,-0.0,-0.0,0.0,-0.0,-0.0,0.0,0.0,0.0,0.0,0.0,0.0,-0.7272,-0.8599,-0.9438,0.0,-0.9671,-0.978,-1.0014,-1.0019,-1.0019,-1.0019,-1.0019,-1.0041,-1.0085,-1.0085,-1.0172,-1.0329,-1.0329,-1.0438,-1.0617,-1.0617,-1.0688,-1.0808,-1.0851,-1.0938,-1.1058,-1.1183,-1.1275,-1.1346,-1.1427,-1.2039,-1.3046,-1.4348,-1.4164,-1.374,-1.532,-1.6479,-1.7414,-1.8541,-1.9666,-2.0463,-2.1245,-2.1395,-2.1338,-2.1622,-2.1537,-2.1442,-2.1631,-2.1792,-2.1934,-2.2066,-2.2245,-2.2416,-2.2491,-2.2444,-2.2416,-2.2491,-2.2623,-2.2642,-2.2425,-2.2576,-2.2708,-2.2708,-2.2888,-2.3096,-2.3313,-2.5543,-2.811,-3.0937,-3.4474,-3.648,-3.6597,-3.6785,-3.6966,-3.7386,-3.8066,-3.8822,-3.9517,-3.9763,-3.9943,-4.0308,-3.9943,-3.9768,-3.9768,-3.9768,-3.9768]},{"header":{"parameterUnit":"m.s-1","parameterCategory":1,"la1":30.6,"la2":29.2853,"lo1":-89.7004,"lo2":-87.6739,"dy":0.0162,"dx":0.0183,"nx":112,"ny":82,"refTime":"2024-02-09T18:00:00:Z","depth":0,"parameterNumber":3,"parameterNumberName":"V-component_of_WINDS"},"data":[0.0,0.0,0.0,0.0,0.0,0.0,0.0,0.0,0.0,0.0,0.0,0.0,0.0,0.0,0.0,0.0,0.0,0.0,0.0,0.0,0.0,0.0,0.0,0.0,0.0,0.0,0.0,0.0,0.0,0.0,0.0,0.0,0.0,0.0,0.0,0.0,0.0,0.0,0.0,0.0,0.0,0.0,0.0,0.0,0.0,0.0,0.0,0.0,0.0,0.0,0.0,0.0,0.0,0.0,0.0,0.0,0.0,0.0,0.0,0.0,0.0,0.0,0.0,0.0,0.0,0.0,0.0,0.0,0.0,0.0,0.0,0.0,0.0,0.0,0.0,0.0,0.0,0.0,0.0,0.0,0.0,0.0,0.0,0.0,0.0,0.0,0.0,0.0,0.0,0.0,-4.6989,-4.8074,-4.8707,-4.8966,-4.8802,-4.8282,-4.7985,-4.7959,0.0,0.0,0.0,0.0,0.0,0.0,0.0,0.0,0.0,0.0,0.0,0.0,0.0,0.0,0.0,0.0,0.0,0.0,0.0,0.0,0.0,0.0,0.0,0.0,0.0,0.0,0.0,0.0,0.0,0.0,0.0,0.0,0.0,0.0,0.0,0.0,0.0,0.0,0.0,0.0,0.0,0.0,0.0,0.0,0.0,0.0,0.0,0.0,0.0,0.0,0.0,0.0,0.0,0.0,0.0,0.0,0.0,0.0,0.0,0.0,0.0,0.0,0.0,0.0,0.0,0.0,0.0,0.0,0.0,0.0,0.0,0.0,0.0,0.0,0.0,0.0,0.0,0.0,0.0,0.0,0.0,0.0,0.0,0.0,0.0,0.0,0.0,0.0,0.0,0.0,0.0,0.0,0.0,0.0,0.0,0.0,0.0,0.0,0.0,0.0,0.0,0.0,0.0,0.0,-4.7103,-4.8647,-4.9491,-5.016,-5.0699,-5.0151,-4.9628,-4.9571,0.0,0.0,0.0,0.0,0.0,0.0,0.0,0.0,0.0,0.0,0.0,0.0,0.0,0.0,0.0,0.0,0.0,0.0,0.0,0.0,0.0,0.0,0.0,0.0,0.0,0.0,0.0,0.0,0.0,0.0,0.0,0.0,0.0,0.0,0.0,0.0,0.0,0.0,0.0,0.0,0.0,0.0,0.0,0.0,0.0,0.0,0.0,0.0,0.0,0.0,0.0,0.0,0.0,0.0,0.0,0.0,0.0,0.0,0.0,0.0,0.0,0.0,0.0,0.0,0.0,0.0,0.0,0.0,0.0,0.0,0.0,0.0,0.0,0.0,0.0,0.0,0.0,0.0,0.0,0.0,0.0,0.0,0.0,0.0,0.0,0.0,0.0,0.0,0.0,0.0,0.0,0.0,0.0,0.0,0.0,0.0,0.0,0.0,0.0,0.0,0.0,0.0,0.0,-4.7244,-4.8134,-4.8914,-4.978,-5.0422,-5.077,-4.9597,-4.916,-4.9892,-4.834,0.0,0.0,0.0,0.0,0.0,0.0,0.0,0.0,0.0,0.0,0.0,0.0,0.0,0.0,0.0,0.0,0.0,0.0,0.0,0.0,0.0,0.0,0.0,0.0,0.0,0.0,0.0,0.0,0.0,0.0,0.0,0.0,0.0,0.0,0.0,0.0,0.0,0.0,0.0,0.0,0.0,0.0,0.0,0.0,0.0,0.0,0.0,0.0,0.0,0.0,0.0,0.0,0.0,0.0,0.0,0.0,0.0,0.0,0.0,0.0,0.0,0.0,0.0,0.0,0.0,0.0,0.0,0.0,0.0,0.0,0.0,0.0,0.0,0.0,0.0,0.0,0.0,0.0,0.0,0.0,0.0,0.0,0.0,0.0,0.0,0.0,0.0,0.0,0.0,0.0,0.0,0.0,0.0,0.0,0.0,0.0,0.0,0.0,0.0,0.0,0.0,0.0,-4.7499,-4.9074,-4.9245,-5.0123,-5.0661,-5.0661,-4.9264,-4.8812,-4.9969,-4.872,0.0,0.0,0.0,0.0,0.0,0.0,0.0,0.0,0.0,0.0,0.0,0.0,0.0,0.0,0.0,0.0,0.0,0.0,0.0,0.0,0.0,0.0,0.0,0.0,0.0,0.0,0.0,0.0,0.0,0.0,0.0,0.0,0.0,0.0,0.0,0.0,0.0,0.0,0.0,0.0,0.0,0.0,0.0,0.0,0.0,0.0,0.0,0.0,0.0,0.0,0.0,0.0,0.0,0.0,0.0,0.0,0.0,0.0,0.0,0.0,0.0,0.0,0.0,0.0,0.0,0.0,0.0,0.0,0.0,0.0,0.0,0.0,0.0,0.0,0.0,0.0,0.0,0.0,0.0,0.0,0.0,0.0,0.0,0.0,0.0,0.0,0.0,0.0,0.0,0.0,0.0,0.0,0.0,0.0,0.0,0.0,0.0,0.0,0.0,0.0,0.0,0.0,-4.8211,-4.9277,-4.9952,-5.0693,-5.1135,-5.1135,-5.0422,-5.0102,-5.0416,-5.008,0.0,0.0,0.0,0.0,0.0,0.0,0.0,0.0,0.0,0.0,0.0,0.0,0.0,0.0,0.0,0.0,0.0,0.0,0.0,0.0,0.0,0.0,0.0,0.0,0.0,0.0,0.0,0.0,0.0,0.0,0.0,0.0,0.0,0.0,0.0,0.0,0.0,0.0,0.0,0.0,0.0,0.0,0.0,0.0,0.0,0.0,0.0,0.0,0.0,0.0,0.0,0.0,0.0,0.0,0.0,0.0,0.0,0.0,0.0,0.0,0.0,0.0,0.0,0.0,0.0,0.0,0.0,0.0,0.0,0.0,0.0,0.0,0.0,0.0,0.0,0.0,0.0,0.0,0.0,0.0,0.0,0.0,0.0,0.0,0.0,0.0,0.0,0.0,0.0,0.0,0.0,0.0,0.0,0.0,0.0,0.0,0.0,0.0,0.0,0.0,0.0,0.0,-4.8771,-5.014,-5.0154,-5.1092,-5.1653,-5.1232,-5.0519,-5.0348,-5.094,0.0,0.0,0.0,0.0,0.0,0.0,0.0,0.0,0.0,0.0,0.0,0.0,0.0,0.0,0.0,0.0,0.0,0.0,0.0,0.0,0.0,0.0,0.0,0.0,0.0,0.0,0.0,0.0,0.0,0.0,0.0,0.0,0.0,0.0,0.0,0.0,0.0,0.0,0.0,0.0,0.0,0.0,0.0,0.0,0.0,0.0,0.0,0.0,0.0,0.0,0.0,0.0,0.0,0.0,0.0,0.0,0.0,0.0,0.0,0.0,0.0,0.0,0.0,0.0,0.0,0.0,0.0,0.0,0.0,0.0,0.0,0.0,0.0,0.0,0.0,0.0,0.0,0.0,0.0,0.0,0.0,0.0,0.0,0.0,0.0,0.0,0.0,0.0,0.0,0.0,0.0,0.0,0.0,0.0,0.0,0.0,0.0,0.0,0.0,0.0,0.0,0.0,-4.7818,-4.936,-5.0549,-5.0652,-5.1447,-5.1685,-5.1232,-5.0746,-5.0649,-5.1167,0.0,0.0,0.0,0.0,0.0,0.0,0.0,0.0,0.0,0.0,0.0,0.0,0.0,0.0,0.0,0.0,0.0,0.0,0.0,0.0,0.0,0.0,0.0,0.0,0.0,0.0,0.0,0.0,0.0,0.0,0.0,0.0,0.0,0.0,0.0,0.0,0.0,0.0,0.0,0.0,0.0,0.0,0.0,0.0,0.0,0.0,0.0,0.0,0.0,0.0,0.0,0.0,0.0,0.0,0.0,0.0,0.0,0.0,0.0,0.0,0.0,0.0,0.0,0.0,0.0,0.0,0.0,0.0,0.0,0.0,0.0,0.0,0.0,0.0,0.0,0.0,0.0,0.0,0.0,0.0,0.0,0.0,0.0,0.0,0.0,0.0,0.0,0.0,0.0,0.0,0.0,0.0,0.0,0.0,0.0,0.0,0.0,0.0,0.0,0.0,0.0,0.0,-5.0217,-5.0023,-5.0368,-5.1822,-5.154,-5.1199,-5.1199,-5.1199,-5.1199,0.0,0.0,0.0,0.0,0.0,0.0,0.0,0.0,0.0,0.0,0.0,0.0,0.0,0.0,0.0,0.0,0.0,0.0,0.0,0.0,0.0,0.0,0.0,0.0,0.0,0.0,0.0,0.0,0.0,0.0,0.0,0.0,0.0,0.0,0.0,0.0,0.0,0.0,0.0,0.0,0.0,0.0,0.0,0.0,0.0,0.0,0.0,0.0,0.0,0.0,0.0,0.0,0.0,0.0,0.0,0.0,0.0,0.0,0.0,0.0,0.0,0.0,0.0,0.0,0.0,0.0,0.0,0.0,0.0,0.0,0.0,0.0,0.0,0.0,0.0,0.0,0.0,0.0,0.0,0.0,0.0,0.0,0.0,0.0,0.0,0.0,0.0,0.0,0.0,0.0,0.0,0.0,0.0,0.0,0.0,0.0,0.0,0.0,0.0,0.0,0.0,0.0,0.0,-5.0217,-5.0794,-5.1317,-5.196,-5.1965,-5.1685,-5.1232,-5.1199,-5.1199,-5.1199,0.0,0.0,0.0,0.0,0.0,0.0,0.0,0.0,0.0,0.0,0.0,0.0,0.0,0.0,0.0,0.0,0.0,0.0,0.0,0.0,0.0,0.0,0.0,0.0,0.0,0.0,0.0,0.0,0.0,0.0,0.0,0.0,0.0,0.0,0.0,0.0,0.0,0.0,0.0,0.0,0.0,0.0,0.0,0.0,0.0,0.0,0.0,0.0,0.0,0.0,0.0,0.0,0.0,0.0,0.0,0.0,0.0,0.0,0.0,0.0,0.0,0.0,0.0,0.0,0.0,0.0,0.0,0.0,0.0,0.0,0.0,0.0,0.0,0.0,0.0,0.0,0.0,0.0,0.0,0.0,0.0,0.0,0.0,0.0,0.0,0.0,0.0,0.0,0.0,0.0,0.0,0.0,0.0,0.0,0.0,0.0,0.0,0.0,0.0,0.0,0.0,0.0,-5.0929,-5.1324,-5.1698,-5.2246,-5.2236,-5.189,-5.1199,-5.1199,-5.1199,-5.1199,0.0,0.0,0.0,0.0,0.0,0.0,0.0,0.0,0.0,0.0,0.0,0.0,0.0,0.0,0.0,0.0,0.0,0.0,0.0,0.0,0.0,0.0,0.0,0.0,0.0,0.0,0.0,0.0,0.0,0.0,0.0,0.0,0.0,0.0,0.0,0.0,0.0,0.0,0.0,0.0,0.0,0.0,0.0,0.0,0.0,0.0,0.0,0.0,0.0,0.0,0.0,0.0,0.0,0.0,0.0,0.0,0.0,0.0,0.0,0.0,0.0,0.0,0.0,0.0,0.0,0.0,0.0,0.0,0.0,0.0,0.0,0.0,0.0,0.0,0.0,0.0,0.0,0.0,0.0,0.0,0.0,0.0,0.0,0.0,0.0,0.0,0.0,0.0,0.0,0.0,0.0,0.0,0.0,0.0,0.0,0.0,0.0,0.0,0.0,0.0,0.0,0.0,-5.2046,-5.176,-5.1826,-5.2771,-5.2345,-5.1769,-5.1317,-5.1242,-5.1199,-5.1199,0.0,0.0,0.0,0.0,0.0,0.0,0.0,0.0,0.0,0.0,0.0,0.0,0.0,0.0,0.0,0.0,0.0,0.0,0.0,0.0,0.0,0.0,0.0,0.0,0.0,0.0,0.0,0.0,0.0,0.0,0.0,0.0,0.0,0.0,0.0,0.0,0.0,0.0,0.0,0.0,0.0,0.0,0.0,0.0,0.0,0.0,0.0,0.0,0.0,0.0,0.0,0.0,0.0,0.0,0.0,0.0,0.0,0.0,0.0,0.0,-5.5769,-5.632,0.0,0.0,0.0,0.0,0.0,0.0,0.0,0.0,0.0,0.0,0.0,0.0,0.0,0.0,0.0,0.0,0.0,0.0,0.0,0.0,0.0,0.0,0.0,0.0,0.0,0.0,0.0,0.0,0.0,0.0,0.0,0.0,0.0,0.0,0.0,0.0,0.0,0.0,0.0,0.0,-5.2046,-5.2204,-5.2598,-5.3382,-5.2627,-5.1915,-5.1842,-5.1466,-5.1199,-5.1199,-5.1199,0.0,0.0,0.0,0.0,0.0,0.0,0.0,0.0,0.0,0.0,0.0,0.0,0.0,0.0,0.0,0.0,0.0,0.0,0.0,0.0,0.0,0.0,0.0,0.0,0.0,0.0,0.0,0.0,0.0,0.0,0.0,0.0,0.0,0.0,0.0,0.0,0.0,0.0,0.0,0.0,0.0,0.0,0.0,0.0,0.0,0.0,0.0,0.0,0.0,0.0,0.0,0.0,0.0,0.0,0.0,0.0,0.0,0.0,0.0,-5.7032,-5.6874,0.0,0.0,0.0,0.0,0.0,0.0,0.0,0.0,0.0,0.0,0.0,0.0,0.0,0.0,0.0,0.0,0.0,0.0,0.0,0.0,0.0,0.0,0.0,0.0,0.0,0.0,0.0,0.0,0.0,0.0,0.0,0.0,0.0,0.0,0.0,0.0,0.0,0.0,0.0,0.0,-5.208,-5.2626,-5.3126,-5.3615,-5.3213,-5.2627,-5.2059,-5.1729,-5.1597,-5.1653,-5.1361,0.0,0.0,0.0,0.0,0.0,0.0,0.0,0.0,0.0,0.0,0.0,0.0,0.0,0.0,0.0,0.0,0.0,0.0,0.0,0.0,0.0,0.0,0.0,0.0,0.0,0.0,0.0,0.0,0.0,0.0,0.0,0.0,0.0,0.0,0.0,0.0,0.0,0.0,0.0,0.0,0.0,0.0,0.0,0.0,0.0,0.0,0.0,0.0,0.0,0.0,0.0,0.0,0.0,-5.809,-5.8777,-5.9547,-5.9413,-5.9775,-6.0455,-5.9027,-5.809,-5.7687,-5.7146,0.0,0.0,0.0,0.0,0.0,0.0,0.0,0.0,0.0,0.0,0.0,0.0,0.0,0.0,0.0,0.0,0.0,0.0,0.0,0.0,0.0,0.0,-5.8217,-5.8217,-5.8327,-5.7959,-5.6294,0.0,0.0,0.0,0.0,0.0,0.0,0.0,0.0,0.0,0.0,0.0,-5.2149,-5.3011,-5.3685,-5.4017,-5.3954,-5.3585,-5.2782,-5.2528,-5.2393,-5.2563,-5.1923,-5.2074,0.0,0.0,0.0,0.0,0.0,0.0,0.0,0.0,0.0,0.0,0.0,0.0,0.0,0.0,0.0,0.0,0.0,0.0,0.0,0.0,0.0,0.0,0.0,0.0,0.0,0.0,0.0,0.0,0.0,0.0,0.0,0.0,-6.0925,-6.077,0.0,0.0,0.0,0.0,0.0,0.0,0.0,0.0,0.0,0.0,0.0,0.0,0.0,-5.9194,-5.9373,-6.0781,-6.1209,-6.0613,-6.1366,-6.2183,-6.294,-6.2257,-6.2324,-6.3044,-6.2138,0.0,-5.8624,-5.919,0.0,0.0,0.0,0.0,0.0,0.0,0.0,0.0,0.0,0.0,0.0,0.0,0.0,0.0,0.0,0.0,0.0,0.0,0.0,0.0,0.0,0.0,-5.9051,-5.9077,-5.959,-5.9688,-5.8196,-5.6403,-5.4775,-5.409,-5.2427,-5.108,0.0,0.0,0.0,0.0,0.0,0.0,-5.2218,-5.346,-5.4569,-5.5262,-5.4937,-5.4839,-5.5312,-5.4456,-5.3931,-5.3954,-5.3388,-5.3142,-5.3304,-5.3823,0.0,0.0,0.0,0.0,0.0,0.0,0.0,0.0,0.0,0.0,0.0,0.0,0.0,0.0,0.0,0.0,0.0,0.0,0.0,0.0,0.0,0.0,0.0,0.0,0.0,0.0,0.0,0.0,0.0,-6.1505,-6.166,-6.1157,-6.1118,-6.0615,0.0,0.0,0.0,0.0,0.0,0.0,0.0,0.0,0.0,-6.2359,-6.2136,-6.1858,-6.144,-6.2642,-6.3124,-6.2835,-6.3447,-6.4187,-6.4985,-6.4641,-6.4641,-6.4985,-6.4604,-6.3317,-6.1336,-5.9855,-5.8855,-5.8303,0.0,0.0,0.0,0.0,-5.8698,-5.8772,-5.925,-5.8762,-5.8169,-5.9064,0.0,0.0,0.0,0.0,0.0,0.0,0.0,-5.9412,-5.9365,-5.9612,-5.9858,-5.9883,-6.0139,-6.0249,-5.9625,-5.8492,-5.694,-5.4684,-5.3192,-5.2252,-5.1804,-5.1459,0.0,0.0,0.0,-5.3046,-5.346,-5.446,-5.5426,-5.6184,-5.6056,-5.5927,-5.5928,-5.5118,-5.47,-5.4787,-5.3844,-5.3661,-5.447,-5.4438,-5.4567,0.0,0.0,0.0,0.0,0.0,0.0,0.0,0.0,0.0,0.0,0.0,0.0,0.0,0.0,0.0,0.0,0.0,0.0,0.0,0.0,0.0,0.0,0.0,0.0,0.0,0.0,0.0,0.0,-6.2027,-6.2413,-6.1524,-6.1814,-6.166,0.0,0.0,0.0,0.0,0.0,0.0,-6.2998,-6.3267,-6.4152,-6.5856,-6.5397,-6.4918,-6.4489,-6.537,-6.5635,-6.5238,-6.5767,-6.626,-6.6716,-6.6716,-6.6716,-6.6679,-6.6531,-6.5689,-6.4299,-6.1224,-6.0041,-6.0124,-5.8884,-5.8809,-5.9334,-5.9334,-5.9329,-5.943,-6.0018,-5.9461,-5.8651,-5.9844,-5.9393,-5.8498,-5.9096,0.0,0.0,0.0,0.0,-6.0572,-6.0488,-6.0625,-6.0761,-6.0738,-6.0848,-6.097,-6.075,-6.0281,-5.8916,-5.5653,-5.4465,-5.361,-5.2666,-5.2356,0.0,-5.2218,-5.2873,-5.3667,-5.4425,-5.515,-5.5977,-5.6978,-5.7081,-5.7017,-5.6748,-5.6156,-5.5743,-5.5819,-5.4665,-5.4468,-5.5377,-5.4924,-5.4891,-5.5409,0.0,0.0,0.0,0.0,0.0,0.0,0.0,0.0,0.0,0.0,0.0,0.0,0.0,0.0,0.0,0.0,0.0,0.0,0.0,0.0,0.0,0.0,0.0,0.0,0.0,0.0,0.0,0.0,0.0,-6.2452,-6.3806,0.0,0.0,0.0,0.0,-6.2005,-6.3531,-6.4817,-6.5667,-6.6435,-6.7664,-6.941,-6.8614,-6.8541,-6.9341,-7.015,-6.9804,-6.8271,-6.9075,-6.9075,-6.8394,-6.8394,-6.8394,-6.8308,-6.7592,-6.7172,-6.6924,-6.4373,-6.2501,-6.1139,-6.1065,-6.1027,-6.1065,-6.1065,-6.1081,-6.1078,-6.1152,-6.1048,-6.1069,-6.1143,-6.0981,-6.0826,-6.0863,-6.0728,0.0,0.0,-6.0628,-6.0572,-6.0572,-6.1161,-6.1702,-6.1606,-6.2144,-6.2475,-6.1704,-6.112,-6.0088,-5.7779,-5.6268,-5.4979,-5.3583,0.0,-5.2218,-5.2218,-5.2873,-5.3667,-5.4425,-5.515,-5.6184,-5.7702,-5.784,-5.815,-5.8772,-5.8285,-5.7712,-5.7156,-5.6514,-5.5922,-5.5409,-5.5377,-5.5377,-5.5409,-5.5409,0.0,0.0,0.0,0.0,0.0,0.0,0.0,0.0,0.0,0.0,0.0,0.0,0.0,0.0,0.0,0.0,0.0,0.0,0.0,0.0,0.0,0.0,0.0,0.0,0.0,0.0,0.0,0.0,-6.5737,-6.8161,0.0,-6.7406,-6.7191,-6.693,-6.6242,-6.7757,-6.8821,-6.9097,-7.0469,-7.1497,-7.2118,-7.1304,-7.0992,-7.1291,-7.105,-7.0597,-7.0027,-6.9806,-6.9793,-7.0027,-6.9,-6.8766,-6.9223,-6.8431,-6.7777,-6.7209,-6.6367,-6.5013,-6.3475,-6.2947,-6.274,-6.2669,-6.2183,-6.1953,-6.1974,-6.1974,-6.199,-6.196,-6.196,-6.1589,-6.1143,-6.1143,-6.1426,-6.1752,-6.1707,-6.2401,-6.3057,-6.2409,-6.283,-6.326,-6.2659,-6.2634,-6.2732,-6.2438,-6.2215,-6.1491,-5.9358,-5.7848,-5.6624,-5.5761,-5.5357,-5.515,-5.515,-5.5391,-5.5839,-5.6598,-5.6943,-5.7495,-5.8495,-5.8633,-5.8737,-5.8978,-5.8422,-5.8031,-5.7814,-5.6844,-5.6224,-5.602,-5.5653,-5.5409,-5.5409,-5.5409,-5.5409,0.0,0.0,0.0,0.0,0.0,0.0,0.0,0.0,0.0,0.0,0.0,0.0,0.0,0.0,0.0,0.0,0.0,0.0,0.0,0.0,0.0,0.0,0.0,0.0,0.0,0.0,-6.9226,-6.9231,-7.2258,-7.3734,-7.2242,-7.2059,-7.1888,-7.1518,-7.2696,-7.3563,-7.3898,-7.4456,-7.5053,-7.56,-7.4216,-7.3514,-7.3458,-7.2932,-7.2192,-7.1309,-7.0796,-7.0685,-7.0858,-6.9806,-6.9472,-6.9681,-6.9149,-6.8468,-6.7703,-6.7703,-6.7046,-6.5914,-6.4856,-6.4234,-6.3918,-6.3437,-6.3074,-6.2806,-6.2806,-6.3,-6.323,-6.323,-6.3044,-6.2859,-6.2859,-6.3185,-6.3548,-6.3548,-6.4244,-6.4901,-6.4288,-6.418,-6.4279,-6.4021,-6.3579,-6.3319,-6.3626,-6.3649,-6.31,-6.1276,-5.9585,-5.8062,-5.7036,-5.6805,-5.6805,-5.6805,-5.6805,-5.7081,-5.7805,-5.7909,-5.8185,-5.8944,-5.9012,-5.9012,-5.9012,-5.8427,-5.7976,-5.7729,-5.7003,-5.6326,-5.5973,-5.581,-5.5653,-5.5409,-5.5409,-5.5409,-5.5409,0.0,0.0,0.0,0.0,0.0,0.0,0.0,0.0,0.0,0.0,0.0,0.0,0.0,0.0,0.0,0.0,0.0,0.0,0.0,0.0,0.0,0.0,0.0,-6.5199,-6.9537,-7.2767,-7.2828,-7.5851,-7.7537,-7.6687,-7.6465,-7.6736,-7.7545,-7.8228,-7.8968,-7.9792,-7.8284,-7.8151,-7.975,-7.7352,-7.6043,-7.6042,-7.5977,-7.4755,-7.2266,-7.2229,-7.1775,-7.097,-7.093,-7.0485,-6.9793,-6.9718,-6.926,-6.8543,-6.8506,-6.8506,-6.8346,-6.6753,-6.5663,-6.4919,-6.4882,-6.4353,-6.3639,-6.3676,-6.4196,-6.4828,-6.4865,-6.5459,-6.6091,-6.6091,-6.5997,-6.5949,-6.6044,-6.5997,-6.5901,-6.5901,-6.5175,-6.4672,-6.5484,-6.488,-6.4398,-6.5271,-6.5404,-6.4851,-6.3403,-6.1307,-5.9207,-5.7205,-5.6874,-5.6874,-5.6874,-5.6874,0.0,-5.784,-5.7943,-5.8219,-5.8944,-5.9012,-5.9012,-5.9012,-5.8357,-5.7706,-5.7119,-5.7049,-5.6549,-5.5358,-5.594,-5.602,-5.5409,-5.5409,-5.5409,-5.5409,0.0,0.0,0.0,0.0,0.0,0.0,0.0,0.0,0.0,0.0,0.0,0.0,0.0,0.0,0.0,0.0,0.0,0.0,0.0,0.0,0.0,-6.788,-6.9571,-6.9579,-7.2894,-7.6049,-7.7898,-8.0589,-8.1968,-8.1002,-8.0872,-8.0656,-8.0152,-8.0805,-8.1113,-8.0773,-8.0312,-7.9984,-7.9827,-7.8207,-7.7188,-7.6882,-7.6554,-7.5552,-7.3907,-7.3335,-7.2927,-7.2643,-7.1435,-7.1139,-7.1427,-7.0227,-6.9569,-6.9298,-6.8729,-6.8506,-6.8468,-6.8011,-6.7677,-6.7439,-6.6807,-6.5729,-6.4568,-6.5199,-6.5162,-6.5013,-6.6239,-6.6388,-6.6091,-6.6091,-6.6044,-6.6044,-6.6091,-6.6489,-6.6786,-6.6192,-6.6208,-6.626,-6.5927,-6.557,-6.5312,-6.5469,-6.5027,-6.4259,-6.3294,-6.1774,-6.0285,-5.9278,-5.8727,-5.8392,-5.8392,-5.8392,-5.8495,-5.8668,-5.8702,-5.8806,-5.8978,-5.9012,-5.9012,-5.9012,-5.8806,-5.8634,-5.8497,-5.8044,-5.7654,-5.7291,-5.6668,-5.602,-5.5409,-5.5409,-5.5409,0.0,0.0,0.0,0.0,0.0,0.0,0.0,0.0,0.0,0.0,0.0,0.0,0.0,0.0,0.0,0.0,0.0,0.0,0.0,0.0,0.0,0.0,-7.1,-7.3519,-7.5335,-7.7626,-7.9752,-8.1594,-8.3811,-8.492,-8.4275,-8.4204,-8.3942,-8.3297,-8.3643,-8.372,-8.3226,-8.2155,-8.1529,-8.1415,-7.9669,-7.8461,-7.8,-7.7522,-7.6638,-7.5378,-7.4688,-7.4257,-7.387,-7.2875,-7.234,-7.2155,-7.118,-7.0549,-7.0165,-6.9732,-6.9286,-6.9,0.0,0.0,0.0,0.0,-6.6249,-6.4976,-6.6175,-6.6286,-6.6091,-6.7391,-6.7503,-6.7168,-6.7503,-6.7391,-6.7131,-6.7131,-6.7465,-6.7725,-6.7243,-6.7109,-6.7098,-6.7035,-6.6593,-6.6297,-6.6579,-6.6026,-6.5175,-6.4359,-6.2855,0.0,-6.0626,-5.9679,-5.9012,-5.9012,-5.9012,-5.9012,-5.9012,-5.9012,-5.9012,-5.9012,-5.9012,-5.9012,-5.9012,-5.8737,0.0,0.0,0.0,-5.7939,-5.7741,-5.6536,0.0,0.0,0.0,-5.5409,-5.5409,-5.5409,0.0,0.0,-5.5733,-5.6025,0.0,0.0,0.0,0.0,0.0,0.0,0.0,0.0,0.0,0.0,0.0,0.0,0.0,0.0,0.0,0.0,-7.4092,-7.7171,-8.1465,-8.2728,-8.3552,-8.4429,-8.5848,-8.6764,-8.6764,-8.6632,-8.6478,-8.6363,-8.6209,-8.6094,-8.6094,-8.3874,0.0,0.0,0.0,-7.9984,-7.953,-7.9026,-7.8085,-7.6792,-7.6266,-7.5574,-7.4741,-7.4703,-7.3907,-7.2503,-7.234,-7.1843,-7.1013,-7.0819,-7.0289,-6.9532,-6.884,-6.8197,-6.7555,-6.755,-6.6658,-6.5561,-6.7086,0.0,0.0,-6.8431,-6.8654,-6.8766,-6.9397,-6.91,-6.8506,-6.8506,-6.8506,-6.8506,-6.8506,-6.7851,-6.7469,-6.8271,-6.7753,-6.7321,-6.8111,-6.7506,-6.6605,-6.5817,-6.4091,-6.2413,-6.1372,-6.003,-5.9081,-5.9012,-5.9012,-5.9012,-5.9012,-5.9012,-5.9012,-5.9012,-5.9012,0.0,-5.9012,-5.8426,-5.8114,-5.8047,-5.8012,-5.7808,-5.7413,-5.6224,-5.5572,-5.5491,-5.5409,-5.5409,-5.5409,-5.5409,-5.5507,-5.5668,-5.6219,-5.6834,0.0,0.0,0.0,0.0,0.0,0.0,0.0,0.0,0.0,0.0,0.0,0.0,0.0,0.0,0.0,-7.4949,-7.7626,-8.073,-8.5024,-8.5759,-8.6196,-8.7047,-8.7461,-8.7874,-8.8455,-8.7819,-8.7319,-8.7242,-8.6517,-8.6094,-8.6094,-8.5022,-8.4478,-8.4651,-8.3464,-8.2624,-8.2163,-8.1368,-8.014,-7.8517,-7.7756,0.0,-7.555,-7.5559,-7.5016,-7.4108,-7.3447,-7.2689,-7.1806,-7.048,-6.9471,-6.8766,-6.926,-6.9335,-6.9223,-6.9235,-6.9026,-6.8803,-6.9137,-6.9249,-6.9286,-6.9434,-6.9472,-6.9397,-6.8877,-6.8617,0.0,-6.8506,-6.8506,-6.8506,-6.8506,-6.8346,-6.8271,-6.8468,-6.8346,-6.8222,-6.8272,-6.716,-6.6038,-6.5755,-6.3617,-6.1784,-6.1548,-6.0406,-5.9351,-5.9081,-5.9012,-5.9012,-5.9012,-5.9012,-5.9012,-5.9012,-5.9012,-5.9012,-5.9012,-5.9145,-5.9143,-5.8806,-5.8806,-5.8703,-5.8458,-5.7413,-5.6614,-5.6179,-5.5653,-5.5409,-5.5409,-5.5409,-5.6025,-5.7158,-5.6705,-5.6575,0.0,0.0,0.0,0.0,0.0,0.0,0.0,0.0,0.0,0.0,0.0,-6.8141,-7.0083,0.0,-7.4949,-7.9056,-8.1401,-8.3824,-8.6842,-8.7615,-8.8041,-8.8493,-8.8157,-8.8196,-8.8931,-8.8171,-8.7564,-8.7583,-8.6313,-8.5511,-8.5555,-8.4714,-8.4253,-8.4279,-8.3824,-8.3478,-8.3247,-8.2176,-8.1265,-8.0586,-7.9126,-7.7942,-7.7014,-7.6604,-7.5973,-7.5139,-7.4323,-7.3766,-7.3283,-7.1635,-7.0448,-6.9769,-7.0623,-7.019,-6.9248,-7.0499,-7.0448,-6.9813,-7.0647,-7.066,-7.04,-7.0809,-7.066,-7.0326,-7.0326,-6.9769,-6.91,-6.91,-6.884,-6.8506,-6.8506,-6.8506,-6.8506,-6.8506,-6.8208,-6.7974,-6.8334,-6.7147,-6.5997,-6.5901,-6.4251,-6.2656,-6.1842,-6.1331,-6.079,-6.0206,-6.0421,-6.0665,-6.0665,-6.0665,-6.0526,-6.0143,-6.0108,-5.9934,-5.9586,-5.9748,-5.9748,-5.9551,-5.9249,-5.9012,-5.8944,-5.8212,-5.7379,-5.6581,-5.6303,-5.6105,-5.596,-5.596,-5.651,-5.7579,-5.7579,-5.7773,0.0,0.0,0.0,0.0,0.0,0.0,0.0,-6.6328,-6.7187,-6.8398,-6.9755,-7.1618,-7.4638,-7.6575,-7.8915,-8.2471,-8.4598,-8.6339,-8.7925,-8.8776,-8.9317,-8.9654,-8.8931,-8.8671,-8.9455,-8.8682,-8.8026,-8.7847,-8.6338,-8.5267,-8.5016,-8.4407,-8.3989,-8.3874,-8.3989,-8.4105,-8.4105,-8.288,-8.2259,-8.2317,-8.0423,-7.9178,-7.8528,-7.7878,-7.7132,-7.6238,-7.5165,-7.4539,-7.4137,-7.2792,-7.1603,-7.0785,-7.1615,-7.0698,-6.9215,-7.1398,-7.1435,-7.0591,-7.1761,-7.1812,-7.1478,-7.1998,-7.1701,-7.1255,-7.1775,-7.0883,-6.9732,-6.9732,-6.9137,-6.8506,-6.8506,-6.8506,-6.8506,-6.8506,-6.8023,-6.7725,-6.8357,-6.7354,-6.6351,-6.6351,-6.5323,-6.398,-6.2621,-6.2702,-6.2581,-6.136,-6.1893,-6.242,-6.242,-6.242,-6.2174,-6.1476,-6.1406,-6.119,-6.0516,-6.0241,-6.0171,-6.0297,-5.9714,-5.9415,-5.9482,-5.8806,-5.8035,-5.7189,-5.7039,-5.6867,-5.6676,-5.6561,-5.7015,-5.7891,-5.8356,-5.8939,-6.5586,-6.4101,-6.4023,-6.5273,-6.6172,-6.7539,0.0,-7.1211,-7.1953,-7.4375,-7.4961,-7.5759,-7.827,-8.0048,-8.1762,-8.367,-8.6029,-8.7963,-8.8931,-8.9124,-8.9743,-9.1251,-9.0633,-9.0439,-9.1329,-9.0527,-8.9658,-8.8884,-8.7842,-8.6585,-8.5074,-8.5504,-8.5472,-8.4791,-8.5445,-8.5824,-8.5824,-8.4983,-8.3945,-8.2817,-8.179,-8.0658,-7.9532,-7.9456,-7.895,-7.7982,-7.609,-7.4387,-7.2949,-7.2429,-7.1292,-6.9904,-7.0746,-7.0896,-7.0791,-7.1812,-7.2532,-7.2927,-7.2369,-7.2592,-7.3001,-7.2369,-7.2109,-7.1923,-7.1255,-7.0437,-6.9732,-6.9732,-6.9137,-6.8506,-6.8506,-6.8506,-6.8506,-6.8506,-6.8431,-6.8394,-6.8506,-6.78,-6.7168,-6.7168,-6.6137,-6.5059,-6.4475,-6.4685,-6.4111,-6.1565,-6.1893,-6.242,-6.242,-6.242,-6.2385,-6.2279,-6.2279,-6.2064,-6.1644,-6.0685,-6.036,-6.0974,-6.0388,-6.0135,-6.0423,-5.9547,-5.8772,-5.7959,-5.7446,-5.7133,-5.7086,-5.689,-5.7525,-5.886,-5.8702,-5.868,-6.793,-6.7031,-6.7031,-6.8242,-7.0,-7.1875,-7.3828,-7.4258,-7.5,-7.7578,-7.8416,-7.9583,-8.2647,-8.3987,-8.5384,-8.7577,-8.8737,-8.9665,-9.0516,-9.0207,-9.0168,-9.0865,-9.0207,-9.0207,-9.1561,-9.0837,-8.9986,-8.9156,-8.7708,-8.6114,-8.4388,-8.4574,-8.4311,-8.3407,-8.4709,-8.5401,-8.5406,-8.4561,-8.3978,-8.3587,-8.1757,-8.0733,-8.0389,-7.9932,-7.8973,-7.7599,-7.6246,-7.4824,-7.3452,-7.2819,-7.1998,-7.1143,-7.0958,-7.0896,-7.0968,-7.1342,-7.1974,-7.2681,-7.2295,-7.2406,-7.2704,-7.2852,-7.2889,-7.2815,-7.2481,-7.1775,-7.1143,-7.1143,-7.0215,-6.9211,-6.9211,-6.8877,-6.8506,-6.8506,-6.8134,-6.7948,-6.8431,-6.7874,-6.7317,-6.7317,-6.6876,-6.6236,-6.5228,-6.5788,-6.5895,-6.4491,-6.4365,-6.4386,-6.4386,-6.4386,-6.4208,-6.3747,-6.3286,-6.2923,-6.2764,-6.1894,-6.1468,-6.1771,-6.1529,-6.1193,-6.0889,-6.1361,-6.0827,-5.9074,-5.9196,-5.906,-5.8412,-5.8162,-5.86,-5.961,-5.935,-5.9263,-6.8867,-6.9101,-6.9765,-7.1094,-7.3555,-7.5976,-7.707,-7.7695,-7.8672,-8.1015,-8.1704,-8.2785,-8.5783,-8.679,-8.7758,-8.9693,-9.04,-9.0826,-9.0981,-9.0671,-9.0246,-8.9782,-8.9201,-8.9317,-9.0516,-9.0478,-8.9908,-8.8931,-8.7765,-8.6259,-8.4265,-8.4073,-8.3649,-8.2676,-8.3901,-8.4555,-8.4522,-8.4138,-8.3978,-8.3971,-8.2401,-8.1516,-8.1246,-8.019,-7.8942,-7.7493,-7.6539,-7.5582,-7.4615,-7.3576,-7.2819,-7.2286,-7.1424,-7.1115,-7.1082,-7.0714,-7.1141,-7.1863,-7.1812,-7.1998,-7.2295,-7.3112,-7.3372,-7.3372,-7.3372,-7.2815,-7.2184,-7.2184,-7.0995,-6.9732,-6.9732,-6.9286,-6.884,-6.884,-6.8394,-6.8134,-6.8729,-6.8394,-6.7986,-6.7986,-6.8134,-6.7951,-6.6691,-6.7195,-6.7564,-6.7004,-6.6666,-6.6446,-6.6446,-6.6268,-6.5911,-6.534,-6.4341,-6.3734,-6.3734,-6.302,-6.2592,-6.2592,-6.2414,-6.2021,-6.145,-6.2485,-6.2174,-6.0186,-6.0912,-6.0802,-5.9845,-5.9597,-5.9741,-6.0152,-5.9892,-5.9902,-6.6758,-6.8203,-7.0117,-7.2617,-7.582,-7.8828,-8.0469,-8.2148,-8.3867,-8.5625,-8.5234,-8.511,-8.6848,-8.7675,-8.8069,-8.8145,-9.014,-9.1097,-8.9511,-8.9936,-8.982,-8.8157,-8.7963,-8.7963,-8.8002,-8.9472,-8.9704,-8.8079,-8.8538,-8.7785,-8.5188,-8.4982,-8.4535,-8.3593,-8.3593,-8.3632,-8.3632,-8.4439,-8.4439,-8.3593,-8.4401,-8.3901,-8.2208,-8.0523,-7.9292,-7.8408,-7.7131,-7.6585,-7.6394,-7.4665,-7.349,-7.2736,-7.1907,-7.1589,-7.1419,-7.0189,-7.0223,-7.0958,-7.0958,-7.1478,-7.2295,-7.3112,-7.3372,-7.3372,-7.3372,-7.2815,-7.2184,-7.2184,-7.0995,-6.9732,-6.9732,-6.9694,-6.9694,-6.9694,-6.9657,-6.9657,-6.9694,-6.9657,-6.9657,-6.9657,-7.0289,-7.0517,-6.9535,-6.9398,-6.914,-6.8213,-6.8016,-6.8016,-6.8016,-6.741,-6.6946,-6.691,-6.5518,-6.459,-6.459,-6.3841,-6.3341,-6.3341,-6.2699,-6.2271,-6.2235,-6.2307,-6.1965,-6.116,-6.1932,-6.1918,-6.112,-6.0897,-6.0665,-6.0378,-6.0152,-6.0337,-6.918,-7.1523,-7.4219,-7.625,-7.8906,-8.1484,-8.3203,-8.4023,-8.4961,-8.6719,-8.4414,-8.2651,-8.449,-8.435,-8.4531,-8.6223,-8.8566,-9.014,-9.0014,-9.0246,-8.9549,-8.7306,-8.7035,-8.6803,-8.6223,-8.7731,-8.8737,-8.8776,-8.898,-8.819,-8.6075,-8.593,-8.5213,-8.3632,-8.417,-8.4478,-8.4478,-8.417,-8.417,-8.4439,-8.3593,-8.2862,-8.2247,-8.0554,-7.9323,-7.8438,-7.747,-7.6568,-7.5671,-7.4524,-7.3717,-7.3065,-7.1706,-7.1174,-7.1017,-7.0042,-7.0226,-7.0917,-7.0608,-7.088,-7.1478,-7.2332,-7.2592,-7.2666,-7.3224,-7.2815,-7.2295,-7.2852,-7.2184,-7.1366,-7.1366,-7.0549,-6.9843,-7.04,-7.0103,-6.988,-7.04,-7.0512,-7.0512,-7.0512,-7.0735,-7.068,-7.011,-7.012,-7.0132,-6.9721,-6.8766,-6.8088,-6.8088,-6.7873,-6.7731,-6.7731,-6.7231,-6.6731,-6.6232,-6.5946,-6.534,-6.4269,-6.4448,-6.4126,-6.3056,-6.4055,-6.3989,-6.2705,-6.3442,-6.3238,-6.1907,-6.1638,-6.1132,-6.041,-6.0642,-6.0825,-7.168,-7.4414,-7.7226,-7.8945,-8.1094,-8.3047,-8.4179,-8.4922,-8.5508,-8.6015,-8.3554,-8.1523,-8.2109,-8.1573,-8.1694,-8.3615,-8.5521,-8.7301,-8.8903,-8.8594,-8.7782,-8.6726,-8.6339,-8.5913,-8.5333,-8.6068,-8.7035,-8.8196,-8.8544,-8.8063,-8.6491,-8.6075,-8.5244,-8.3632,-8.4132,-8.417,-8.3555,-8.3901,-8.4478,-8.5286,-8.3285,-8.2285,-8.2247,-8.0246,-7.9208,-7.89,-7.8092,-7.7239,-7.6355,-7.5073,-7.4328,-7.3916,-7.2281,-7.1825,-7.1977,-7.1284,-7.1324,-7.1598,-7.0997,-7.1116,-7.1689,-7.2383,-7.2629,-7.2704,-7.3224,-7.3038,-7.2741,-7.3224,-7.2815,-7.2184,-7.2184,-7.1403,-7.0735,-7.1255,-7.0958,-7.0735,-7.1255,-7.1366,-7.1366,-7.1366,-7.1589,-7.1569,-7.09,-7.0701,-7.0626,-7.0475,-6.9622,-6.8944,-6.8944,-6.8694,-6.8516,-6.8516,-6.8266,-6.7909,-6.741,-6.7374,-6.6946,-6.5911,-6.6089,-6.5768,-6.4733,-6.5411,-6.5326,-6.4301,-6.4796,-6.4253,-6.2676,-6.2523,-6.1904,-6.0889,-6.1175,-6.1401,-7.414,-7.6719,-7.9023,-8.0703,-8.2383,-8.3594,-8.3594,-8.4883,-8.5586,-8.3828,-8.2617,-8.1367,-7.9648,-7.9258,-7.957,-8.0586,-8.1524,-8.3266,-8.6528,-8.5601,-8.5087,-8.6494,-8.5991,-8.5488,-8.5449,-8.4714,-8.4908,-8.661,0.0,-8.7456,-8.6577,-8.5689,-8.4781,-8.3747,-8.3708,-8.2939,-8.1323,-8.3747,-8.5286,-8.594,-8.3516,-8.2324,-8.2208,-7.9746,-7.9054,-7.9746,-7.8938,-7.8515,-7.8331,-7.6284,-7.5421,-7.5191,-7.3552,-7.3399,-7.404,-7.3629,-7.33,-7.2872,-7.2033,-7.2215,-7.2875,-7.3242,-7.3387,-7.3335,-7.3372,-7.3372,-7.3335,-7.3372,-7.2852,-7.2258,-7.2258,-7.2221,-7.2184,-7.2221,-7.2221,-7.2184,-7.2221,-7.2258,-7.2295,-7.2258,-7.2852,-7.3017,-7.213,-7.1211,-7.0585,-7.0621,-7.0621,-7.0585,-7.0514,-6.9836,-6.9372,-6.9372,-6.8694,-6.8195,-6.8159,-6.8195,-6.8195,-6.8088,-6.7481,-6.7088,-6.7053,-6.6268,-6.5875,-6.5875,-6.5839,-6.5043,-6.3466,-6.3427,-6.2931,-6.189,-6.1731,-6.2255,-7.7694,-7.9375,-8.0781,-8.25,-8.3281,-8.3594,-8.3594,-8.3945,-8.3789,-8.2031,-7.8945,-7.6015,-7.4297,-7.5,-7.6719,-7.9414,-8.3118,-8.6612,-8.9331,-8.9745,-8.9212,-8.777,-8.7963,-8.7963,-8.7306,-8.6455,-8.6687,-8.8389,-8.7538,-8.7301,-8.8197,-8.7426,-8.6485,-8.5478,-8.5478,-8.4978,-8.3939,-8.517,-8.5286,-8.4209,-8.3593,-8.2939,-8.2247,-8.1016,-8.0208,-7.9785,-7.9592,-7.9092,-7.8477,-7.7885,-7.6932,-7.578,-7.5357,-7.4551,-7.3629,-7.3563,-7.3803,-7.4183,-7.3642,-7.3144,-7.2808,-7.2895,-7.2757,-7.2592,-7.3187,-7.2964,-7.2629,-7.3224,-7.3224,-7.3075,-7.3075,-7.2629,-7.2332,-7.2927,-7.2629,-7.2332,-7.2927,-7.3558,-7.3781,-7.3187,-7.2614,-7.2395,-7.2741,-7.204,-7.1585,-7.212,-7.2227,-7.1799,-7.0657,-7.0336,-7.0193,-7.0193,-7.0015,-6.9658,-6.9051,-6.9551,-6.9372,-6.8159,-6.848,-6.8444,-6.7838,-6.7088,-6.6696,-6.6696,-6.6125,-6.5278,-6.4288,-6.4273,-6.3674,-6.2665,-6.3153,-6.3293,-8.0702,-8.1758,-8.2383,-8.3359,-8.332,-8.2734,-8.1601,-8.164,-8.1094,-7.8203,-7.539,-7.293,-7.1172,-7.2617,-7.4883,-7.75,-8.1516,-8.5522,-8.9127,-8.9269,-8.898,-8.9008,-8.9124,-8.9008,-8.8505,-8.7693,-8.7731,-8.9085,-8.7925,-8.7649,-8.8853,-8.8082,-8.6948,-8.5632,-8.594,-8.5901,-8.544,-8.5517,-8.5286,-8.467,-8.3939,-8.3555,-8.3401,-8.1823,-8.1016,-8.09,-8.0516,-7.9862,-7.9015,-7.8284,-7.74,-7.6476,-7.5745,-7.5091,-7.4591,-7.4591,-7.4899,-7.5255,-7.4996,-7.4371,-7.3608,-7.3387,-7.3041,-7.2778,-7.3261,-7.3075,-7.2815,-7.3261,-7.3372,-7.3372,-7.3372,-7.3038,-7.2815,-7.3261,-7.3298,-7.3372,-7.3818,-7.4264,-7.4397,-7.37,-7.323,-7.302,-7.328,-7.2669,-7.2298,-7.2727,-7.2798,-7.2477,-7.162,-7.1228,-7.0907,-7.055,-7.0514,-7.0336,-6.9872,-7.0229,-7.0122,-6.9194,-6.9586,-6.9622,-6.9158,-6.8088,-6.7659,-6.8016,-6.6553,-6.5764,-6.5654,-6.4901,-6.4376,-6.4098,-6.4022,-6.3998,-8.328,-8.3867,-8.3789,-8.3789,-8.3047,-8.164,-7.9062,-7.8867,-7.8008,-7.3828,-7.2265,-7.1133,-6.9375,-7.1211,-7.3672,-7.5898,-7.8896,-8.278,-8.7909,-8.7224,-8.7251,-9.0207,-8.9975,-8.9511,-8.9511,-8.8737,-8.8582,-8.9472,-8.8737,-8.8422,-8.8892,-8.8082,-8.6794,-8.5093,-8.5517,-8.5901,-8.6094,-8.5401,-8.5363,-8.594,-8.4478,-8.4055,-8.4478,-8.2285,-8.1593,-8.2093,-8.14,-8.0669,-7.9862,-7.84,-7.7746,-7.7476,-7.5822,-7.5592,-7.6169,-7.6169,-7.6092,-7.6015,-7.613,-7.5566,-7.4667,-7.4243,-7.3838,-7.3521,-7.341,-7.3521,-7.367,-7.3558,-7.3632,-7.3707,-7.3707,-7.3632,-7.3558,-7.367,-7.4153,-7.4635,-7.4747,-7.4747,-7.464,-7.4216,-7.4226,-7.4196,-7.3796,-7.3291,-7.3012,-7.3083,-7.3119,-7.3083,-7.2976,-7.2298,-7.1585,-7.0871,-7.0728,-7.0657,-7.0657,-7.055,-7.0514,-7.0514,-7.0514,-7.0514,-7.0514,-6.9051,-6.8587,-6.9301,-6.7195,-6.6403,-6.7095,-6.56,-6.5147,-6.5725,-6.466,-6.4383,-8.5234,-8.5234,-8.4687,-8.4687,-8.3476,-8.164,-7.9062,-7.75,-7.5547,-7.1914,-7.0508,-6.9414,-6.7656,-6.9414,-7.2656,-7.7305,-8.0186,-8.3888,-8.9656,-9.0024,-9.014,-9.1329,-9.1367,-9.1251,-9.1251,-9.0478,-9.0323,0.0,-9.0478,-8.9648,-8.893,-8.8082,-8.7063,-8.594,-8.467,-8.4709,-8.6094,-8.5978,-8.5632,-8.5093,-8.4824,-8.4016,-8.2747,-8.2285,-8.1823,-8.1285,-8.117,-8.1016,-8.0862,-8.0554,-8.0015,-7.9246,-7.8246,-7.7515,-7.7053,-7.7053,-7.663,-7.6092,-7.6823,-7.6268,-7.5129,-7.4708,-7.4498,-7.4264,-7.3595,-7.4301,-7.523,-7.4561,-7.4858,-7.5378,-7.5378,-7.4896,-7.4561,-7.523,-7.497,-7.4784,-7.5453,-7.5564,-7.5679,-7.5859,-7.5055,-7.4315,-7.4519,-7.4115,-7.4047,-7.4689,-7.4796,-7.4547,-7.3904,-7.3083,-7.2548,-7.2405,-7.187,-7.1478,-7.1478,-7.0871,-7.0514,-7.0514,-7.0514,-7.0514,-7.0514,-6.9586,-6.9158,-6.9301,-6.8266,-6.7772,-6.7888,-6.6865,-6.6488,-6.6529,-6.5593,-6.5024,-8.7031,-8.6875,-8.6054,-8.5117,-8.3242,-8.0703,-7.7265,-7.5117,-7.289,-6.9414,-6.8437,-6.789,-6.7031,-6.9336,-7.2344,-7.5312,-7.8203,-8.1964,-8.7428,-8.8054,-8.8875,-9.1406,-9.1716,-9.1716,-9.1716,-9.1329,-9.1251,-9.1677,-9.1329,-9.0847,-9.0242,-8.8451,-8.6884,-8.5517,-8.4709,-8.467,-8.5478,-8.5901,-8.5901,-8.5517,-8.5517,-8.5093,-8.4247,-8.3362,-8.2516,-8.1708,-8.1285,-8.0823,-8.0439,-8.0439,-8.0169,-7.9708,-7.8823,-7.8246,-7.79,-7.79,-7.7669,-7.7284,-7.7284,-7.6722,-7.5888,-7.5471,-7.5141,-7.4885,-7.4703,-7.5193,-7.5713,-7.5304,-7.549,-7.5787,-7.5787,-7.549,-7.5304,-7.5713,-7.5824,-7.601,-7.6382,-7.679,-7.694,-7.6412,-7.5935,-7.5479,-7.5386,-7.494,-7.4761,-7.5153,-7.5225,-7.5082,-7.4689,-7.4297,-7.3583,-7.237,-7.2227,-7.212,-7.1727,-7.1335,-7.1121,-7.1121,-7.1121,-7.0942,-7.0514,-7.0157,-6.9943,-6.9943,-6.873,-6.8279,-6.8646,-6.7377,-6.6814,-6.6711,-6.5808,-6.5445,-8.7812,-8.7851,-8.707,-8.5351,-8.2929,-7.9883,-7.5586,-7.3125,-7.0781,-6.7578,-6.6914,-6.6914,-6.6914,-6.9101,-7.1367,-7.2773,-7.5195,-7.8813,-8.4377,-8.5225,-8.677,-9.0942,-9.1406,-9.1484,-9.1677,-9.1522,0.0,-9.1677,-9.1494,-9.1213,-9.0859,-8.8463,-8.6517,-8.5209,-8.4978,-8.4978,-8.517,-8.5786,-8.6094,-8.6094,-8.594,-8.5747,-8.5517,-8.4016,-8.2862,-8.2016,-8.1362,-8.0708,-8.0092,-8.0092,-8.0092,-7.9977,-7.9131,-7.8784,-7.8784,-7.8784,-7.8554,-7.8207,-7.7938,-7.7361,-7.6717,-7.6498,-7.6029,-7.5604,-7.5723,-7.6047,-7.6307,-7.6121,-7.6196,-7.6344,-7.6344,-7.6196,-7.6084,-7.6084,-7.6716,-7.7347,-7.7347,-7.783,-7.7942,-7.6781,-7.6606,-7.6534,-7.6072,-7.555,-7.5225,-7.5225,-7.5225,-7.5225,-7.5225,-7.5225,-7.444,-7.2405,-7.2727,-7.2834,-7.2227,-7.187,-7.1763,-7.1906,-7.1799,-7.1406,-7.08,-7.0764,-7.0693,-7.0514,-6.9265,-6.8854,-6.9235,-6.7746,-6.6919,-6.6711,-6.5968,-6.5865,-8.6406,-8.6953,-8.707,-8.5351,-8.2929,-7.9883,-7.5586,-7.2656,-7.0078,-6.7422,-6.6914,-6.6914,-6.6914,-6.7148,-6.8398,-7.1601,-7.2383,-7.5103,-8.2389,-8.4061,-8.5998,-9.0052,-9.0516,-9.0826,-9.1638,-9.0981,-9.0865,-9.1638,-9.0836,-9.0003,-8.9162,-8.7269,-8.617,-8.5978,-8.5286,-8.5247,-8.5978,-8.6055,-8.6094,-8.6094,-8.5363,-8.4593,-8.3785,-8.2862,-8.1977,-8.1208,-8.1131,-8.1054,-8.0977,-8.0977,-8.0977,-8.09,-8.0015,-7.9669,-7.9669,-7.9669,-7.8707,-7.763,-7.9054,-7.8523,-7.7323,-7.7946,-7.7349,-7.6316,-7.5909,-7.6865,-7.7905,-7.7162,-7.7496,-7.8053,-7.8053,-7.7533,-7.6976,-7.6976,-7.757,-7.8165,-7.8165,-7.8239,-7.8127,-7.7518,-7.7009,-7.6534,-7.6072,-7.555,-7.5225,-7.5225,-7.5225,-7.5225,-7.5225,-7.5225,-7.4868,-7.3904,-7.3869,-7.3869,-7.3797,-7.2513,-7.1977,-7.2655,-7.2049,-7.1656,-7.1585,-7.1585,-7.1228,-7.0514,-7.0336,-6.9954,-6.9235,-6.8301,-6.7513,-6.6711,-6.6501,-6.6362,-8.6406,-8.7226,-8.7226,-8.5976,-8.2187,-7.8125,-7.5898,-7.2187,-6.875,-6.7226,-6.6914,-6.6914,-6.6914,-6.6914,-6.7344,-6.8711,-6.8945,-7.0857,-7.6336,-7.7304,-7.9739,-8.591,-8.6621,-8.7538,0.0,0.0,-8.9792,-9.0074,-8.9686,-8.9015,-8.8097,-8.7314,-8.644,-8.5401,-8.5555,-8.5555,-8.5401,-8.5863,-8.6094,-8.6094,-8.5786,-8.5209,-8.4362,-8.3478,-8.2362,-8.1093,-8.1093,-8.0785,-8.0362,-8.09,-8.1093,-8.1054,-8.0708,-8.0592,-8.0592,-8.0592,-8.0169,-7.9592,-7.9746,-7.9361,-7.8737,-7.8519,-7.8063,-7.7597,-7.7356,-7.7756,-7.8202,-7.7905,-7.8053,-7.8276,-7.8276,-7.8053,-7.7793,-7.7793,-7.8053,-7.8276,-7.8276,-7.8276,-7.8221,-7.8014,-7.7292,-7.6664,-7.6469,-7.5726,-7.5225,-7.5225,-7.5225,-7.5225,-7.5225,-7.5225,-7.5082,-7.4761,-7.4725,-7.4547,-7.4047,-7.344,-7.3226,-7.3512,-7.3262,-7.2655,-7.1727,-7.212,-7.1763,-7.0514,-7.0514,-6.9849,-6.8447,-6.8137,-6.7496,-6.6589,-6.6533,-6.6891,-8.4531,-8.5937,-8.6523,-8.5664,-8.1289,-7.6914,-7.5781,-7.1719,-6.7969,-6.707,-6.6914,-6.6914,-6.6914,-6.6914,-6.6914,-6.6914,-6.6914,-6.8242,-7.2187,-7.283,-7.5232,-8.1556,0.0,-8.394,-8.7345,-8.8555,-8.9107,-8.8982,-8.866,-8.8213,-8.75,-8.7166,-8.6478,-8.5286,-8.5786,-8.5824,-8.5247,-8.5824,-8.5978,-8.5747,-8.5478,-8.4939,-8.4093,-8.3247,-8.2208,-8.1093,-8.1093,-8.0746,-8.0246,-8.0862,-8.1093,-8.1093,-8.1093,-8.1093,-8.1093,-8.1093,-8.0939,-8.0669,-8.0323,-7.9915,-7.9489,-7.8973,-7.8712,-7.8557,-7.8379,-7.8276,-7.8276,-7.8276,-7.8276,-7.8351,-7.8573,-7.8462,-7.8276,-7.8276,-7.8276,-7.8276,-7.8276,-7.8276,-7.8221,-7.8071,-7.7292,-7.6664,-7.6534,-7.5796,-7.5225,-7.5225,-7.5225,-7.5225,-7.5225,-7.5225,-7.5225,-7.5225,-7.5225,-7.4975,-7.4404,-7.4154,-7.4118,-7.4368,-7.4154,-7.3405,-7.2084,-7.2513,-7.2084,-7.055,-7.0514,-6.992,-6.8717,-6.8483,-6.7974,-6.7268,-6.714,-6.7943,-7.9765,-8.2304,-8.4726,-8.3828,-8.039,-7.6758,-7.5,-7.1289,-6.7969,-6.707,-6.6914,-6.6914,-6.6914,-6.6914,-6.6914,-6.6914,-6.6914,-6.8047,-7.1367,-7.245,-7.4119,0.0,0.0,-8.0382,-8.3824,-8.7097,-8.8982,-8.8892,-8.8058,0.0,-8.7401,-8.6594,-8.6094,-8.6094,-8.6094,-8.6094,-8.6094,-8.6094,-8.5709,-8.4901,-8.4055,-8.317,-8.2285,-8.1477,-8.1131,-8.1093,-8.1093,-8.1093,-8.1093,-8.1093,-8.1093,-8.1093,-8.1093,-8.1093,-8.1093,-8.1093,-8.0554,-7.9939,-8.0785,-8.0213,-7.9171,-7.9533,-7.9395,-7.8904,-7.8458,-7.8276,-7.8276,-7.8276,-7.8276,-7.8462,-7.9279,-7.8871,-7.8276,-7.8276,-7.8276,-7.8276,-7.8276,-7.8276,-7.8165,-7.7629,-7.7045,-7.6534,-7.6072,-7.555,-7.5225,-7.5225,-7.5225,-7.5225,-7.5225,-7.5225,-7.5225,-7.5225,-7.5225,-7.5225,-7.5189,-7.4475,-7.4368,-7.5153,-7.444,-7.3654,-7.2798,-7.2798,-7.2084,-7.055,-7.0514,-7.0487,-7.0359,-6.9515,-6.9008,-6.8944,-6.8769,-6.9372,-7.6797,-7.8359,-7.957,-7.9297,-7.5976,-7.2773,-7.2812,-6.9961,-6.7226,-6.6953,-6.6914,-6.6914,-6.6914,-6.6914,-6.6914,-6.6914,-6.6914,-6.7258,-6.8297,-7.052,0.0,-7.6621,-8.1296,-8.4611,0.0,0.0,-8.7215,-8.7095,-8.6794,-8.6576,-8.6517,-8.6247,-8.6094,-8.6094,-8.6094,-8.6094,-8.6094,-8.6094,-8.5709,-8.4901,-8.4632,-8.3708,-8.2285,-8.2054,-8.1631,-8.1093,-8.1093,-8.1093,-8.1093,-8.1093,-8.1093,-8.1093,-8.1093,-8.1093,-8.1093,-8.1093,-8.0939,-8.0746,-8.1016,-8.0596,-7.9972,-7.9761,-7.9395,-7.8904,-7.8404,-7.8276,-7.8276,-7.8276,-7.8276,-7.8351,-7.8611,-7.8462,-7.8276,-7.8276,-7.8276,-7.8276,-7.8276,-7.8276,-7.8165,-7.7629,-7.7045,-7.6534,-7.6072,-7.555,-7.5403,-7.5938,-7.5546,-7.5403,-7.5938,-7.5546,-7.5225,-7.5225,-7.5225,-7.5225,-7.5225,-7.4975,-7.4939,-7.5189,-7.4975,-7.4225,-7.2869,-7.3333,-7.2905,-7.1335,-7.1834,-7.1801,-7.1201,-7.0278,-6.9509,-6.8802,-6.9789,-7.0461,-7.3476,-7.5039,-7.6211,-7.6211,-7.3437,-7.0859,-7.1406,-6.9101,-6.6914,-6.6914,-6.6914,-6.6914,-6.6914,-6.6914,-6.6914,-6.6914,-6.6914,-6.7132,-6.7747,-7.0006,0.0,-7.6637,0.0,0.0,0.0,-8.5892,-8.6414,-8.6184,-8.6191,-8.6159,-8.6094,-8.6094,-8.6094,-8.6094,-8.6094,-8.6094,-8.6094,-8.6094,-8.5517,-8.4401,-8.4401,-8.367,-8.2285,-8.1977,-8.1747,-8.1554,-8.1246,-8.1093,0.0,-8.1093,-8.1093,-8.1093,-8.1093,-8.1093,-8.1093,-8.1093,-8.1093,-8.1093,-8.1093,-8.0685,-8.0083,-7.9794,-7.9256,-7.8723,-7.8721,-7.8722,-7.8796,-7.9094,-7.8982,-7.8796,-7.9131,-7.8759,-7.8276,-7.8276,-7.8276,-7.8351,-7.8685,-7.8499,-7.8182,-7.7794,-7.7395,-7.6941,-7.6264,-7.6086,-7.6259,-7.6723,-7.6152,-7.5831,-7.6331,-7.5688,-7.5225,-7.5225,-7.5225,-7.5225,-7.5225,-7.5225,-7.5225,-7.5225,-7.5225,-7.4618,-7.3298,-7.3761,-7.3405,-7.212,-7.2548,-7.2547,-7.1974,-7.1304,-7.0487,-6.9566,-7.0759,-7.1455,0.0,-7.2265,-7.414,-7.4062,-7.2226,-7.043,-7.043,-6.8594,0.0,-6.6914,-6.6914,-6.6914,-6.6914,-6.6914,-6.6914,-6.6914,-6.6914,-6.7484,-6.9083,-7.0887,0.0,0.0,-8.0266,0.0,-8.2637,-8.4908,-8.6354,-8.6184,-8.6126,-8.6094,-8.6094,-8.6094,-8.6094,-8.6094,-8.6094,-8.6094,-8.6094,-8.6094,-8.5247,-8.3593,-8.3593,-8.3093,-8.217,-8.1439,-8.1516,-8.217,-8.14,-8.1093,-8.1093,-8.1093,-8.1093,-8.1093,-8.1093,-8.1093,-8.1093,-8.1093,-8.1093,-8.1093,-8.1093,-8.0542,-7.9784,-7.9696,-7.9079,-7.8499,-7.9205,-7.9391,-7.9576,-8.0394,-8.0022,-7.9576,-8.032,-7.9465,-7.8388,-7.8388,-7.8388,-7.8611,-7.9391,-7.8945,-7.8348,-7.8153,-7.8041,-7.771,-7.6732,-7.7045,-7.7508,-7.758,-7.6937,-7.6474,-7.6474,-7.5831,-7.5332,-7.5296,-7.5332,-7.5332,-7.5296,-7.5225,-7.5225,-7.5225,-7.5225,-7.4868,-7.4047,-7.4083,-7.3726,-7.2905,-7.2941,-7.2864,-7.2809,-7.2433,-7.1867,-7.0991,-7.172,-7.2448,-6.7695,0.0,-6.9531,-6.8867,-6.8242,-6.7773,0.0,-6.7344,-6.6914,-6.6914,-6.6914,-6.6914,-6.6914,-6.6914,-6.6914,-6.6914,-6.6914,-6.7253,-6.8316,-7.3122,0.0,-8.0266,-8.3386,-8.4607,-8.2747,-8.4781,-8.6223,-8.6126,-8.6094,-8.6094,-8.6094,-8.6094,-8.6094,-8.6094,-8.6094,-8.6094,-8.6094,-8.6094,-8.5247,-8.3593,-8.3593,-8.2824,-8.1362,-8.1208,-8.1208,-8.1362,-8.117,-8.1093,-8.1093,-8.1093,-8.1093,-8.1093,-8.1093,-8.1093,-8.1093,-8.1093,-8.1093,-8.1093,-8.1093,-8.0886,-8.0522,-7.9791,-7.9389,-7.9131,-7.8685,-7.8573,-7.8722,-7.9539,-7.9205,-7.8611,-7.8796,-7.9019,-7.9205,-7.9205,-7.9205,-7.9428,-8.0245,-7.9799,-7.9257,-7.9498,-7.9105,-7.8644,-7.8026,-7.7663,-7.7723,-7.8329,-7.7758,-7.7223,-7.7223,-7.708,-7.6723,-7.6188,-7.6616,-7.6723,-7.6152,-7.5546,-7.5225,-7.5225,-7.5225,-7.4868,-7.4047,-7.4618,-7.4547,-7.3761,-7.4332,-7.4193,-7.3372,-7.3293,-7.2711,-7.1753,-7.2515,-7.2945,-6.6914,-6.7226,-6.75,-6.7031,-6.6914,-6.6914,-6.6914,-6.6914,-6.6914,-6.6914,-6.6914,-6.6914,-6.6914,-6.6914,-6.6914,-6.6914,-6.7226,-6.8316,0.0,0.0,-7.8619,-8.1748,-8.368,-8.459,0.0,-8.5406,-8.6153,-8.6094,-8.6094,-8.6094,-8.6094,-8.6094,-8.6094,-8.6094,-8.6094,-8.6094,-8.6094,-8.6094,-8.5247,-8.3593,-8.3593,-8.2901,-8.1631,-8.1285,-8.1285,-8.1631,-8.1246,-8.1093,-8.1093,-8.1093,-8.1093,-8.1093,-8.1093,-8.1093,-8.1093,-8.1093,-8.1093,-8.1093,-8.1093,-8.0771,-8.025,-7.9701,-7.9242,-7.8982,-7.9316,-7.9131,-7.8945,-7.9354,-7.9428,-7.9391,-7.9391,-7.9837,-8.0246,-8.0246,-8.0356,-8.0688,-8.151,-8.1062,-8.0525,-8.0873,-8.0627,-8.0194,-7.9412,-7.9285,-7.9323,-7.9379,-7.8771,-7.8269,-7.8044,-7.7798,-7.7405,-7.6937,-7.7259,-7.7187,-7.6438,-7.601,-7.5581,-7.5225,-7.5225,-7.501,-7.4582,-7.4975,-7.5189,-7.5118,-7.5458,-7.5133,-7.4188,-7.3719,-7.3172,-7.2515,-7.2912,-7.3276,-6.6914,-6.6992,-6.707,-6.6914,-6.6914,-6.6914,-6.6914,-6.6914,-6.6914,-6.6914,-6.6914,-6.6914,-6.6914,-6.6992,-6.7109,-6.7109,-6.8047,0.0,-7.437,-7.6352,-7.8689,-8.2168,-8.3007,0.0,-8.5452,-8.5953,-8.6159,-8.6094,-8.6094,-8.6055,-8.594,-8.6017,-8.6055,-8.594,-8.6055,-8.6055,-8.594,-8.594,-8.5132,-8.3593,-8.3478,-8.2939,-8.2093,-8.14,-8.1477,-8.2093,-8.14,-8.1093,-8.1093,-8.1093,-8.1093,-8.1093,-8.1093,-8.1093,-8.1093,-8.1093,-8.1093,-8.1131,-8.108,-8.0507,-7.9743,-7.9535,-7.9094,-7.8871,-8.0134,-8.0134,-7.9688,-7.9688,-8.0171,-8.0691,-8.0691,-8.0991,-8.1286,-8.1286,-8.1537,-8.197,-8.2796,-8.2345,-8.1867,-8.2257,-8.224,-8.1822,-8.0597,-8.099,-8.1087,-8.0179,-7.9751,-7.9356,-7.8838,-7.8448,-7.8019,-7.7762,-7.7794,-7.7544,-7.6795,-7.6759,-7.6367,-7.5439,-7.526,-7.526,-7.5367,-7.551,-7.5867,-7.6545,-7.6427,-7.5894,-7.4981,-7.4184,-7.3575,-7.3276,-7.3276,-7.3575,-6.6914,-6.7422,-6.7812,-6.707,-6.6914,-6.6914,-6.6914,-6.6914,-6.6914,-6.6914,-6.6914,-6.6914,-6.6914,-6.75,-6.8008,0.0,0.0,-7.284,0.0,0.0,-8.0396,-8.1465,0.0,-8.5081,-8.3179,-8.4889,-8.6094,-8.6094,-8.6094,-8.5786,-8.5132,-8.5747,-8.5786,-8.5132,-8.5747,-8.5786,-8.5093,-8.5093,-8.4593,-8.3593,-8.2862,-8.2054,-8.1285,-8.117,-8.117,-8.1285,-8.1131,-8.1093,-8.1093,-8.1093,-8.1093,-8.1093,-8.1093,-8.1093,-8.1093,-8.1093,-8.1093,-8.1074,-8.1001,-8.0553,-8.0017,-7.965,-7.9874,-8.0245,-7.9799,-8.0059,-8.0505,-8.0505,-8.058,-8.0691,-8.0691,-8.1438,-8.222,-8.222,-8.2398,-8.2834,-8.3622,-8.3171,-8.2834,-8.357,-8.3358,-8.2607,-8.1218,-8.122,-8.0939,-7.9647,-7.9969,-8.0077,-7.9284,-7.9566,-7.9562,-7.8881,-7.9191,-7.9221,-7.8401,-7.8329,-7.7723,-7.6295,-7.5581,-7.551,-7.6188,-7.683,-7.7223,-7.733,-7.7286,-7.679,-7.574,-7.5564,-7.4975,-7.4005,-7.4005,-7.4072,-6.6914,-6.7187,-6.7383,-6.6992,-6.7265,-6.7461,-6.6992,-6.6914,-6.6914,-6.6914,-6.6914,-6.7031,-6.7539,0.0,-6.9453,-7.1367,0.0,-7.5048,-7.7738,-7.8786,-7.9958,0.0,0.0,-8.4319,-8.4388,-8.5434,-8.6094,-8.6094,-8.6094,-8.5747,-8.4939,-8.5247,-8.5286,-8.4901,-8.4786,-8.4786,-8.4901,-8.3978,-8.3285,-8.2901,-8.2477,-8.1862,-8.1093,-8.1093,-8.1093,-8.1093,-8.1093,-8.1093,-8.1093,-8.1093,-8.1093,-8.1093,-8.1093,-8.1093,-8.1093,-8.1093,-8.1195,-8.1262,-8.049,-8.0226,-8.0104,-7.9687,-7.9725,-8.0059,-8.0134,-8.0394,-8.086,-8.1476,-8.1587,-8.1587,-8.1587,-8.257,-8.3486,-8.3486,-8.3728,-8.4039,-8.4417,-8.4228,-8.4039,-8.4417,-8.4306,-8.3704,-8.2394,-8.2191,-8.1791,-8.0334,-8.0514,-8.0586,-8.0005,-8.0292,-8.029,-7.9669,-7.9916,-7.9732,-7.8757,-7.8686,-7.8186,-7.708,-7.6259,-7.6188,-7.6973,-7.7723,-7.8151,-7.8151,-7.8579,-7.7999,-7.6499,-7.6085,-7.5297,-7.4171,-7.3773,-7.3807,-6.6914,-6.7031,-6.7148,-6.6953,-6.7383,-6.7812,-6.7539,-6.75,-6.7617,-6.8008,-6.793,-6.793,-6.8437,-6.9336,0.0,-7.4375,-7.582,-7.7185,-7.9093,-7.9172,-8.0161,-8.3218,-8.3316,-8.3894,-8.5901,-8.6094,-8.6094,-8.6094,-8.594,-8.5478,-8.4632,-8.4593,-8.4516,-8.4286,-8.3824,-8.3824,-8.4286,-8.2978,-8.2285,-8.2285,-8.2093,-8.1708,-8.1093,-8.1093,-8.1093,-8.1093,-8.1093,-8.1093,-8.1093,-8.1093,-8.1093,-8.1093,-8.1093,-8.1093,-8.1093,-8.1093,-8.1103,-8.1039,-8.0064,-7.983,-7.9949,-7.9409,-7.9465,-7.9874,-8.0619,-8.0953,-8.1308,-8.2444,-8.2832,-8.2832,-8.2777,-8.3599,-8.4405,-8.4405,-8.4675,-8.4901,-8.4901,-8.4901,-8.4901,-8.4901,-8.4901,-8.4503,-8.3172,-8.3,-8.2499,-8.1048,-8.0947,-8.0948,-8.0656,-8.0656,-8.0582,-8.0283,-8.0207,-7.9804,-7.9043,-7.8793,-7.8508,-7.8079,-7.7366,-7.7187,-7.7758,-7.8543,-7.8972,-7.8972,-7.9578,-7.8917,-7.7016,-7.643,-7.5467,-7.4171,-7.3608,-7.3641,-6.6914,-6.75,-6.789,-6.7109,-6.6953,-6.7383,-6.8867,-6.9219,-6.9687,-7.1289,-7.0976,-7.0234,-6.9531,-7.0742,-7.2695,-7.5351,-7.7226,-7.936,-8.2403,0.0,-8.2753,-8.5767,-8.5419,-8.5244,-8.6017,-8.6094,-8.6094,-8.6094,-8.5401,-8.4593,-8.3747,-8.367,-8.3324,-8.2516,-8.3208,-8.3247,-8.2477,-8.2362,-8.2285,-8.2285,-8.1554,-8.117,-8.1093,-8.1093,-8.1093,-8.1093,-8.1093,-8.1093,-8.1093,-8.1093,-8.1093,-8.1093,-8.1093,-8.1093,-8.1093,-8.1093,-8.0578,-7.9827,-7.9708,-7.9628,-7.941,-7.8611,-7.9391,-8.0674,-8.099,-8.1605,-8.2536,-8.3592,-8.4078,-8.4193,-8.3975,-8.4167,-8.4405,-8.4405,-8.4675,-8.4901,-8.4901,-8.4901,-8.4901,-8.4901,-8.4901,-8.441,-8.296,-8.2911,-8.2497,-8.1012,-8.0968,-8.1092,-8.1021,-8.073,-8.0508,-8.0508,-8.013,-7.9899,-7.9828,-7.9114,-7.8972,-7.9685,-7.8972,-7.8543,-7.8579,-7.94,-7.9828,-7.9828,-7.9864,-7.8917,-7.7016,-7.6982,-7.5977,-7.4171,-7.4105,-7.4105,-6.6914,-6.7148,-6.7305,-6.6992,-6.6914,-6.7344,-6.9023,-6.9805,-7.039,-7.1055,-7.1797,-7.207,-7.1211,0.0,-7.4922,-7.6445,-7.8594,0.0,0.0,0.0,-8.3436,-8.5342,-8.5304,-8.536,-8.6017,-8.6094,-8.5901,-8.5401,-8.5093,-8.4286,-8.2862,-8.2785,-8.2631,-8.2324,-8.2131,-8.2131,-8.2285,-8.1785,-8.1554,-8.1554,-8.1246,-8.1093,-8.1093,-8.1093,-8.1093,-8.1093,-8.1093,-8.1093,-8.1093,-8.1093,-8.1093,-8.1093,-8.1093,-8.1093,-8.1061,-8.0754,-8.0544,-8.0346,-7.9538,-7.9365,-7.9484,-7.9352,-8.0077,-8.1139,-8.1949,-8.2376,-8.2842,-8.3979,-8.3978,-8.3764,-8.4155,-8.4492,-8.4722,-8.4722,-8.4808,-8.4901,-8.4901,-8.4901,-8.4901,-8.4901,-8.4901,-8.4561,-8.3613,-8.321,-8.2645,-8.1663,-8.1328,-8.1128,-8.1128,-8.0948,-8.0803,-8.0508,-8.013,-7.9899,-7.9899,-7.9614,-7.9578,-7.9899,-7.915,-7.89,-7.9435,-7.9757,-7.9899,-7.9899,-7.9899,-7.8917,-7.7016,-7.7016,-7.6046,-7.4171,-7.4171,-7.4171,-6.6562,-6.668,-6.6836,-6.6562,-6.6914,-6.7812,-6.9765,-7.0898,-7.1836,-7.293,-7.3242,-7.3281,-7.3242,-7.4453,0.0,0.0,-7.9765,0.0,0.0,0.0,0.0,-8.4532,-8.4455,-8.4588,-8.528,-8.5324,-8.5093,-8.4516,-8.4247,-8.3555,-8.2362,-8.2054,-8.19,-8.19,-8.14,-8.1362,-8.19,-8.1362,-8.1093,-8.1093,-8.0823,-8.0823,-8.1093,-8.1093,-8.1093,-8.1093,-8.1093,-8.1093,-8.1093,-8.1093,-8.1093,-8.1093,-8.1093,-8.1093,-8.1061,-8.0576,-8.0464,-8.0378,-7.9349,-7.9261,-7.9632,-7.985,-8.0704,-8.1874,-8.266,-8.31,-8.3489,-8.4303,-8.4173,-8.3871,-8.4438,-8.4722,-8.4901,-8.4901,-8.4901,-8.4901,-8.4901,-8.4901,-8.4901,-8.4901,-8.4901,-8.477,-8.4268,-8.3709,-8.3053,-8.2386,-8.1812,-8.1339,-8.1092,-8.1021,-8.0876,-8.0433,-8.013,-7.9899,-7.9899,-7.9899,-7.9899,-7.9899,-7.9364,-7.9328,-7.9899,-7.9899,-7.9899,-7.9899,-7.9899,-7.8917,-7.7016,-7.7016,-7.6046,-7.4171,-7.4171,-7.4171,-6.5859,-6.625,-6.668,-6.5859,-6.6914,-6.8867,-7.1445,-7.2695,-7.4297,-7.7773,-7.5742,-7.3867,-7.5586,-7.5195,0.0,-7.8086,-8.0625,0.0,0.0,0.0,0.0,-8.3635,-8.3105,-8.2854,-8.3548,-8.3593,-8.3593,-8.3593,-8.2785,-8.2285,-8.2285,-8.1516,-8.1093,-8.1093,-8.1093,-8.1093,-8.1093,-8.1093,-8.1093,-8.1054,-8.0208,-8.0246,-8.1093,-8.1093,-8.1093,-8.1093,-8.1093,-8.1093,-8.1093,-8.1093,-8.1093,-8.1093,-8.1093,-8.1093,-8.1061,-8.0576,-8.0083,-7.9621,-7.9161,-7.9416,-7.9904,-7.9904,-8.1237,-8.2848,-8.3149,-8.3764,-8.4454,-8.4808,-8.4901,-8.4901,-8.4901,-8.4901,-8.4901,-8.4901,-8.4901,-8.4901,-8.4901,-8.4901,-8.4901,-8.4901,-8.4901,-8.4901,-8.4901,-8.4356,-8.3709,-8.3053,-8.2449,-8.1776,-8.1163,-8.0876,-8.0656,-8.0207,-7.9977,-7.9899,-7.9899,-7.9899,-7.9899,-7.9899,-7.9899,-7.9899,-7.9899,-7.9899,-7.9899,-7.9899,-7.9899,-7.8917,-7.7016,-7.7016,-7.6046,-7.4171,-7.4171,-7.4171,-6.6562,-6.6719,-6.6992,-6.7344,-6.8281,-6.9922,-7.3125,-7.3555,-7.4297,-7.7773,-7.7187,-7.6211,-7.6719,-7.7109,0.0,-7.8359,-8.0117,-8.1592,0.0,0.0,0.0,0.0,-8.2841,-8.294,-8.3611,-8.3688,-8.3387,-8.2747,-8.19,-8.1208,-8.0554,-8.0323,-7.99,-7.9285,-7.9862,-7.99,-7.9285,-7.9246,-7.9246,-7.9246,-7.9015,-7.9323,-8.0208,-8.0208,-8.0208,-8.0208,-8.0823,-8.1093,-8.1093,-8.1093,-8.1093,-8.1093,-8.1093,-8.1093,-8.1029,-8.043,-8.0081,-7.9874,-7.9284,-7.9179,-7.9541,-8.0906,-8.1769,-8.2508,-8.3956,-8.458,-8.477,-8.4854,-8.4901,-8.4901,-8.4901,-8.4901,-8.4901,-8.4901,-8.4901,-8.4901,-8.4901,-8.4901,-8.4901,-8.4901,-8.4901,-8.4901,-8.4901,-8.4356,-8.3709,-8.3053,-8.2449,-8.1776,-8.1163,-8.0803,-8.0508,-8.0433,-8.013,-7.9899,-7.9899,-7.9899,-7.9899,-7.9899,-7.9899,-7.9899,-7.9899,-7.9899,-7.9899,-7.9899,-7.9899,-7.8917,-7.7016,-7.7016,-7.6046,-7.4171,-7.4171,-7.4171,-6.6484,-6.664,-6.7031,-6.7539,-6.8828,-7.0898,-7.4336,-7.5742,-7.7031,-7.9492,-7.8789,-7.793,-7.8594,-7.8594,0.0,-7.9375,-8.0351,-8.1128,0.0,0.0,0.0,0.0,-8.1478,-8.1694,-8.1697,-8.2323,-8.2186,-8.0923,-8.07,-8.0208,-7.9323,-7.9285,-7.9054,-7.8515,-7.9015,-7.9015,-7.8515,-7.8477,-7.8477,-7.8477,-7.8169,-7.8284,-7.8823,-7.9515,-7.9823,-7.9823,-8.0362,-8.04,-8.0092,-8.0439,-8.0592,-8.0631,-8.097,-8.1093,-8.0893,-8.0354,-8.004,-7.9912,-7.9321,-7.9353,-7.9989,-8.149,-8.2312,-8.2897,-8.4438,-8.4901,-8.4901,-8.4901,-8.4901,-8.4901,-8.4901,-8.4901,-8.4901,-8.4901,-8.4901,-8.4901,-8.4901,-8.4901,-8.4901,-8.4901,-8.4901,-8.4901,-8.4901,-8.4541,-8.4012,-8.3111,-8.2233,-8.151,-8.1163,-8.073,-8.0508,-8.0508,-8.013,-7.9899,-7.9899,-7.9899,-7.9899,-7.9899,-7.9899,-7.9899,-7.9899,-7.9899,-7.9899,-7.9899,-7.9899,-7.8917,-7.7016,-7.7016,-7.6046,-7.4171,-7.4171,-7.4171,-6.5937,-6.6367,-6.707,-6.7226,-6.9336,-7.2265,-7.5508,-7.8789,-8.1289,-8.1914,-8.0351,-7.9297,-8.0859,-7.9805,-7.9219,-8.0742,0.0,0.0,-8.0701,0.0,0.0,0.0,-7.9597,-7.9636,-7.8783,-8.0155,-8.0405,-7.871,-7.9306,-7.9285,-7.8468,-7.8361,-7.8361,-7.8246,-7.8361,-7.8361,-7.8246,-7.8246,-7.8246,-7.8246,-7.7515,-7.7169,-7.7246,-7.8823,-7.9631,-7.9669,-7.9669,-7.9246,-7.8554,-7.9361,-7.9746,-7.9862,-8.0645,-8.0907,-8.072,-8.0277,-8.0005,-7.9778,-7.9321,-7.9886,-8.0905,-8.1736,-8.2746,-8.3764,-8.4635,-8.4901,-8.4901,-8.4901,-8.4901,-8.4901,-8.4901,-8.4901,-8.4901,-8.4901,-8.4901,-8.4901,-8.4901,-8.4901,-8.4901,-8.4901,-8.4901,-8.4901,-8.4901,-8.4901,-8.4492,-8.3169,-8.1945,-8.1128,-8.1128,-8.073,-8.0508,-8.0508,-8.013,-7.9899,-7.9899,-7.9899,-7.9899,-7.9899,-7.9899,-7.9899,-7.9899,-7.9971,-7.9971,-7.9899,-7.9971,-7.9069,-7.7105,-7.7105,-7.6139,-7.4372,-7.4372,-7.4272,-6.668,-6.7265,-6.8242,-6.9531,-7.3398,-7.7187,-7.8555,-8.0508,-8.1679,-8.0508,-8.0898,-8.1601,-8.1953,-8.1172,-8.0586,0.0,0.0,0.0,0.0,0.0,0.0,0.0,-7.9119,-7.9133,-7.8863,-7.9725,-7.9891,-7.8756,-7.8816,-7.8489,-7.768,-7.7583,-7.7246,-7.6553,-7.7207,-7.7207,-7.6553,-7.6553,-7.6553,-7.6553,-7.6361,-7.6284,-7.6322,-7.7361,-7.8169,-7.8784,-7.8784,-7.8669,-7.8515,-7.8767,-7.9259,-7.9836,-7.9422,-7.9922,-8.0745,-7.9848,-7.9744,-8.0072,-7.9816,-8.0257,-8.1135,-8.2006,-8.2884,-8.3764,-8.4635,-8.4901,-8.4901,-8.4901,-8.4901,-8.4901,-8.4901,-8.4901,-8.4901,-8.4901,-8.4901,-8.4901,-8.4901,-8.4901,-8.4901,-8.4901,-8.4901,-8.4901,-8.4901,-8.4901,-8.4492,-8.3169,-8.1945,-8.1128,-8.1128,-8.073,-8.0508,-8.0508,-8.013,-7.9899,-7.9899,-7.9899,-7.9899,-7.9899,-7.9899,-7.9899,-7.9899,-8.0506,-8.0542,-7.9935,-8.0506,-7.9994,-7.8132,-7.8132,-7.714,-7.5258,-7.5258,-7.4902,-6.6914,-6.7539,-6.8789,-7.1328,-7.4922,-7.8203,-7.9414,-8.039,-8.1015,-8.0976,-8.1679,-8.2031,-8.1211,-8.1015,0.0,0.0,0.0,0.0,0.0,0.0,0.0,-7.7876,-7.8177,-7.8191,-7.7742,-7.8799,-7.8979,-7.764,-7.7869,-7.7726,-7.6878,-7.6784,-7.6524,-7.6072,-7.6072,-7.6044,-7.6015,-7.5592,-7.562,-7.6034,-7.6034,-7.6062,-7.6129,-7.6958,-7.7574,-7.7997,-7.7988,-7.7785,-7.7439,-7.7891,-7.8343,-7.8805,-7.9235,-7.9653,-8.014,-7.9995,-8.0011,-8.003,-7.9941,-8.0428,-8.1224,-8.2096,-8.293,-8.3764,-8.4635,-8.4901,-8.4901,-8.4901,-8.4901,-8.4901,-8.4901,-8.4901,-8.4901,-8.4901,-8.4901,-8.4901,-8.4901,-8.4901,-8.4901,-8.4901,-8.4901,-8.4901,-8.4901,-8.4637,-8.4116,-8.3111,-8.2169,-8.1441,-8.1092,-8.1091,-8.094,-8.0544,-8.0488,-8.0328,-7.9935,-7.9899,-7.9899,-7.9899,-8.0256,-8.047,-8.047,-8.1577,-8.147,-7.9935,-8.1041,-8.0785,-7.903,-7.9382,-7.8868,-7.7417,-7.6979,-7.6433,-6.6914,-6.7969,-6.9765,-7.2578,-7.5469,-7.8008,-7.9375,-7.9687,-8.0156,-8.1758,-8.207,-8.164,-8.0195,0.0,0.0,0.0,0.0,0.0,0.0,0.0,0.0,-7.663,-7.7132,-7.7171,-7.6475,-7.778,-7.8026,-7.6441,-7.7061,-7.7074,-7.607,-7.5967,-7.5902,-7.5694,-7.5,-7.4984,-7.5813,-7.4966,-7.4956,-7.5859,-7.5887,-7.5991,-7.6237,-7.6916,-7.7197,-7.7197,-7.7252,-7.6893,-7.6276,-7.697,-7.7382,-7.7653,-7.9069,-7.9469,-7.9389,-8.0113,-8.0201,-7.9898,-7.9898,-8.0542,-8.1452,-8.2172,-8.3043,-8.3953,-8.4673,-8.4901,-8.4901,-8.4901,-8.4901,-8.4901,-8.4901,-8.4901,-8.4901,-8.4901,-8.4901,-8.4901,-8.4901,-8.4901,-8.4901,-8.4901,-8.4901,-8.4901,-8.4901,-8.4356,-8.3709,-8.3053,-8.2449,-8.1776,-8.1163,-8.1381,-8.1263,-8.058,-8.0816,-8.0613,-7.9971,-8.0042,-8.0113,-8.0113,-8.0863,-8.1291,-8.1291,-8.2647,-8.2397,-8.0363,-8.1684,-8.1648,-8.0056,-8.0725,-8.0578,-7.9567,-7.8579,-7.8036,-6.6914,-6.9687,-7.2734,-7.3203,-7.6367,-7.9414,0.0,0.0,-7.9961,0.0,-8.1172,0.0,0.0,0.0,0.0,0.0,0.0,0.0,0.0,0.0,0.0,-7.663,-7.6591,-7.6514,-7.6397,-7.7287,-7.7442,-7.6475,-7.7137,-7.6855,-7.5258,-7.5105,-7.4771,-7.4051,-7.3896,-7.4217,-7.4945,-7.4191,-7.4217,-7.4973,-7.5027,-7.5439,-7.6198,-7.6366,-7.6443,-7.6365,-7.6391,-7.6314,-7.6198,-7.6366,-7.6894,-7.7589,-7.7649,-7.8369,-7.9344,-7.9283,-7.951,-7.9898,-7.9898,-8.0921,-8.2248,-8.2361,-8.346,-8.4749,-8.4863,-8.4901,-8.4901,-8.4901,-8.4901,-8.4901,-8.4901,-8.4901,-8.4901,-8.4901,-8.4901,-8.4901,-8.4901,-8.4901,-8.4901,-8.4901,-8.4901,-8.4901,-8.4901,-8.4356,-8.3709,-8.3053,-8.2449,-8.1776,-8.1163,-8.0984,-8.0764,-8.0508,-8.039,-8.0197,-7.9899,-8.0542,-8.0934,-8.0934,-8.1648,-8.204,-8.204,-8.2897,-8.2897,-8.1898,-8.279,-8.2745,-8.1845,-8.1952,-8.1579,-8.0578,-7.9567,-7.8674,-6.8086,-7.0078,-7.2187,0.0,-7.582,-7.7812,-7.8789,-7.8633,-7.8672,-8.0,0.0,0.0,0.0,0.0,0.0,0.0,0.0,0.0,0.0,0.0,0.0,-7.6637,-7.6475,-7.6397,-7.6397,-7.6746,-7.6823,-7.6436,-7.6297,-7.5847,-7.5113,-7.4586,-7.4176,-7.3779,-7.3278,-7.3407,-7.4179,-7.3356,-7.3382,-7.4231,-7.477,-7.5219,-7.5605,-7.6118,-7.6326,-7.625,-7.6301,-7.6301,-7.6326,-7.635,-7.6582,-7.7007,-7.7923,-7.8412,-7.8765,-7.9657,-7.9933,-7.9898,-7.9898,-8.0656,-8.1679,-8.1679,-8.2816,-8.4181,-8.4181,-8.4522,-8.4901,-8.4901,-8.4901,-8.4901,-8.4901,-8.4901,-8.4901,-8.4901,-8.4901,-8.4901,-8.4901,-8.4901,-8.4901,-8.4901,-8.4901,-8.4901,-8.4901,-8.4675,-8.4266,-8.3744,-8.3423,-8.3043,-8.2504,-8.2138,-8.177,-8.1227,-8.1246,-8.112,-8.0613,-8.1291,-8.1719,-8.1719,-8.2433,-8.2861,-8.2861,-8.3646,-8.3896,-8.3575,-8.3896,-8.3682,-8.2861,-8.3325,-8.3376,-8.2891,-8.1339,-8.0321,-6.8476,0.0,-7.1172,-7.3125,-7.4765,-7.6289,0.0,0.0,-7.7695,0.0,0.0,0.0,0.0,0.0,0.0,0.0,0.0,0.0,0.0,0.0,0.0,-7.6643,-7.6127,-7.5856,-7.6049,-7.6049,-7.6049,-7.6049,-7.5469,-7.5005,-7.4811,-7.4038,-7.3435,-7.3157,-7.2538,-7.2592,-7.3407,-7.2751,-7.2776,-7.3504,-7.417,-7.4695,-7.5121,-7.5779,-7.6142,-7.6326,-7.6374,-7.6397,-7.6397,-7.6397,-7.6397,-7.6552,-7.7923,-7.8305,-7.8267,-7.966,-8.0046,-7.9898,-7.9898,-8.0428,-8.111,-8.111,-8.221,-8.3574,-8.3574,-8.4218,-8.4901,-8.4901,-8.4901,-8.4901,-8.4901,-8.4901,-8.4901,-8.4901,-8.4901,-8.4901,-8.4901,-8.4901,-8.4901,-8.4901,-8.4901,-8.4976,-8.5166,-8.5052,-8.4794,-8.4516,-8.4153,-8.3793,-8.3444,-8.2828,-8.231,-8.2018,-8.1998,-8.1834,-8.1398,-8.2076,-8.2504,-8.2504,-8.3254,-8.3682,-8.3682,-8.4289,-8.461,-8.461,-8.461,-8.4289,-8.3718,-8.4324,-8.461,-8.4527,-8.2836,-8.1886,-6.6992,-6.8828,0.0,-7.0859,-7.3437,-7.6133,0.0,0.0,0.0,0.0,0.0,0.0,0.0,0.0,0.0,0.0,0.0,0.0,0.0,0.0,0.0,-7.6704,-7.5198,-7.4402,-7.5121,-7.516,-7.516,-7.516,-7.5121,-7.4773,-7.3999,-7.3148,-7.2297,-7.1446,-7.1407,-7.175,-7.253,-7.2491,-7.2538,-7.2645,-7.2723,-7.3574,-7.5121,-7.516,-7.5624,-7.6397,-7.6397,-7.6397,-7.6397,-7.6397,-7.6397,-7.6451,-7.6831,-7.7456,-7.8156,-7.8557,-7.922,-7.9898,-7.9898,-8.0428,-8.111,-8.111,-8.221,-8.3574,-8.3574,-8.4218,-8.4901,-8.4901,-8.4901,-8.4901,-8.4901,-8.4901,-8.4901,-8.4901,-8.4901,-8.4901,-8.4901,-8.4901,-8.4901,-8.4901,-8.4901,-8.5166,-8.5924,-8.5431,-8.494,-8.514,-8.3994,-8.3126,-8.3177,-8.2024,-8.1598,-8.2665,-8.2198,-8.1789,-8.2076,-8.2861,-8.3325,-8.3325,-8.411,-8.4538,-8.4538,-8.4574,-8.461,-8.461,-8.461,-8.4574,-8.4538,-8.4574,-8.461,-8.461,-8.3454,-8.2531,-6.7578,-6.8398,0.0,-7.043,-7.207,-7.3633,-7.4492,-7.5547,0.0,0.0,0.0,0.0,0.0,0.0,0.0,0.0,0.0,0.0,0.0,0.0,0.0,-7.5118,-7.4441,-7.4115,-7.4309,-7.4347,-7.4347,-7.4347,-7.3806,-7.338,-7.3071,-7.222,-7.1601,-7.1291,-7.1291,-7.1446,-7.1733,-7.1733,-7.1733,-7.1756,-7.2336,-7.2916,-7.3535,-7.4618,-7.5276,-7.5585,-7.6165,-7.6397,-7.6397,-7.6397,-7.6397,-7.6451,-7.6976,-7.7546,-7.8156,-7.8676,-7.9271,-7.9898,-7.9898,-8.0087,-8.039,-8.0921,-8.1869,-8.293,-8.3422,-8.4218,-8.4901,-8.4901,-8.4901,-8.4901,-8.4901,-8.4901,-8.4901,-8.4901,-8.4901,-8.4901,-8.4901,-8.4901,-8.4901,-8.4901,-8.4901,-8.5166,-8.5962,-8.5886,-8.5885,-8.6605,-8.6312,-8.5872,-8.5588,-8.4524,-8.381,-8.3678,-8.3229,-8.3001,-8.2933,-8.3718,-8.4182,-8.4182,-8.4431,-8.461,-8.461,-8.461,-8.461,-8.461,-8.461,-8.461,-8.461,-8.461,-8.461,-8.461,-8.407,-8.3263,-6.7617,-6.7773,-6.8164,-6.9844,-7.0703,-7.1523,-7.2969,0.0,0.0,0.0,0.0,0.0,0.0,0.0,0.0,0.0,0.0,0.0,0.0,0.0,0.0,-7.4197,-7.3604,-7.3303,-7.3458,-7.3458,-7.3458,-7.3458,-7.2916,0.0,-7.2607,-7.1756,-7.1291,-7.1291,-7.1291,-7.1291,-7.1291,-7.1291,-7.1291,-7.1291,-7.1872,-7.2336,-7.2645,-7.3767,-7.4579,-7.5121,-7.5701,-7.6127,-7.6397,-7.6397,-7.6397,-7.6413,-7.663,-7.7278,-7.8118,-7.837,-7.9084,-7.9898,-7.9898,-7.9898,-8.0011,-8.0845,-8.1679,-8.2551,-8.3347,-8.4218,-8.4901,-8.4901,-8.4901,-8.4901,-8.4901,-8.4901,-8.4901,-8.4901,-8.4901,-8.4901,-8.4901,-8.4901,-8.4901,-8.4901,-8.4901,-8.5242,-8.6341,-8.6303,-8.6501,-8.7735,-8.7523,-8.7096,-8.6869,-8.5815,-8.4934,-8.4469,-8.4055,-8.3825,-8.3789,-8.4538,-8.4895,-8.4646,-8.486,-8.4895,-8.461,-8.461,-8.461,-8.461,-8.461,-8.461,-8.461,-8.461,-8.4753,-8.5038,-8.4875,-8.4187,0.0,0.0,0.0,-6.8906,-6.9375,0.0,-7.2578,0.0,0.0,0.0,0.0,0.0,0.0,0.0,0.0,0.0,0.0,0.0,0.0,0.0,0.0,-7.4041,-7.269,-7.191,-7.2491,-7.2568,-7.2568,-7.2568,-7.2529,-7.2529,-7.2568,-7.1756,-7.1253,-7.1253,-7.1253,-7.1253,-7.1253,-7.1291,-7.1291,-7.1291,-7.1291,-7.1756,-7.2568,-7.2607,-7.3496,-7.5044,-7.5044,-7.5546,-7.6359,-7.6397,-7.6397,-7.6374,-7.5802,-7.6613,-7.8007,-7.7566,-7.8457,-7.9898,-7.9898,-7.9898,-8.0049,-8.0883,-8.1717,-8.2551,-8.3385,-8.4218,-8.4901,-8.4901,-8.4901,-8.4901,-8.4901,-8.4901,-8.4901,-8.4901,-8.4901,-8.4901,-8.4901,-8.4901,-8.4901,-8.4901,-8.4939,-8.5469,-8.7137,-8.672,-8.672,-8.8388,-8.741,-8.6537,-8.6622,-8.5438,-8.4746,-8.5195,-8.4499,-8.4234,-8.4574,-8.5359,-8.5502,-8.4717,-8.5395,-8.5466,-8.4681,-8.461,-8.461,-8.461,-8.461,-8.461,-8.461,-8.4646,-8.5038,-8.5787,-8.5823,-8.5111,-6.6914,0.0,0.0,0.0,0.0,0.0,-6.9453,-7.0547,-7.1719,0.0,0.0,0.0,0.0,0.0,0.0,0.0,0.0,0.0,0.0,0.0,0.0,-7.245,-7.2015,-7.1717,-7.1794,-7.1717,-7.164,0.0,-7.1059,-7.0982,-7.164,-7.0827,-7.0363,-7.0363,-7.0363,-7.0363,-7.0363,-7.0982,-7.1291,-7.1291,-7.1291,-7.1446,-7.1678,-7.2297,-7.2839,-7.3342,-7.396,-7.4695,-7.5508,-7.6127,-7.6397,-7.6374,-7.5802,-7.6613,-7.8007,-7.7566,-7.8457,-7.9898,-7.9898,-7.9898,-8.0125,-8.1565,-8.2172,-8.2664,-8.4105,-8.4711,-8.4901,-8.4901,-8.4901,-8.4901,-8.4901,-8.4901,-8.4901,-8.4901,-8.4901,-8.4901,-8.4901,-8.4901,-8.4901,-8.4901,-8.5393,-8.6114,-8.7213,-8.7668,-8.8274,-8.9297,-8.9161,-8.8549,-8.7674,-8.7216,-8.6538,-8.55,-8.5081,-8.506,-8.5606,-8.5728,-8.593,-8.6251,-8.5966,-8.5716,-8.5502,-8.4931,-8.461,-8.461,-8.461,-8.461,-8.461,-8.5181,-8.5573,-8.5823,-8.617,-8.6021,-6.6914,-6.6914,-6.6992,-6.7344,0.0,0.0,-6.8555,-6.9219,-7.0,0.0,0.0,0.0,0.0,0.0,0.0,0.0,0.0,0.0,0.0,0.0,0.0,-7.1836,-7.1721,-7.1648,-7.1507,-7.1369,-7.1291,-7.1291,-7.0479,-7.0092,-7.0247,-6.9783,-6.9667,-6.9976,-6.9667,-6.9667,-6.9976,-7.0479,-7.075,-7.075,-7.1137,-7.1291,-7.133,-7.1833,-7.2258,-7.2645,-7.3148,-7.4038,-7.516,-7.5662,-7.6049,-7.6374,-7.5918,-7.6517,-7.762,-7.757,-7.8356,-7.9405,-7.9784,-7.9898,-8.0163,-8.1869,-8.2399,-8.2702,-8.4408,-8.4901,-8.4901,-8.4901,-8.4901,-8.4901,-8.4901,-8.4901,-8.4901,-8.4901,-8.4901,-8.4901,-8.4901,-8.5166,-8.5393,-8.5393,-8.5772,-8.6493,-8.7705,-8.8274,-8.888,-8.9676,-8.979,-8.9452,-8.8442,-8.8083,-8.7415,-8.6064,-8.5536,-8.5542,-8.601,-8.6322,-8.6549,-8.6894,-8.6501,-8.6109,-8.5823,-8.5038,-8.4788,-8.5109,-8.4788,-8.4931,-8.5573,-8.5716,-8.6144,-8.6787,-8.7409,-8.706,-6.6914,-6.6953,-6.7226,-6.789,-6.7617,0.0,-6.8828,-6.8633,-6.8633,-7.0117,0.0,0.0,0.0,0.0,0.0,0.0,0.0,0.0,0.0,0.0,0.0,-7.1836,-7.1747,-7.1667,-7.1549,-7.1407,-7.133,-7.1291,-7.0479,-6.9589,-6.87,-6.8661,-6.897,-6.9705,-6.9048,-6.9009,-6.9705,-6.9899,-6.9976,-7.0015,-7.0866,-7.1291,-7.1291,-7.1291,-7.1717,-7.2452,-7.2452,-7.3419,-7.4966,-7.4966,-7.5546,-7.6374,-7.6095,-7.637,-7.6963,-7.7604,-7.8138,-7.8723,-7.9594,-7.9936,-8.0277,-8.1869,-8.2437,-8.2816,-8.4408,-8.4901,-8.4901,-8.4901,-8.4901,-8.4901,-8.4901,-8.4901,-8.4901,-8.4901,-8.4901,-8.4939,-8.5014,-8.5621,-8.6151,-8.6341,-8.6379,-8.6872,-8.835,-8.8691,-8.8994,-8.9676,-8.979,-8.9591,-8.8972,-8.8324,-8.7544,-8.6673,-8.6026,-8.5808,-8.6235,-8.6977,-8.7324,-8.7121,-8.6965,-8.6573,-8.5823,-8.5038,-8.5002,-8.5787,-8.5181,-8.5573,-8.7036,-8.6394,-8.6822,-8.825,-8.8963,-8.8108,-6.6875,-6.7422,-6.7812,-6.7305,-6.8086,0.0,-6.7617,-6.7812,-6.8281,0.0,0.0,0.0,0.0,0.0,0.0,0.0,0.0,0.0,0.0,0.0,0.0,0.0,-7.1833,-7.176,-7.1686,-7.1523,-7.1407,-7.1291,-7.0479,-6.9319,-6.7849,-6.7771,-6.7849,-6.7965,-6.7849,-6.7849,-6.8003,-6.9319,-6.9976,-7.0015,-7.0866,-7.1291,-7.1291,-7.1291,-7.1369,-7.1562,-7.1562,-7.2529,-7.4115,-7.4115,-7.5044,-7.6374,-7.6095,-7.637,-7.6963,-7.7604,-7.8138,-7.8723,-7.9594,-8.0315,-8.1035,-8.2058,-8.2816,-8.3536,-8.4597,-8.4901,-8.4901,-8.4901,-8.4901,-8.4901,-8.4901,-8.4901,-8.4901,-8.4901,-8.4901,-8.509,-8.5735,-8.6,-8.6493,-8.7857,-8.8122,-8.8236,-8.8539,-8.9146,-8.9638,-8.979,-8.979,-8.9591,-8.8972,-8.8324,-8.7609,-8.6917,-8.6645,-8.6794,-8.7509,-8.8013,-8.8231,-8.8231,-8.7371,-8.6573,-8.5823,-8.5038,-8.5002,-8.5787,-8.6216,-8.6929,-8.7857,-8.7714,-8.8143,-8.907,-8.9249,-8.8108,-6.6992,-6.7226,-6.7539,-6.7539,-6.789,0.0,0.0,-6.7539,-6.7539,-6.7539,0.0,0.0,0.0,0.0,0.0,0.0,0.0,0.0,0.0,0.0,0.0,0.0,-7.1875,-7.1786,-7.1745,-7.1601,-7.1098,-7.0131,-6.9667,-6.8661,-6.6959,-6.7268,-6.7501,-6.7501,-6.7926,-6.8158,-6.8158,-6.9396,-6.9976,-7.0015,-7.0866,-7.1291,-7.1291,-7.1291,-7.1291,-7.133,-7.1756,-7.2684,-7.3922,-7.4347,-7.5237,-7.6397,-7.6262,-7.658,-7.7155,-7.7739,-7.8332,-7.8894,-7.9637,-8.0428,-8.1224,-8.2096,-8.293,-8.3764,-8.4635,-8.4901,-8.4901,-8.4901,-8.4901,-8.4901,-8.4901,-8.4901,-8.4901,-8.4901,-8.4901,-8.5014,-8.5431,-8.6151,-8.6985,-8.7857,-8.8653,-8.9184,-8.9184,-8.9525,-8.979,-8.979,-8.979,-8.9692,-8.94,-8.8823,-8.8144,-8.7452,-8.7372,-8.7478,-8.7884,-8.8473,-8.8696,-8.8565,-8.8004,-8.7348,-8.6394,-8.5966,-8.593,-8.6358,-8.75,-8.8107,-8.8107,-8.85,-8.8928,-8.932,-8.932,-8.8416,-6.7773,-6.7734,-6.793,-6.8164,-6.8047,-6.789,0.0,0.0,0.0,0.0,0.0,0.0,0.0,0.0,0.0,0.0,0.0,0.0,0.0,0.0,0.0,-7.1719,-7.1523,-7.1407,-7.1532,-7.1239,-7.0363,-6.87,-6.8584,-6.7965,-6.6533,-6.7114,-6.7578,-6.7771,-6.8429,-6.8816,-6.8816,-6.9589,-6.9976,-7.0015,-7.0866,-7.1291,-7.1291,-7.1291,-7.1369,-7.1601,-7.2297,-7.3187,-7.4193,-7.485,-7.5701,-7.663,-7.6475,-7.6778,-7.7372,-7.7867,-7.8512,-7.9133,-7.9874,-8.0656,-8.1489,-8.2323,-8.3157,-8.3991,-8.4711,-8.4901,-8.4901,-8.4901,-8.4901,-8.4901,-8.4901,-8.4901,-8.4901,-8.4901,-8.4901,-8.5014,-8.5318,-8.6455,-8.7478,-8.7819,-8.8918,-8.979,-8.979,-8.979,-8.979,-8.979,-8.979,-8.979,-8.979,-8.9295,-8.8691,-8.8146,-8.8176,-8.818,-8.8215,-8.8851,-8.9122,-8.8649,-8.8565,-8.8088,-8.7014,-8.6894,-8.6965,-8.7143,-8.8428,-8.8821,-8.8321,-8.8999,-8.932,-8.932,-8.932,-8.8721,-7.023,-7.082,-7.0898,-6.875,-6.9805,-7.0664,-6.7734,0.0,-6.7812,-6.707,0.0,0.0,0.0,0.0,0.0,0.0,0.0,0.0,0.0,0.0,0.0,-7.0742,-7.0156,-6.9947,-7.0687,-6.992,-6.891,-6.7733,-6.7771,-6.7694,-6.7384,-6.7462,-6.7849,-6.8622,-6.8738,-6.8816,-6.8816,-6.9589,-6.9976,-7.0015,-7.0866,-7.1291,-7.1291,-7.1291,-7.1717,-7.2452,-7.2568,-7.3496,-7.4966,-7.5082,-7.6088,-7.7481,-7.6707,-7.6778,-7.7372,-7.7867,-7.8512,-7.9209,-8.052,-8.1527,-8.2361,-8.3195,-8.4029,-8.4787,-8.4863,-8.4901,-8.4901,-8.4901,-8.4901,-8.4901,-8.4901,-8.4901,-8.4901,-8.4901,-8.4901,-8.5318,-8.6796,-8.7289,-8.7819,-8.9259,-8.9676,-8.979,-8.979,-8.979,-8.979,-8.979,-8.979,-8.979,-8.979,-8.9295,-8.8915,-8.889,-8.8988,-8.9094,-8.9247,-8.9762,-8.9862,-8.9059,-8.886,-8.829,-8.73,-8.7014,-8.7251,-8.7929,-8.8143,-8.8535,-8.9178,-8.9285,-8.932,-8.932,-8.932,-8.8721,-7.1549,-7.1719,-7.1601,-7.0039,-7.0078,-7.0,-6.8086,-6.7539,-6.7344,-6.6992,0.0,0.0,0.0,0.0,0.0,0.0,-6.7226,0.0,0.0,0.0,-6.8437,0.0,0.0,0.0,-6.9704,-6.9428,-6.8759,-6.7578,-6.7617,-6.7655,-6.7501,-6.7965,-6.8429,-6.8777,-6.9744,-7.0015,-6.9512,-7.0324,-7.075,-7.075,-7.1137,-7.1291,-7.1291,-7.1291,-7.1794,-7.2645,-7.3148,-7.4038,-7.516,-7.5662,-7.6281,-7.6939,-7.7094,-7.7896,-7.8992,-7.9075,-7.9479,-8.0081,-8.0659,-8.1565,-8.2627,-8.3915,-8.4597,-8.4901,-8.4901,-8.4901,-8.4901,-8.4901,-8.4901,-8.4901,-8.4901,-8.4901,-8.4901,-8.4901,-8.528,-8.581,-8.6493,-8.7402,-8.8312,-8.8956,-8.9487,-8.979,-8.979,-8.979,-8.979,-8.979,-8.979,-8.979,-8.979,-9.0007,-9.0018,-8.966,-9.0175,-9.043,-9.0043,-9.0347,-9.0095,-8.914,-8.8778,-8.8601,-8.8625,-8.8371,-8.8464,-8.8785,-8.8821,-8.8963,-8.932,-8.932,-8.932,-8.932,-8.932,-8.9023,-7.283,-7.2812,-7.2695,-7.1367,-7.0742,-7.0117,-6.8828,-6.8203,-6.7851,-6.7617,-6.7773,0.0,0.0,0.0,-6.7265,-6.7265,0.0,-6.6914,0.0,-6.6914,0.0,0.0,0.0,0.0,0.0,-6.8544,-6.8219,-6.727,-6.7309,-6.7539,-6.7849,-6.8468,-6.9009,-6.9473,-7.0672,-7.0982,-7.0363,-7.0982,-7.1291,-7.1291,-7.1291,-7.1446,-7.164,-7.164,-7.2258,-7.3303,-7.396,-7.4695,-7.5508,-7.6397,-7.69,-7.721,-7.8061,-7.926,-8.0512,-7.999,-8.0208,-8.0855,-8.1248,-8.2225,-8.3459,-8.4626,-8.4999,-8.4999,-8.4947,-8.4901,-8.4901,-8.4901,-8.4901,-8.4901,-8.4901,-8.4901,-8.4901,-8.4901,-8.5507,-8.6189,-8.6417,-8.7592,-8.8691,-8.888,-8.9411,-8.979,-8.979,-9.0017,-9.0093,-8.9828,-9.0017,-9.0055,-8.9828,-9.0548,-9.0915,-9.0475,-9.1062,-9.1283,-9.0884,-9.0689,-9.0284,-8.9545,-8.8788,-8.8756,-8.9677,-8.9064,-8.8942,-8.932,-8.9106,-8.9106,-8.932,-8.932,-8.932,-8.932,-8.932,-8.932,-7.4481,0.0,-7.5,-7.2578,-7.2578,-7.25,-6.9922,-7.0,-7.0351,-6.9492,-7.0,-7.0351,-6.957,-6.8711,-6.8164,-6.8164,-6.7461,0.0,0.0,0.0,0.0,0.0,0.0,0.0,0.0,-6.6905,-6.6844,0.0,-6.657,-6.7268,-6.87,-6.8777,-6.9551,-7.1175,-7.1253,-7.1291,-7.1253,-7.1291,-7.1291,-7.1291,-7.1291,-7.1756,-7.2568,-7.2568,-7.3458,-7.5044,-7.5044,-7.5546,-7.6436,-7.7287,-7.8177,-7.8989,-7.9801,-8.0691,-8.1324,-8.0222,-8.0367,-8.127,-8.2625,-8.4243,-8.555,-8.5355,-8.5311,-8.5228,-8.4954,-8.4901,-8.4901,-8.4901,-8.4901,-8.4901,-8.4901,-8.4901,-8.4901,-8.4901,-8.5507,-8.6341,-8.7175,-8.8009,-8.8842,-8.9601,-8.979,-8.979,-8.979,-9.051,-9.0775,-8.9942,-9.051,-9.0738,-8.9904,-9.0548,-9.1142,-9.1264,-9.1398,-9.1505,-9.1656,-9.1016,-9.0581,-9.0545,-8.8859,-8.8554,-8.9929,-8.8279,-8.792,-8.9285,-8.8535,-8.8535,-8.932,-8.932,-8.932,-8.932,-8.932,-8.932,0.0,0.0,-7.6172,-7.4805,0.0,0.0,-7.0703,-7.0508,-7.0469,-6.957,-7.0078,-7.0469,-6.9648,-6.9219,-6.8828,-6.8281,-6.7969,-6.7578,0.0,-6.6914,0.0,0.0,0.0,0.0,0.0,0.0,0.0,0.0,-6.6454,-6.7152,-6.8738,-6.8816,-6.9589,-7.1253,-7.1291,-7.1291,-7.1291,-7.1291,-7.1291,-7.1291,-7.1291,-7.1756,-7.2607,-7.2607,-7.3496,-7.5121,-7.5121,-7.5585,-7.6397,-7.6707,-7.7365,-7.8216,-7.9067,-7.9918,-8.0666,-8.0847,-8.0983,-8.13,-8.2736,-8.4042,-8.5214,-8.5474,-8.5435,-8.5311,-8.5186,-8.5044,-8.4901,-8.4901,-8.4901,-8.5014,-8.5583,-8.5318,-8.5204,-8.6303,-8.6758,-8.7175,-8.8009,-8.8842,-8.9487,-8.9752,-8.979,-8.979,-8.979,-9.051,-9.0813,-8.9942,-9.0548,-9.1003,-9.07,-9.1382,-9.2165,-9.2753,-9.2955,-9.2816,-9.2357,-9.1249,-9.0581,-9.0581,-8.9951,-8.9717,-9.0213,-8.9295,-8.9006,-8.9543,-8.9121,-8.9035,-8.932,-8.932,-8.932,-8.932,-8.932,-8.932,-7.7808,-7.7753,0.0,-7.6749,-7.5779,0.0,-7.2539,-7.2344,-7.2226,-7.1011,-7.1248,-7.1484,-7.0937,-7.0078,-6.9258,-6.8711,-6.8125,-6.7539,0.0,-6.6914,-6.6914,0.0,0.0,0.0,0.0,0.0,0.0,-6.64,-6.6438,-6.7152,0.0,-6.8816,-6.9589,-7.1253,-7.1291,-7.1291,-7.1291,-7.1291,-7.1446,-7.1756,-7.1756,-7.2375,-7.3496,-7.3496,-7.427,-7.5546,-7.5546,-7.6049,-7.69,-7.721,-7.7829,-7.868,-7.9569,-8.0227,-8.073,-8.131,-8.1775,-8.2371,-8.3503,-8.4643,-8.5544,-8.5791,-8.5775,-8.559,-8.5393,-8.5181,-8.5234,-8.6008,-8.581,-8.5583,-8.672,-8.6379,-8.6,-8.6758,-8.7402,-8.7971,-8.8501,-8.9222,-8.9904,-9.0207,-9.0017,-8.9904,-9.0207,-9.0738,-9.0813,-8.9942,-9.0548,-9.1079,-9.1079,-9.1799,-9.2633,-9.3504,-9.369,-9.34,-9.2461,-9.0993,-9.0292,-9.0581,-8.9915,-8.9798,-9.0258,-8.9677,-8.982,-9.0882,-8.9835,-8.9713,-9.0534,-8.9713,-8.932,-8.932,-8.932,-8.932]}]]